ftp/pub/palmer/observations_modified/2018/March/AR180304_AWS2.txt

Download

Sample DateTime	Unit Id	WS Avg 2min	WD Avg 2min	WGS 10min	WGD 10min	Air Temp	Rel Humidity	Dew Point	Pyranometer	Quantum	Air Pressure	Snow Level	Rainfall	PW Current	Visibility	CBase 1	CBase 2	CBase 3	Vert Vis
2018/03/04 00:00:00	AWS2	7.13	2	8.08	12	2.8	88	0.9	NA	NA	981.3	NA	NA		M	NA	NA	NA	NA
2018/03/04 00:01:00	AWS2	7.55	8	8.28	28	2.8	88	1.0	NA	NA	981.3	NA	NA		M	NA	NA	NA	NA
2018/03/04 00:02:00	AWS2	7.82	10	8.80	2	2.7	88	1.0	NA	NA	981.4	NA	NA		M	NA	NA	NA	NA
2018/03/04 00:03:00	AWS2	7.78	2	8.80	2	2.7	89	1.0	NA	NA	981.2	NA	NA		M	NA	NA	NA	NA
2018/03/04 00:04:00	AWS2	7.78	2	8.90	3	2.7	89	1.0	NA	NA	981.4	NA	NA		M	NA	NA	NA	NA
2018/03/04 00:05:00	AWS2	7.89	5	9.36	12	2.7	89	1.1	NA	NA	981.3	NA	NA		M	NA	NA	NA	NA
2018/03/04 00:06:00	AWS2	7.28	7	9.36	12	2.7	89	1.1	NA	NA	980.8	NA	NA		M	NA	NA	NA	NA
2018/03/04 00:07:00	AWS2	6.63	4	9.36	12	2.7	89	1.0	NA	NA	981.1	NA	NA		M	NA	NA	NA	NA
2018/03/04 00:08:00	AWS2	6.15	2	9.36	12	2.6	89	1.0	NA	NA	981.1	NA	NA		M	NA	NA	NA	NA
2018/03/04 00:09:00	AWS2	5.73	9	9.36	12	2.6	89	1.0	NA	NA	980.8	NA	NA		M	NA	NA	NA	NA
2018/03/04 00:10:00	AWS2	5.60	11	9.36	12	2.6	89	1.0	NA	NA	981.1	NA	NA		M	NA	NA	NA	NA
2018/03/04 00:11:00	AWS2	5.49	10	9.36	12	2.5	90	1.0	NA	NA	981.4	NA	NA		M	NA	NA	NA	NA
2018/03/04 00:12:00	AWS2	5.75	10	9.36	12	2.5	90	1.0	NA	NA	981.1	NA	NA		M	NA	NA	NA	NA
2018/03/04 00:13:00	AWS2	5.52	7	9.36	12	2.5	90	1.0	NA	NA	980.9	NA	NA		M	NA	NA	NA	NA
2018/03/04 00:14:00	AWS2	5.24	12	9.36	12	2.5	90	1.1	NA	NA	981.3	NA	NA		M	NA	NA	NA	NA
2018/03/04 00:15:00	AWS2	4.96	17	7.25	10	2.5	90	1.1	NA	NA	980.7	NA	NA		M	NA	NA	NA	NA
2018/03/04 00:16:00	AWS2	4.73	20	7.15	6	2.5	91	1.1	NA	NA	980.7	NA	NA		M	NA	NA	NA	NA
2018/03/04 00:17:00	AWS2	4.94	23	7.15	6	2.5	91	1.1	NA	NA	981.1	NA	NA		M	NA	NA	NA	NA
2018/03/04 00:18:00	AWS2	4.70	21	6.84	12	2.5	91	1.2	NA	NA	981.2	NA	NA		M	NA	NA	NA	NA
2018/03/04 00:19:00	AWS2	4.32	18	6.53	6	2.5	91	1.2	NA	NA	981.4	NA	NA		M	NA	NA	NA	NA
2018/03/04 00:20:00	AWS2	3.93	17	6.53	6	2.5	91	1.2	NA	NA	981.4	NA	NA		M	NA	NA	NA	NA
2018/03/04 00:21:00	AWS2	3.66	15	6.53	6	2.5	91	1.2	NA	NA	981.2	NA	NA		M	NA	NA	NA	NA
2018/03/04 00:22:00	AWS2	3.52	16	5.97	18	2.5	91	1.2	NA	NA	981.6	NA	NA		M	NA	NA	NA	NA
2018/03/04 00:23:00	AWS2	3.50	17	5.97	18	2.5	91	1.2	NA	NA	981.2	NA	NA		M	NA	NA	NA	NA
2018/03/04 00:24:00	AWS2	3.52	19	5.25	25	2.5	91	1.2	NA	NA	981.8	NA	NA		M	NA	NA	NA	NA
2018/03/04 00:25:00	AWS2	3.43	22	5.25	25	2.5	91	1.2	NA	NA	981.8	NA	NA		M	NA	NA	NA	NA
2018/03/04 00:26:00	AWS2	3.50	26	5.25	25	2.5	91	1.2	NA	NA	981.5	NA	NA		M	NA	NA	NA	NA
2018/03/04 00:27:00	AWS2	3.20	34	5.09	21	2.6	91	1.3	NA	NA	981.8	NA	NA		M	NA	NA	NA	NA
2018/03/04 00:28:00	AWS2	2.66	40	4.32	13	2.6	91	1.3	NA	NA	981.2	NA	NA		M	NA	NA	NA	NA
2018/03/04 00:29:00	AWS2	2.87	36	4.01	17	2.7	91	1.3	NA	NA	981.6	NA	NA		M	NA	NA	NA	NA
2018/03/04 00:30:00	AWS2	2.87	32	4.01	17	2.7	91	1.3	NA	NA	981.8	NA	NA		M	NA	NA	NA	NA
2018/03/04 00:31:00	AWS2	2.50	39	4.01	17	2.7	90	1.3	NA	NA	981.5	NA	NA		M	NA	NA	NA	NA
2018/03/04 00:32:00	AWS2	2.89	53	4.17	63	2.7	90	1.3	NA	NA	981.3	NA	NA		M	NA	NA	NA	NA
2018/03/04 00:33:00	AWS2	3.82	60	4.78	61	2.7	90	1.2	NA	NA	981.6	NA	NA		M	NA	NA	NA	NA
2018/03/04 00:34:00	AWS2	4.41	60	4.78	62	2.7	90	1.3	NA	NA	981.7	NA	NA		M	NA	NA	NA	NA
2018/03/04 00:35:00	AWS2	4.56	59	5.35	62	2.8	90	1.3	NA	NA	981.9	NA	NA		M	NA	NA	NA	NA
2018/03/04 00:36:00	AWS2	4.81	61	5.35	66	2.9	89	1.3	NA	NA	982.0	NA	NA		M	NA	NA	NA	NA
2018/03/04 00:37:00	AWS2	4.87	64	5.35	66	3.0	89	1.3	NA	NA	981.6	NA	NA		M	NA	NA	NA	NA
2018/03/04 00:38:00	AWS2	5.28	63	6.64	65	3.0	88	1.2	NA	NA	981.5	NA	NA		M	NA	NA	NA	NA
2018/03/04 00:39:00	AWS2	5.37	64	6.64	65	3.1	87	1.1	NA	NA	982.0	NA	NA		M	NA	NA	NA	NA
2018/03/04 00:40:00	AWS2	4.72	66	6.64	65	3.2	86	1.0	NA	NA	981.7	NA	NA		M	NA	NA	NA	NA
2018/03/04 00:41:00	AWS2	4.82	66	6.64	65	3.3	85	0.9	NA	NA	981.9	NA	NA		M	NA	NA	NA	NA
2018/03/04 00:42:00	AWS2	5.28	67	6.64	65	3.3	84	0.9	NA	NA	981.9	NA	NA		M	NA	NA	NA	NA
2018/03/04 00:43:00	AWS2	5.37	68	6.64	65	3.3	83	0.8	NA	NA	982.1	NA	NA		M	NA	NA	NA	NA
2018/03/04 00:44:00	AWS2	5.63	72	6.64	65	3.4	83	0.7	NA	NA	981.7	NA	NA		M	NA	NA	NA	NA
2018/03/04 00:45:01	AWS2	5.63	74	6.64	65	3.4	82	0.7	NA	NA	981.5	NA	NA		M	NA	NA	NA	NA
2018/03/04 00:46:01	AWS2	5.40	71	6.64	65	3.4	82	0.6	NA	NA	981.7	NA	NA		M	NA	NA	NA	NA
2018/03/04 00:47:01	AWS2	5.95	70	6.84	72	3.5	81	0.6	NA	NA	982.0	NA	NA		M	NA	NA	NA	NA
2018/03/04 00:48:01	AWS2	6.09	74	6.84	72	3.5	81	0.6	NA	NA	981.8	NA	NA		M	NA	NA	NA	NA
2018/03/04 00:49:01	AWS2	5.78	73	7.36	66	3.6	81	0.5	NA	NA	981.7	NA	NA		M	NA	NA	NA	NA
2018/03/04 00:50:01	AWS2	5.74	71	7.36	66	3.6	80	0.5	NA	NA	981.8	NA	NA		M	NA	NA	NA	NA
2018/03/04 00:51:01	AWS2	5.47	80	7.36	66	3.6	80	0.4	NA	NA	982.0	NA	NA		M	NA	NA	NA	NA
2018/03/04 00:52:01	AWS2	4.96	93	7.36	66	3.5	80	0.3	NA	NA	981.6	NA	NA		M	NA	NA	NA	NA
2018/03/04 00:53:01	AWS2	4.32	99	7.36	66	3.3	80	0.2	NA	NA	981.8	NA	NA		M	NA	NA	NA	NA
2018/03/04 00:54:01	AWS2	4.24	103	7.36	66	3.1	80	0.1	NA	NA	981.7	NA	NA		M	NA	NA	NA	NA
2018/03/04 00:55:01	AWS2	4.59	106	7.36	66	3.0	81	0.0	NA	NA	981.7	NA	NA		M	NA	NA	NA	NA
2018/03/04 00:56:01	AWS2	4.70	106	7.36	66	2.8	82	0.0	NA	NA	981.9	NA	NA		M	NA	NA	NA	NA
2018/03/04 00:57:01	AWS2	4.63	104	7.36	66	2.7	83	0.0	NA	NA	981.6	NA	NA		M	NA	NA	NA	NA
2018/03/04 00:58:01	AWS2	4.83	100	7.36	66	2.6	83	0.1	NA	NA	981.7	NA	NA		M	NA	NA	NA	NA
2018/03/04 00:59:01	AWS2	4.93	100	6.58	67	2.6	84	0.1	NA	NA	981.8	NA	NA		M	NA	NA	NA	NA
2018/03/04 01:00:01	AWS2	4.85	106	6.28	70	2.5	84	0.1	NA	NA	981.6	NA	NA		M	NA	NA	NA	NA
2018/03/04 01:01:01	AWS2	5.38	105	6.48	91	2.5	84	0.1	NA	NA	981.6	NA	NA		M	NA	NA	NA	NA
2018/03/04 01:02:01	AWS2	5.67	98	6.48	91	2.5	84	0.1	NA	NA	981.7	NA	NA		M	NA	NA	NA	NA
2018/03/04 01:03:01	AWS2	5.30	99	6.48	91	2.5	84	0.1	NA	NA	982.0	NA	NA		M	NA	NA	NA	NA
2018/03/04 01:04:01	AWS2	5.39	99	6.48	91	2.5	84	0.1	NA	NA	981.6	NA	NA		M	NA	NA	NA	NA
2018/03/04 01:05:01	AWS2	5.21	96	6.48	91	2.5	84	0.1	NA	NA	981.8	NA	NA		M	NA	NA	NA	NA
2018/03/04 01:06:01	AWS2	5.32	91	6.48	88	2.5	84	0.1	NA	NA	981.9	NA	NA		M	NA	NA	NA	NA
2018/03/04 01:07:01	AWS2	5.60	88	6.48	88	2.6	84	0.1	NA	NA	981.7	NA	NA		M	NA	NA	NA	NA
2018/03/04 01:08:01	AWS2	5.07	84	6.48	88	2.6	84	0.1	NA	NA	982.0	NA	NA		M	NA	NA	NA	NA
2018/03/04 01:09:01	AWS2	4.90	76	6.48	88	2.7	84	0.2	NA	NA	981.6	NA	NA		M	NA	NA	NA	NA
2018/03/04 01:10:01	AWS2	4.94	68	6.48	88	2.7	83	0.2	NA	NA	981.7	NA	NA		M	NA	NA	NA	NA
2018/03/04 01:11:01	AWS2	5.21	65	6.48	88	2.9	83	0.2	NA	NA	981.5	NA	NA		M	NA	NA	NA	NA
2018/03/04 01:12:01	AWS2	5.52	67	6.48	88	2.9	82	0.2	NA	NA	981.5	NA	NA		M	NA	NA	NA	NA
2018/03/04 01:13:01	AWS2	5.26	71	6.48	88	3.0	82	0.3	NA	NA	982.0	NA	NA		M	NA	NA	NA	NA
2018/03/04 01:14:01	AWS2	4.62	66	6.48	88	3.1	82	0.3	NA	NA	981.7	NA	NA		M	NA	NA	NA	NA
2018/03/04 01:15:01	AWS2	4.42	63	6.48	88	3.1	82	0.3	NA	NA	982.1	NA	NA		M	NA	NA	NA	NA
2018/03/04 01:16:01	AWS2	4.91	63	6.12	53	3.2	82	0.3	NA	NA	981.6	NA	NA		M	NA	NA	NA	NA
2018/03/04 01:17:01	AWS2	5.30	58	6.28	58	3.2	81	0.3	NA	NA	981.6	NA	NA		M	NA	NA	NA	NA
2018/03/04 01:18:01	AWS2	5.54	53	6.38	43	3.3	81	0.4	NA	NA	982.0	NA	NA		M	NA	NA	NA	NA
2018/03/04 01:19:01	AWS2	5.33	45	6.38	43	3.4	81	0.4	NA	NA	981.7	NA	NA		M	NA	NA	NA	NA
2018/03/04 01:20:01	AWS2	4.92	43	6.38	43	3.5	80	0.4	NA	NA	981.8	NA	NA		M	NA	NA	NA	NA
2018/03/04 01:21:01	AWS2	5.00	48	6.38	43	3.6	80	0.4	NA	NA	981.7	NA	NA		M	NA	NA	NA	NA
2018/03/04 01:22:01	AWS2	5.02	46	6.38	43	3.6	80	0.5	NA	NA	981.8	NA	NA		M	NA	NA	NA	NA
2018/03/04 01:23:01	AWS2	5.14	40	7.15	42	3.6	80	0.4	NA	NA	981.8	NA	NA		M	NA	NA	NA	NA
2018/03/04 01:24:01	AWS2	5.71	41	7.20	44	3.6	80	0.4	NA	NA	981.6	NA	NA		M	NA	NA	NA	NA
2018/03/04 01:25:01	AWS2	5.76	44	7.20	44	3.6	80	0.4	NA	NA	982.0	NA	NA		M	NA	NA	NA	NA
2018/03/04 01:26:01	AWS2	5.41	39	7.20	44	3.6	80	0.4	NA	NA	981.5	NA	NA		M	NA	NA	NA	NA
2018/03/04 01:27:01	AWS2	5.93	33	7.82	37	3.6	79	0.4	NA	NA	981.9	NA	NA		M	NA	NA	NA	NA
2018/03/04 01:28:01	AWS2	6.93	28	7.82	37	3.6	79	0.4	NA	NA	981.3	NA	NA		M	NA	NA	NA	NA
2018/03/04 01:29:01	AWS2	7.40	22	7.87	16	3.6	80	0.4	NA	NA	981.3	NA	NA		M	NA	NA	NA	NA
2018/03/04 01:30:01	AWS2	7.60	21	8.33	22	3.5	80	0.4	NA	NA	981.4	NA	NA		M	NA	NA	NA	NA
2018/03/04 01:31:01	AWS2	7.96	23	9.41	18	3.5	81	0.4	NA	NA	981.3	NA	NA		M	NA	NA	NA	NA
2018/03/04 01:32:01	AWS2	7.38	19	9.41	18	3.4	81	0.5	NA	NA	981.4	NA	NA		M	NA	NA	NA	NA
2018/03/04 01:33:01	AWS2	6.75	19	9.41	18	3.4	82	0.6	NA	NA	981.8	NA	NA		M	NA	NA	NA	NA
2018/03/04 01:34:01	AWS2	6.98	27	9.41	18	3.4	82	0.6	NA	NA	981.6	NA	NA		M	NA	NA	NA	NA
2018/03/04 01:35:01	AWS2	6.61	32	9.41	18	3.4	82	0.6	NA	NA	981.5	NA	NA		M	NA	NA	NA	NA
2018/03/04 01:36:01	AWS2	6.67	31	9.41	18	3.4	82	0.6	NA	NA	981.8	NA	NA		M	NA	NA	NA	NA
2018/03/04 01:37:01	AWS2	6.76	35	9.41	18	3.4	82	0.6	NA	NA	981.7	NA	NA		M	NA	NA	NA	NA
2018/03/04 01:38:01	AWS2	6.18	33	9.41	18	3.5	81	0.6	NA	NA	981.4	NA	NA		M	NA	NA	NA	NA
2018/03/04 01:39:01	AWS2	6.20	23	9.41	18	3.5	81	0.6	NA	NA	981.8	NA	NA		M	NA	NA	NA	NA
2018/03/04 01:40:01	AWS2	6.26	24	9.41	18	3.5	81	0.5	NA	NA	981.3	NA	NA		M	NA	NA	NA	NA
2018/03/04 01:41:01	AWS2	6.85	25	8.33	19	3.5	81	0.5	NA	NA	981.4	NA	NA		M	NA	NA	NA	NA
2018/03/04 01:42:01	AWS2	7.39	24	8.33	19	3.4	81	0.5	NA	NA	981.7	NA	NA		M	NA	NA	NA	NA
2018/03/04 01:43:01	AWS2	6.92	22	8.33	19	3.4	82	0.6	NA	NA	981.6	NA	NA		M	NA	NA	NA	NA
2018/03/04 01:44:01	AWS2	6.49	19	8.33	19	3.4	82	0.7	NA	NA	981.5	NA	NA		M	NA	NA	NA	NA
2018/03/04 01:45:01	AWS2	6.05	23	8.33	19	3.4	82	0.7	NA	NA	981.5	NA	NA		M	NA	NA	NA	NA
2018/03/04 01:46:01	AWS2	6.24	27	8.33	19	3.4	82	0.7	NA	NA	981.8	NA	NA		M	NA	NA	NA	NA
2018/03/04 01:47:01	AWS2	6.52	28	8.33	19	3.5	82	0.8	NA	NA	981.9	NA	NA		M	NA	NA	NA	NA
2018/03/04 01:48:01	AWS2	6.02	30	8.33	19	3.5	82	0.7	NA	NA	981.6	NA	NA		M	NA	NA	NA	NA
2018/03/04 01:49:01	AWS2	5.87	32	8.33	19	3.5	82	0.7	NA	NA	981.6	NA	NA		M	NA	NA	NA	NA
2018/03/04 01:50:01	AWS2	5.96	37	8.33	19	3.5	81	0.6	NA	NA	981.4	NA	NA		M	NA	NA	NA	NA
2018/03/04 01:51:01	AWS2	6.45	42	7.97	27	3.6	81	0.6	NA	NA	981.6	NA	NA		M	NA	NA	NA	NA
2018/03/04 01:52:01	AWS2	6.61	39	7.87	24	3.6	81	0.6	NA	NA	981.0	NA	NA		M	NA	NA	NA	NA
2018/03/04 01:53:01	AWS2	5.50	32	7.87	24	3.6	81	0.6	NA	NA	981.8	NA	NA		M	NA	NA	NA	NA
2018/03/04 01:54:01	AWS2	5.18	27	7.87	24	3.6	81	0.6	NA	NA	981.2	NA	NA		M	NA	NA	NA	NA
2018/03/04 01:55:01	AWS2	5.65	27	7.87	24	3.5	81	0.6	NA	NA	981.6	NA	NA		M	NA	NA	NA	NA
2018/03/04 01:56:01	AWS2	5.90	30	7.87	24	3.5	82	0.7	NA	NA	981.3	NA	NA		M	NA	NA	NA	NA
2018/03/04 01:57:01	AWS2	6.09	35	7.41	37	3.5	82	0.7	NA	NA	981.6	NA	NA		M	NA	NA	NA	NA
2018/03/04 01:58:01	AWS2	6.24	33	7.72	27	3.5	82	0.7	NA	NA	981.2	NA	NA		M	NA	NA	NA	NA
2018/03/04 01:59:01	AWS2	6.59	26	7.72	27	3.5	82	0.7	NA	NA	981.6	NA	NA		M	NA	NA	NA	NA
2018/03/04 02:00:01	AWS2	6.32	30	7.72	27	3.5	82	0.7	NA	NA	981.1	NA	NA		M	NA	NA	NA	NA
2018/03/04 02:01:01	AWS2	5.49	32	7.72	27	3.5	82	0.7	NA	NA	981.1	NA	NA		M	NA	NA	NA	NA
2018/03/04 02:02:01	AWS2	5.72	30	7.72	27	3.5	82	0.7	NA	NA	981.7	NA	NA		M	NA	NA	NA	NA
2018/03/04 02:03:01	AWS2	6.38	27	7.72	27	3.4	82	0.7	NA	NA	981.3	NA	NA		M	NA	NA	NA	NA
2018/03/04 02:04:01	AWS2	6.20	28	7.72	27	3.4	83	0.7	NA	NA	981.8	NA	NA		M	NA	NA	NA	NA
2018/03/04 02:05:01	AWS2	6.19	28	7.72	27	3.4	83	0.7	NA	NA	981.1	NA	NA		M	NA	NA	NA	NA
2018/03/04 02:06:01	AWS2	6.04	22	7.72	27	3.3	83	0.8	NA	NA	981.3	NA	NA		M	NA	NA	NA	NA
2018/03/04 02:07:01	AWS2	5.67	22	7.72	27	3.3	84	0.8	NA	NA	981.6	NA	NA		M	NA	NA	NA	NA
2018/03/04 02:08:01	AWS2	5.78	31	7.20	26	3.3	84	0.8	NA	NA	981.3	NA	NA		M	NA	NA	NA	NA
2018/03/04 02:09:01	AWS2	6.20	35	7.20	26	3.3	84	0.9	NA	NA	981.3	NA	NA		M	NA	NA	NA	NA
2018/03/04 02:10:01	AWS2	6.65	30	7.61	23	3.3	84	0.8	NA	NA	981.3	NA	NA		M	NA	NA	NA	NA
2018/03/04 02:11:01	AWS2	6.21	27	7.61	23	3.2	84	0.9	NA	NA	981.4	NA	NA		M	NA	NA	NA	NA
2018/03/04 02:12:01	AWS2	6.52	27	7.87	34	3.2	85	0.9	NA	NA	981.6	NA	NA		M	NA	NA	NA	NA
2018/03/04 02:13:01	AWS2	7.66	27	8.59	26	3.2	85	0.9	NA	NA	980.7	NA	NA		M	NA	NA	NA	NA
2018/03/04 02:14:01	AWS2	7.42	28	8.59	26	3.1	85	0.9	NA	NA	981.4	NA	NA		M	NA	NA	NA	NA
2018/03/04 02:15:01	AWS2	7.28	31	8.80	31	3.1	86	0.9	NA	NA	981.5	NA	NA		M	NA	NA	NA	NA
2018/03/04 02:16:01	AWS2	7.77	31	9.16	24	3.0	86	0.9	NA	NA	980.9	NA	NA		M	NA	NA	NA	NA
2018/03/04 02:17:01	AWS2	7.80	31	9.16	24	3.0	87	1.0	NA	NA	981.5	NA	NA		M	NA	NA	NA	NA
2018/03/04 02:18:01	AWS2	8.04	33	9.21	34	3.0	87	1.0	NA	NA	981.5	NA	NA		M	NA	NA	NA	NA
2018/03/04 02:19:01	AWS2	8.35	33	9.36	48	2.9	87	1.0	NA	NA	981.3	NA	NA		M	NA	NA	NA	NA
2018/03/04 02:20:01	AWS2	8.03	33	9.36	48	2.9	88	1.0	NA	NA	980.9	NA	NA		M	NA	NA	NA	NA
2018/03/04 02:21:01	AWS2	8.14	29	9.98	21	2.9	88	1.1	NA	NA	981.2	NA	NA		M	NA	NA	NA	NA
2018/03/04 02:22:01	AWS2	7.98	29	9.98	21	2.9	88	1.1	NA	NA	981.5	NA	NA		M	NA	NA	NA	NA
2018/03/04 02:23:01	AWS2	7.80	32	10.03	23	2.8	88	1.1	NA	NA	981.0	NA	NA		M	NA	NA	NA	NA
2018/03/04 02:24:01	AWS2	8.19	30	10.03	23	2.8	88	1.0	NA	NA	981.0	NA	NA		M	NA	NA	NA	NA
2018/03/04 02:25:01	AWS2	8.31	27	10.03	23	2.8	88	1.0	NA	NA	981.2	NA	NA		M	NA	NA	NA	NA
2018/03/04 02:26:01	AWS2	8.72	25	10.34	17	2.8	88	1.1	NA	NA	981.4	NA	NA		M	NA	NA	NA	NA
2018/03/04 02:27:01	AWS2	9.12	21	10.34	17	2.8	88	1.1	NA	NA	981.2	NA	NA		M	NA	NA	NA	NA
2018/03/04 02:28:01	AWS2	9.04	20	10.34	17	2.8	89	1.1	NA	NA	981.2	NA	NA		M	NA	NA	NA	NA
2018/03/04 02:29:01	AWS2	9.28	23	11.11	22	2.8	89	1.2	NA	NA	981.3	NA	NA		M	NA	NA	NA	NA
2018/03/04 02:30:01	AWS2	10.22	22	11.68	29	2.8	89	1.2	NA	NA	981.1	NA	NA		M	NA	NA	NA	NA
2018/03/04 02:31:01	AWS2	11.25	21	12.71	15	2.9	89	1.2	NA	NA	980.7	NA	NA		M	NA	NA	NA	NA
2018/03/04 02:32:01	AWS2	11.42	20	12.71	15	2.9	89	1.2	NA	NA	981.0	NA	NA		M	NA	NA	NA	NA
2018/03/04 02:33:01	AWS2	10.78	21	12.71	15	2.9	89	1.2	NA	NA	980.6	NA	NA		M	NA	NA	NA	NA
2018/03/04 02:34:00	AWS2	10.42	21	12.71	15	3.0	88	1.2	NA	NA	981.0	NA	NA		M	NA	NA	NA	NA
2018/03/04 02:35:01	AWS2	10.25	20	12.71	15	3.0	88	1.3	NA	NA	980.8	NA	NA		M	NA	NA	NA	NA
2018/03/04 02:36:00	AWS2	10.24	20	12.71	15	3.0	88	1.2	NA	NA	981.0	NA	NA		M	NA	NA	NA	NA
2018/03/04 02:37:00	AWS2	11.25	19	13.17	22	3.0	88	1.3	NA	NA	980.6	NA	NA		M	NA	NA	NA	NA
2018/03/04 02:38:00	AWS2	11.94	20	13.17	23	3.1	88	1.3	NA	NA	980.6	NA	NA		M	NA	NA	NA	NA
2018/03/04 02:39:00	AWS2	11.92	17	13.17	23	3.1	88	1.3	NA	NA	980.6	NA	NA		M	NA	NA	NA	NA
2018/03/04 02:40:00	AWS2	11.73	15	13.17	23	3.1	88	1.3	NA	NA	980.8	NA	NA		M	NA	NA	NA	NA
2018/03/04 02:41:00	AWS2	10.61	16	13.17	23	3.1	88	1.4	NA	NA	980.4	NA	NA		M	NA	NA	NA	NA
2018/03/04 02:42:00	AWS2	9.80	14	13.17	23	3.1	88	1.3	NA	NA	981.1	NA	NA		M	NA	NA	NA	NA
2018/03/04 02:43:00	AWS2	10.60	14	13.17	23	3.1	88	1.3	NA	NA	980.8	NA	NA		M	NA	NA	NA	NA
2018/03/04 02:44:01	AWS2	11.53	19	13.17	23	3.1	88	1.3	NA	NA	980.7	NA	NA		M	NA	NA	NA	NA
2018/03/04 02:45:00	AWS2	11.60	19	13.17	23	3.0	88	1.3	NA	NA	980.8	NA	NA		M	NA	NA	NA	NA
2018/03/04 02:46:01	AWS2	11.96	18	13.17	23	3.0	88	1.3	NA	NA	980.4	NA	NA		M	NA	NA	NA	NA
2018/03/04 02:47:00	AWS2	11.33	18	13.17	23	3.0	88	1.3	NA	NA	980.8	NA	NA		M	NA	NA	NA	NA
2018/03/04 02:48:00	AWS2	10.07	17	12.96	22	3.0	88	1.2	NA	NA	980.9	NA	NA		M	NA	NA	NA	NA
2018/03/04 02:49:00	AWS2	10.95	16	15.59	22	3.0	88	1.3	NA	NA	980.5	NA	NA		M	NA	NA	NA	NA
2018/03/04 02:50:00	AWS2	12.41	17	15.59	22	3.0	88	1.3	NA	NA	980.0	NA	NA		M	NA	NA	NA	NA
2018/03/04 02:51:00	AWS2	12.46	17	15.59	22	3.0	89	1.3	NA	NA	980.6	NA	NA		M	NA	NA	NA	NA
2018/03/04 02:52:00	AWS2	11.61	18	15.59	22	3.0	89	1.4	NA	NA	980.5	NA	NA		M	NA	NA	NA	NA
2018/03/04 02:53:00	AWS2	11.39	19	15.59	22	3.0	89	1.4	NA	NA	980.6	NA	NA		M	NA	NA	NA	NA
2018/03/04 02:54:00	AWS2	10.98	16	15.59	22	3.0	89	1.4	NA	NA	980.8	NA	NA		M	NA	NA	NA	NA
2018/03/04 02:55:00	AWS2	10.34	16	15.59	22	3.0	90	1.4	NA	NA	980.8	NA	NA		M	NA	NA	NA	NA
2018/03/04 02:56:00	AWS2	10.57	17	15.59	22	2.9	90	1.4	NA	NA	980.4	NA	NA		M	NA	NA	NA	NA
2018/03/04 02:57:00	AWS2	10.73	17	15.59	22	2.9	90	1.4	NA	NA	980.6	NA	NA		M	NA	NA	NA	NA
2018/03/04 02:58:00	AWS2	10.11	15	15.59	22	2.9	90	1.4	NA	NA	980.8	NA	NA		M	NA	NA	NA	NA
2018/03/04 02:59:00	AWS2	9.49	13	13.84	9	2.9	90	1.4	NA	NA	980.8	NA	NA		M	NA	NA	NA	NA
2018/03/04 03:00:01	AWS2	9.41	14	13.32	9	2.9	90	1.4	NA	NA	980.8	NA	NA		M	NA	NA	NA	NA
2018/03/04 03:01:00	AWS2	10.14	17	13.38	13	2.8	91	1.4	NA	NA	980.8	NA	NA		M	NA	NA	NA	NA
2018/03/04 03:02:00	AWS2	11.21	16	13.68	18	2.8	91	1.5	NA	NA	980.7	NA	NA		M	NA	NA	NA	NA
2018/03/04 03:03:00	AWS2	11.63	19	13.68	18	2.8	91	1.5	NA	NA	980.4	NA	NA		M	NA	NA	NA	NA
2018/03/04 03:04:00	AWS2	12.07	21	13.68	18	2.8	91	1.5	NA	NA	980.0	NA	NA		M	NA	NA	NA	NA
2018/03/04 03:05:00	AWS2	11.66	15	13.68	18	2.8	91	1.5	NA	NA	980.5	NA	NA		M	NA	NA	NA	NA
2018/03/04 03:06:00	AWS2	11.45	10	13.68	20	2.8	91	1.5	NA	NA	980.4	NA	NA		M	NA	NA	NA	NA
2018/03/04 03:07:00	AWS2	11.06	11	13.68	20	2.8	91	1.5	NA	NA	980.9	NA	NA		M	NA	NA	NA	NA
2018/03/04 03:08:00	AWS2	10.80	14	13.68	20	2.8	91	1.5	NA	NA	980.5	NA	NA		M	NA	NA	NA	NA
2018/03/04 03:09:00	AWS2	11.05	15	13.68	20	2.8	91	1.5	NA	NA	980.4	NA	NA		M	NA	NA	NA	NA
2018/03/04 03:10:00	AWS2	10.95	14	13.68	20	2.8	91	1.5	NA	NA	980.6	NA	NA		M	NA	NA	NA	NA
2018/03/04 03:11:00	AWS2	11.10	17	13.68	20	2.8	91	1.5	NA	NA	980.5	NA	NA		M	NA	NA	NA	NA
2018/03/04 03:12:00	AWS2	11.08	18	13.68	20	2.8	91	1.5	NA	NA	980.6	NA	NA		M	NA	NA	NA	NA
2018/03/04 03:13:00	AWS2	11.00	15	13.68	20	2.8	91	1.5	NA	NA	980.5	NA	NA		M	NA	NA	NA	NA
2018/03/04 03:14:00	AWS2	10.81	15	13.68	20	2.8	91	1.5	NA	NA	980.5	NA	NA		M	NA	NA	NA	NA
2018/03/04 03:15:00	AWS2	10.39	14	13.68	20	2.8	91	1.5	NA	NA	980.8	NA	NA		M	NA	NA	NA	NA
2018/03/04 03:16:00	AWS2	10.55	13	13.17	8	2.8	91	1.5	NA	NA	980.5	NA	NA		M	NA	NA	NA	NA
2018/03/04 03:17:00	AWS2	10.47	17	13.17	8	2.8	91	1.5	NA	NA	980.4	NA	NA		M	NA	NA	NA	NA
2018/03/04 03:18:00	AWS2	9.81	18	13.17	8	2.8	92	1.6	NA	NA	980.6	NA	NA		M	NA	NA	NA	NA
2018/03/04 03:19:00	AWS2	9.77	16	12.45	10	2.7	92	1.6	NA	NA	980.5	NA	NA		M	NA	NA	NA	NA
2018/03/04 03:20:00	AWS2	10.30	12	12.40	16	2.7	93	1.6	NA	NA	980.5	NA	NA		M	NA	NA	NA	NA
2018/03/04 03:21:00	AWS2	10.67	12	13.12	11	2.7	93	1.7	NA	NA	980.8	NA	NA		M	NA	NA	NA	NA
2018/03/04 03:22:00	AWS2	10.67	13	13.12	11	2.7	93	1.7	NA	NA	980.6	NA	NA		M	NA	NA	NA	NA
2018/03/04 03:23:00	AWS2	10.47	8	13.12	11	2.7	93	1.7	NA	NA	980.9	NA	NA		M	NA	NA	NA	NA
2018/03/04 03:24:00	AWS2	9.97	11	13.12	11	2.7	93	1.7	NA	NA	980.6	NA	NA		M	NA	NA	NA	NA
2018/03/04 03:25:00	AWS2	9.72	11	13.12	11	2.7	93	1.7	NA	NA	980.5	NA	NA		M	NA	NA	NA	NA
2018/03/04 03:26:00	AWS2	9.40	13	13.12	11	2.7	93	1.7	NA	NA	980.7	NA	NA		M	NA	NA	NA	NA
2018/03/04 03:27:00	AWS2	8.69	15	13.12	11	2.8	93	1.7	NA	NA	981.0	NA	NA		M	NA	NA	NA	NA
2018/03/04 03:28:00	AWS2	8.47	13	13.12	11	2.8	93	1.8	NA	NA	980.9	NA	NA		M	NA	NA	NA	NA
2018/03/04 03:29:00	AWS2	8.82	15	13.12	11	2.8	93	1.8	NA	NA	980.6	NA	NA		M	NA	NA	NA	NA
2018/03/04 03:30:00	AWS2	9.88	15	13.12	11	2.8	93	1.8	NA	NA	980.7	NA	NA		M	NA	NA	NA	NA
2018/03/04 03:31:00	AWS2	10.08	15	12.96	23	2.8	93	1.8	NA	NA	980.7	NA	NA		M	NA	NA	NA	NA
2018/03/04 03:32:00	AWS2	9.66	15	11.78	6	2.9	92	1.8	NA	NA	980.7	NA	NA		M	NA	NA	NA	NA
2018/03/04 03:33:00	AWS2	9.24	13	11.78	6	2.9	92	1.7	NA	NA	981.0	NA	NA		M	NA	NA	NA	NA
2018/03/04 03:34:00	AWS2	7.91	10	11.78	6	2.9	92	1.7	NA	NA	981.0	NA	NA		M	NA	NA	NA	NA
2018/03/04 03:35:00	AWS2	7.83	11	11.78	6	2.9	91	1.7	NA	NA	981.1	NA	NA		M	NA	NA	NA	NA
2018/03/04 03:36:00	AWS2	8.63	9	11.47	6	2.9	91	1.6	NA	NA	980.9	NA	NA		M	NA	NA	NA	NA
2018/03/04 03:37:00	AWS2	8.14	6	11.47	6	2.9	91	1.6	NA	NA	981.2	NA	NA		M	NA	NA	NA	NA
2018/03/04 03:38:00	AWS2	7.76	4	11.47	6	3.0	91	1.6	NA	NA	980.8	NA	NA		M	NA	NA	NA	NA
2018/03/04 03:39:00	AWS2	9.07	3	11.47	6	3.0	91	1.6	NA	NA	980.8	NA	NA		M	NA	NA	NA	NA
2018/03/04 03:40:00	AWS2	9.10	2	11.32	23	3.0	91	1.7	NA	NA	980.8	NA	NA		M	NA	NA	NA	NA
2018/03/04 03:41:00	AWS2	8.21	1	11.32	23	3.0	91	1.6	NA	NA	981.1	NA	NA		M	NA	NA	NA	NA
2018/03/04 03:42:00	AWS2	8.49	1	11.27	1	3.0	90	1.6	NA	NA	980.9	NA	NA		M	NA	NA	NA	NA
2018/03/04 03:43:00	AWS2	9.58	4	12.45	20	3.0	90	1.6	NA	NA	980.8	NA	NA		M	NA	NA	NA	NA
2018/03/04 03:44:00	AWS2	9.79	5	12.45	20	3.1	90	1.6	NA	NA	980.6	NA	NA		M	NA	NA	NA	NA
2018/03/04 03:45:00	AWS2	9.81	360	12.45	20	3.0	90	1.6	NA	NA	980.8	NA	NA		M	NA	NA	NA	NA
2018/03/04 03:46:00	AWS2	10.50	0	12.45	20	3.1	90	1.6	NA	NA	980.6	NA	NA		M	NA	NA	NA	NA
2018/03/04 03:47:00	AWS2	10.30	4	12.45	20	3.1	90	1.6	NA	NA	980.9	NA	NA		M	NA	NA	NA	NA
2018/03/04 03:48:00	AWS2	9.95	7	12.45	20	3.1	90	1.6	NA	NA	980.5	NA	NA		M	NA	NA	NA	NA
2018/03/04 03:49:00	AWS2	9.12	6	12.45	20	3.1	90	1.6	NA	NA	980.9	NA	NA		M	NA	NA	NA	NA
2018/03/04 03:50:00	AWS2	9.49	8	12.71	18	3.1	90	1.6	NA	NA	980.6	NA	NA		M	NA	NA	NA	NA
2018/03/04 03:51:00	AWS2	10.64	14	12.71	18	3.1	90	1.6	NA	NA	980.7	NA	NA		M	NA	NA	NA	NA
2018/03/04 03:52:00	AWS2	10.31	13	12.71	18	3.1	89	1.6	NA	NA	980.6	NA	NA		M	NA	NA	NA	NA
2018/03/04 03:53:00	AWS2	9.79	12	12.71	18	3.2	89	1.6	NA	NA	980.7	NA	NA		M	NA	NA	NA	NA
2018/03/04 03:54:00	AWS2	9.63	14	12.71	18	3.2	89	1.6	NA	NA	980.8	NA	NA		M	NA	NA	NA	NA
2018/03/04 03:55:00	AWS2	9.94	16	12.71	18	3.2	89	1.6	NA	NA	980.8	NA	NA		M	NA	NA	NA	NA
2018/03/04 03:56:00	AWS2	9.86	17	12.71	18	3.2	89	1.6	NA	NA	980.7	NA	NA		M	NA	NA	NA	NA
2018/03/04 03:57:00	AWS2	9.25	16	12.71	18	3.3	89	1.6	NA	NA	980.9	NA	NA		M	NA	NA	NA	NA
2018/03/04 03:58:00	AWS2	8.82	10	12.71	18	3.3	88	1.5	NA	NA	980.9	NA	NA		M	NA	NA	NA	NA
2018/03/04 03:59:00	AWS2	9.22	7	12.71	18	3.3	88	1.5	NA	NA	980.7	NA	NA		M	NA	NA	NA	NA
2018/03/04 04:00:00	AWS2	9.31	5	12.04	16	3.3	88	1.5	NA	NA	980.5	NA	NA		M	NA	NA	NA	NA
2018/03/04 04:01:00	AWS2	9.01	2	11.73	6	3.3	88	1.5	NA	NA	980.8	NA	NA		M	NA	NA	NA	NA
2018/03/04 04:02:00	AWS2	8.99	3	11.73	6	3.3	88	1.5	NA	NA	980.9	NA	NA		M	NA	NA	NA	NA
2018/03/04 04:03:00	AWS2	9.29	3	11.78	3	3.3	88	1.5	NA	NA	980.7	NA	NA		M	NA	NA	NA	NA
2018/03/04 04:04:00	AWS2	9.75	2	11.78	3	3.2	88	1.4	NA	NA	980.6	NA	NA		M	NA	NA	NA	NA
2018/03/04 04:05:00	AWS2	9.41	4	11.78	3	3.2	88	1.4	NA	NA	980.7	NA	NA		M	NA	NA	NA	NA
2018/03/04 04:06:00	AWS2	10.11	0	12.30	6	3.2	88	1.4	NA	NA	980.6	NA	NA		M	NA	NA	NA	NA
2018/03/04 04:07:00	AWS2	10.62	0	12.30	6	3.2	88	1.4	NA	NA	980.6	NA	NA		M	NA	NA	NA	NA
2018/03/04 04:08:00	AWS2	9.82	7	12.30	6	3.2	88	1.4	NA	NA	980.8	NA	NA		M	NA	NA	NA	NA
2018/03/04 04:09:00	AWS2	9.40	7	12.30	6	3.2	88	1.4	NA	NA	980.9	NA	NA		M	NA	NA	NA	NA
2018/03/04 04:10:00	AWS2	9.43	5	12.30	6	3.2	87	1.4	NA	NA	980.8	NA	NA		M	NA	NA	NA	NA
2018/03/04 04:11:00	AWS2	9.25	5	12.30	6	3.2	87	1.3	NA	NA	980.9	NA	NA		M	NA	NA	NA	NA
2018/03/04 04:12:00	AWS2	8.98	6	12.30	6	3.2	87	1.3	NA	NA	980.7	NA	NA		M	NA	NA	NA	NA
2018/03/04 04:13:00	AWS2	8.86	4	12.30	6	3.2	87	1.3	NA	NA	980.8	NA	NA		M	NA	NA	NA	NA
2018/03/04 04:14:00	AWS2	9.12	4	12.30	6	3.2	87	1.3	NA	NA	980.8	NA	NA		M	NA	NA	NA	NA
2018/03/04 04:15:00	AWS2	9.82	8	12.30	6	3.2	87	1.3	NA	NA	980.8	NA	NA		M	NA	NA	NA	NA
2018/03/04 04:16:00	AWS2	10.74	11	13.12	7	3.3	87	1.4	NA	NA	980.6	NA	NA		M	NA	NA	NA	NA
2018/03/04 04:17:00	AWS2	10.89	13	13.12	7	3.4	87	1.4	NA	NA	980.7	NA	NA		M	NA	NA	NA	NA
2018/03/04 04:18:00	AWS2	9.81	11	13.12	7	3.4	87	1.4	NA	NA	980.9	NA	NA		M	NA	NA	NA	NA
2018/03/04 04:19:00	AWS2	9.07	6	13.12	7	3.4	86	1.3	NA	NA	980.7	NA	NA		M	NA	NA	NA	NA
2018/03/04 04:20:00	AWS2	9.22	7	13.12	7	3.4	86	1.3	NA	NA	980.7	NA	NA		M	NA	NA	NA	NA
2018/03/04 04:21:00	AWS2	9.87	10	13.12	7	3.4	86	1.3	NA	NA	980.8	NA	NA		M	NA	NA	NA	NA
2018/03/04 04:22:00	AWS2	9.73	11	13.12	7	3.3	87	1.3	NA	NA	980.7	NA	NA		M	NA	NA	NA	NA
2018/03/04 04:23:00	AWS2	9.46	14	13.12	7	3.3	87	1.3	NA	NA	980.6	NA	NA		M	NA	NA	NA	NA
2018/03/04 04:24:00	AWS2	9.91	14	13.12	7	3.3	87	1.3	NA	NA	980.7	NA	NA		M	NA	NA	NA	NA
2018/03/04 04:25:00	AWS2	10.12	10	13.12	7	3.3	87	1.4	NA	NA	980.8	NA	NA		M	NA	NA	NA	NA
2018/03/04 04:26:00	AWS2	10.83	8	12.81	1	3.4	87	1.4	NA	NA	980.4	NA	NA		M	NA	NA	NA	NA
2018/03/04 04:27:00	AWS2	10.78	10	12.71	1	3.4	87	1.4	NA	NA	980.7	NA	NA		M	NA	NA	NA	NA
2018/03/04 04:28:00	AWS2	10.11	8	12.71	1	3.4	86	1.3	NA	NA	980.7	NA	NA		M	NA	NA	NA	NA
2018/03/04 04:29:00	AWS2	10.12	12	12.71	1	3.4	86	1.3	NA	NA	980.5	NA	NA		M	NA	NA	NA	NA
2018/03/04 04:30:00	AWS2	9.56	12	12.71	1	3.4	86	1.3	NA	NA	980.7	NA	NA		M	NA	NA	NA	NA
2018/03/04 04:31:00	AWS2	9.72	8	12.71	1	3.4	86	1.3	NA	NA	980.7	NA	NA		M	NA	NA	NA	NA
2018/03/04 04:32:00	AWS2	10.57	7	13.12	6	3.4	86	1.4	NA	NA	980.5	NA	NA		M	NA	NA	NA	NA
2018/03/04 04:33:00	AWS2	10.72	12	13.12	6	3.4	87	1.4	NA	NA	980.6	NA	NA		M	NA	NA	NA	NA
2018/03/04 04:34:00	AWS2	9.90	16	13.12	6	3.4	87	1.4	NA	NA	980.9	NA	NA		M	NA	NA	NA	NA
2018/03/04 04:35:00	AWS2	8.99	11	13.12	6	3.4	87	1.4	NA	NA	980.7	NA	NA		M	NA	NA	NA	NA
2018/03/04 04:36:00	AWS2	9.07	11	13.12	6	3.4	86	1.4	NA	NA	980.8	NA	NA		M	NA	NA	NA	NA
2018/03/04 04:37:00	AWS2	9.29	7	13.12	6	3.4	86	1.4	NA	NA	980.6	NA	NA		M	NA	NA	NA	NA
2018/03/04 04:38:00	AWS2	9.11	8	13.12	6	3.5	86	1.3	NA	NA	980.6	NA	NA		M	NA	NA	NA	NA
2018/03/04 04:39:00	AWS2	9.14	14	13.12	6	3.4	86	1.3	NA	NA	980.8	NA	NA		M	NA	NA	NA	NA
2018/03/04 04:40:00	AWS2	9.34	13	13.12	6	3.5	86	1.3	NA	NA	980.4	NA	NA		M	NA	NA	NA	NA
2018/03/04 04:41:00	AWS2	9.57	13	13.12	6	3.5	86	1.4	NA	NA	980.6	NA	NA		M	NA	NA	NA	NA
2018/03/04 04:42:00	AWS2	9.33	11	11.88	8	3.5	86	1.3	NA	NA	980.7	NA	NA		M	NA	NA	NA	NA
2018/03/04 04:43:00	AWS2	8.87	11	11.27	24	3.5	86	1.3	NA	NA	980.5	NA	NA		M	NA	NA	NA	NA
2018/03/04 04:44:00	AWS2	8.89	12	11.27	24	3.5	86	1.3	NA	NA	980.8	NA	NA		M	NA	NA	NA	NA
2018/03/04 04:45:00	AWS2	8.97	18	11.27	24	3.5	86	1.3	NA	NA	980.6	NA	NA		M	NA	NA	NA	NA
2018/03/04 04:46:00	AWS2	8.55	14	11.27	24	3.5	86	1.3	NA	NA	980.8	NA	NA		M	NA	NA	NA	NA
2018/03/04 04:47:00	AWS2	7.81	6	11.27	24	3.5	86	1.4	NA	NA	980.9	NA	NA		M	NA	NA	NA	NA
2018/03/04 04:48:00	AWS2	8.62	8	11.27	24	3.5	86	1.4	NA	NA	980.5	NA	NA		M	NA	NA	NA	NA
2018/03/04 04:49:00	AWS2	9.32	6	11.27	24	3.5	86	1.4	NA	NA	980.8	NA	NA		M	NA	NA	NA	NA
2018/03/04 04:50:00	AWS2	9.58	4	11.27	24	3.5	86	1.4	NA	NA	980.5	NA	NA		M	NA	NA	NA	NA
2018/03/04 04:51:00	AWS2	9.37	6	11.21	10	3.5	86	1.4	NA	NA	980.5	NA	NA		M	NA	NA	NA	NA
2018/03/04 04:52:00	AWS2	9.47	3	12.50	4	3.5	86	1.4	NA	NA	980.6	NA	NA		M	NA	NA	NA	NA
2018/03/04 04:53:00	AWS2	10.45	1	12.50	4	3.5	86	1.4	NA	NA	980.5	NA	NA		M	NA	NA	NA	NA
2018/03/04 04:54:00	AWS2	11.17	5	13.84	12	3.5	86	1.4	NA	NA	980.0	NA	NA		M	NA	NA	NA	NA
2018/03/04 04:55:00	AWS2	10.93	358	13.84	12	3.6	86	1.4	NA	NA	980.3	NA	NA		M	NA	NA	NA	NA
2018/03/04 04:56:00	AWS2	10.59	3	13.84	12	3.6	86	1.4	NA	NA	980.3	NA	NA		M	NA	NA	NA	NA
2018/03/04 04:57:00	AWS2	11.06	12	13.84	12	3.6	86	1.4	NA	NA	980.4	NA	NA		M	NA	NA	NA	NA
2018/03/04 04:58:00	AWS2	10.97	8	13.84	12	3.6	86	1.5	NA	NA	980.3	NA	NA		M	NA	NA	NA	NA
2018/03/04 04:59:00	AWS2	11.15	6	13.84	12	3.6	86	1.5	NA	NA	980.1	NA	NA		M	NA	NA	NA	NA
2018/03/04 05:00:00	AWS2	10.83	6	13.84	12	3.7	86	1.5	NA	NA	980.3	NA	NA		M	NA	NA	NA	NA
2018/03/04 05:01:00	AWS2	10.00	2	13.84	12	3.7	86	1.5	NA	NA	980.2	NA	NA		M	NA	NA	NA	NA
2018/03/04 05:02:00	AWS2	10.68	1	13.84	12	3.7	86	1.6	NA	NA	979.9	NA	NA		M	NA	NA	NA	NA
2018/03/04 05:03:00	AWS2	11.30	4	13.84	12	3.7	86	1.6	NA	NA	980.4	NA	NA		M	NA	NA	NA	NA
2018/03/04 05:04:00	AWS2	10.92	2	12.91	17	3.7	86	1.5	NA	NA	979.8	NA	NA		M	NA	NA	NA	NA
2018/03/04 05:05:00	AWS2	10.88	358	13.17	3	3.6	86	1.5	NA	NA	980.3	NA	NA		M	NA	NA	NA	NA
2018/03/04 05:06:00	AWS2	11.20	359	13.17	3	3.7	86	1.5	NA	NA	980.3	NA	NA		M	NA	NA	NA	NA
2018/03/04 05:07:00	AWS2	11.66	7	13.38	2	3.7	85	1.4	NA	NA	980.1	NA	NA		M	NA	NA	NA	NA
2018/03/04 05:08:00	AWS2	12.07	11	13.53	12	3.7	85	1.4	NA	NA	980.0	NA	NA		M	NA	NA	NA	NA
2018/03/04 05:09:00	AWS2	12.49	8	13.89	5	3.7	85	1.4	NA	NA	979.8	NA	NA		M	NA	NA	NA	NA
2018/03/04 05:10:00	AWS2	12.17	2	13.89	5	3.7	85	1.5	NA	NA	980.0	NA	NA		M	NA	NA	NA	NA
2018/03/04 05:11:00	AWS2	11.73	4	13.89	5	3.7	85	1.4	NA	NA	979.9	NA	NA		M	NA	NA	NA	NA
2018/03/04 05:12:00	AWS2	11.43	5	13.89	5	3.7	85	1.4	NA	NA	980.5	NA	NA		M	NA	NA	NA	NA
2018/03/04 05:13:00	AWS2	11.43	360	13.89	5	3.7	85	1.4	NA	NA	980.0	NA	NA		M	NA	NA	NA	NA
2018/03/04 05:14:00	AWS2	11.78	359	13.89	5	3.7	85	1.4	NA	NA	980.5	NA	NA		M	NA	NA	NA	NA
2018/03/04 05:15:00	AWS2	11.67	2	13.89	5	3.7	85	1.4	NA	NA	980.5	NA	NA		M	NA	NA	NA	NA
2018/03/04 05:16:00	AWS2	11.29	4	13.89	5	3.7	85	1.3	NA	NA	979.9	NA	NA		M	NA	NA	NA	NA
2018/03/04 05:17:00	AWS2	10.67	355	13.89	5	3.7	84	1.3	NA	NA	980.3	NA	NA		M	NA	NA	NA	NA
2018/03/04 05:18:00	AWS2	10.63	350	13.89	5	3.7	84	1.3	NA	NA	980.5	NA	NA		M	NA	NA	NA	NA
2018/03/04 05:19:00	AWS2	11.06	355	13.27	352	3.7	84	1.3	NA	NA	980.2	NA	NA		M	NA	NA	NA	NA
2018/03/04 05:20:00	AWS2	11.16	359	13.27	352	3.7	84	1.4	NA	NA	980.4	NA	NA		M	NA	NA	NA	NA
2018/03/04 05:21:00	AWS2	10.38	4	13.27	352	3.8	84	1.4	NA	NA	980.2	NA	NA		M	NA	NA	NA	NA
2018/03/04 05:22:00	AWS2	10.54	4	13.27	352	3.8	85	1.4	NA	NA	980.3	NA	NA		M	NA	NA	NA	NA
2018/03/04 05:23:00	AWS2	11.52	2	13.27	352	3.8	85	1.4	NA	NA	980.6	NA	NA		M	NA	NA	NA	NA
2018/03/04 05:24:00	AWS2	11.30	359	12.76	8	3.8	84	1.4	NA	NA	980.0	NA	NA		M	NA	NA	NA	NA
2018/03/04 05:25:00	AWS2	10.88	359	12.76	8	3.8	84	1.4	NA	NA	980.4	NA	NA		M	NA	NA	NA	NA
2018/03/04 05:26:00	AWS2	10.74	2	12.76	8	3.8	84	1.4	NA	NA	980.2	NA	NA		M	NA	NA	NA	NA
2018/03/04 05:27:00	AWS2	10.94	2	12.76	8	3.8	84	1.4	NA	NA	980.2	NA	NA		M	NA	NA	NA	NA
2018/03/04 05:28:00	AWS2	10.84	2	12.76	8	3.8	84	1.3	NA	NA	980.2	NA	NA		M	NA	NA	NA	NA
2018/03/04 05:29:00	AWS2	10.45	1	12.66	1	3.8	84	1.3	NA	NA	980.5	NA	NA		M	NA	NA	NA	NA
2018/03/04 05:30:00	AWS2	10.53	353	12.66	1	3.8	84	1.3	NA	NA	980.8	NA	NA		M	NA	NA	NA	NA
2018/03/04 05:31:00	AWS2	10.69	354	13.02	349	3.8	84	1.4	NA	NA	980.1	NA	NA		M	NA	NA	NA	NA
2018/03/04 05:32:00	AWS2	11.03	0	13.02	349	3.8	84	1.4	NA	NA	980.2	NA	NA		M	NA	NA	NA	NA
2018/03/04 05:33:00	AWS2	11.38	357	13.02	349	3.8	84	1.4	NA	NA	980.2	NA	NA		M	NA	NA	NA	NA
2018/03/04 05:34:00	AWS2	11.11	359	13.02	349	3.8	84	1.4	NA	NA	980.7	NA	NA		M	NA	NA	NA	NA
2018/03/04 05:35:00	AWS2	10.69	3	13.02	349	3.8	84	1.4	NA	NA	980.7	NA	NA		M	NA	NA	NA	NA
2018/03/04 05:36:00	AWS2	10.07	2	13.02	349	3.8	84	1.3	NA	NA	980.6	NA	NA		M	NA	NA	NA	NA
2018/03/04 05:37:00	AWS2	10.18	0	13.02	349	3.7	84	1.3	NA	NA	980.8	NA	NA		M	NA	NA	NA	NA
2018/03/04 05:38:00	AWS2	10.33	3	13.02	349	3.7	84	1.3	NA	NA	980.4	NA	NA		M	NA	NA	NA	NA
2018/03/04 05:39:00	AWS2	10.08	6	13.02	349	3.7	84	1.3	NA	NA	980.7	NA	NA		M	NA	NA	NA	NA
2018/03/04 05:40:00	AWS2	10.02	4	13.02	349	3.6	85	1.3	NA	NA	980.9	NA	NA		M	NA	NA	NA	NA
2018/03/04 05:41:00	AWS2	10.02	2	12.45	354	3.6	85	1.3	NA	NA	980.3	NA	NA		M	NA	NA	NA	NA
2018/03/04 05:42:00	AWS2	9.82	1	12.19	354	3.6	85	1.3	NA	NA	980.7	NA	NA		M	NA	NA	NA	NA
2018/03/04 05:43:00	AWS2	8.90	2	11.57	1	3.6	85	1.3	NA	NA	981.1	NA	NA		M	NA	NA	NA	NA
2018/03/04 05:44:00	AWS2	8.69	3	11.57	1	3.6	85	1.3	NA	NA	980.6	NA	NA		M	NA	NA	NA	NA
2018/03/04 05:45:00	AWS2	9.09	4	11.57	1	3.6	85	1.4	NA	NA	980.5	NA	NA		M	NA	NA	NA	NA
2018/03/04 05:46:00	AWS2	8.59	3	11.57	1	3.6	86	1.4	NA	NA	980.3	NA	NA		M	NA	NA	NA	NA
2018/03/04 05:47:00	AWS2	8.82	3	11.47	9	3.6	86	1.4	NA	NA	980.5	NA	NA		M	NA	NA	NA	NA
2018/03/04 05:48:00	AWS2	9.56	4	11.47	9	3.6	86	1.4	NA	NA	980.9	NA	NA		M	NA	NA	NA	NA
2018/03/04 05:49:00	AWS2	9.13	0	11.47	9	3.6	86	1.4	NA	NA	980.4	NA	NA		M	NA	NA	NA	NA
2018/03/04 05:50:00	AWS2	9.03	358	11.47	9	3.5	86	1.4	NA	NA	980.6	NA	NA		M	NA	NA	NA	NA
2018/03/04 05:51:00	AWS2	9.34	354	11.32	4	3.5	86	1.4	NA	NA	981.0	NA	NA		M	NA	NA	NA	NA
2018/03/04 05:52:00	AWS2	9.43	350	11.32	4	3.5	86	1.4	NA	NA	980.8	NA	NA		M	NA	NA	NA	NA
2018/03/04 05:53:00	AWS2	10.16	356	11.32	4	3.5	86	1.4	NA	NA	980.6	NA	NA		M	NA	NA	NA	NA
2018/03/04 05:54:00	AWS2	10.58	4	11.32	4	3.5	86	1.4	NA	NA	980.1	NA	NA		M	NA	NA	NA	NA
2018/03/04 05:55:00	AWS2	9.86	7	11.32	4	3.5	86	1.4	NA	NA	980.6	NA	NA		M	NA	NA	NA	NA
2018/03/04 05:56:00	AWS2	9.36	3	11.32	4	3.5	86	1.4	NA	NA	980.6	NA	NA		M	NA	NA	NA	NA
2018/03/04 05:57:00	AWS2	9.31	3	11.32	4	3.5	86	1.4	NA	NA	980.3	NA	NA		M	NA	NA	NA	NA
2018/03/04 05:58:00	AWS2	9.35	3	11.21	7	3.4	86	1.4	NA	NA	980.7	NA	NA		M	NA	NA	NA	NA
2018/03/04 05:59:00	AWS2	9.78	2	11.42	9	3.4	87	1.4	NA	NA	980.4	NA	NA		M	NA	NA	NA	NA
2018/03/04 06:00:00	AWS2	9.77	4	11.42	9	3.4	87	1.4	NA	NA	980.3	NA	NA		M	NA	NA	NA	NA
2018/03/04 06:01:00	AWS2	9.58	4	11.42	9	3.4	87	1.4	NA	NA	980.2	NA	NA		M	NA	NA	NA	NA
2018/03/04 06:02:00	AWS2	9.21	6	11.42	9	3.4	87	1.4	NA	NA	980.6	NA	NA		M	NA	NA	NA	NA
2018/03/04 06:03:00	AWS2	8.74	7	11.42	9	3.4	87	1.4	NA	NA	980.7	NA	NA		M	NA	NA	NA	NA
2018/03/04 06:04:00	AWS2	10.17	7	12.55	41	3.4	87	1.4	NA	NA	980.5	NA	NA		M	NA	NA	NA	NA
2018/03/04 06:05:00	AWS2	10.55	5	12.55	41	3.4	87	1.5	NA	NA	980.8	NA	NA		M	NA	NA	NA	NA
2018/03/04 06:06:00	AWS2	9.99	2	12.55	41	3.4	87	1.5	NA	NA	980.2	NA	NA		M	NA	NA	NA	NA
2018/03/04 06:07:00	AWS2	9.94	5	12.55	41	3.4	87	1.5	NA	NA	980.1	NA	NA		M	NA	NA	NA	NA
2018/03/04 06:08:00	AWS2	9.27	2	12.55	41	3.5	87	1.5	NA	NA	980.3	NA	NA		M	NA	NA	NA	NA
2018/03/04 06:09:00	AWS2	9.70	359	12.55	41	3.5	87	1.5	NA	NA	980.7	NA	NA		M	NA	NA	NA	NA
2018/03/04 06:10:00	AWS2	9.78	1	12.55	41	3.4	87	1.5	NA	NA	980.6	NA	NA		M	NA	NA	NA	NA
2018/03/04 06:11:00	AWS2	9.51	3	12.55	41	3.4	87	1.5	NA	NA	980.6	NA	NA		M	NA	NA	NA	NA
2018/03/04 06:12:00	AWS2	10.23	5	12.76	12	3.4	87	1.5	NA	NA	980.1	NA	NA		M	NA	NA	NA	NA
2018/03/04 06:13:00	AWS2	10.07	7	12.76	12	3.4	87	1.5	NA	NA	980.2	NA	NA		M	NA	NA	NA	NA
2018/03/04 06:14:00	AWS2	9.56	7	12.76	12	3.4	87	1.5	NA	NA	980.6	NA	NA		M	NA	NA	NA	NA
2018/03/04 06:15:00	AWS2	9.94	7	12.76	12	3.4	88	1.6	NA	NA	980.5	NA	NA		M	NA	NA	NA	NA
2018/03/04 06:16:00	AWS2	9.34	8	12.76	12	3.4	87	1.5	NA	NA	980.9	NA	NA		M	NA	NA	NA	NA
2018/03/04 06:17:00	AWS2	8.83	7	12.76	12	3.4	87	1.5	NA	NA	980.5	NA	NA		M	NA	NA	NA	NA
2018/03/04 06:18:00	AWS2	9.03	4	12.76	12	3.4	88	1.6	NA	NA	980.4	NA	NA		M	NA	NA	NA	NA
2018/03/04 06:19:02	AWS2	8.68	5	12.76	12	3.4	88	1.6	NA	NA	980.6	NA	NA		M	NA	NA	NA	NA
2018/03/04 06:20:01	AWS2	8.24	8	12.76	12	3.4	88	1.5	NA	NA	980.5	NA	NA		M	NA	NA	NA	NA
2018/03/04 06:21:02	AWS2	8.81	6	12.76	12	3.4	88	1.6	NA	NA	980.3	NA	NA		M	NA	NA	NA	NA
2018/03/04 06:22:01	AWS2	8.98	2	11.47	354	3.4	88	1.6	NA	NA	980.3	NA	NA		M	NA	NA	NA	NA
2018/03/04 06:23:02	AWS2	9.24	4	11.47	354	3.4	88	1.6	NA	NA	980.0	NA	NA		M	NA	NA	NA	NA
2018/03/04 06:24:01	AWS2	9.59	5	11.47	354	3.4	88	1.6	NA	NA	980.4	NA	NA		M	NA	NA	NA	NA
2018/03/04 06:25:01	AWS2	8.78	2	11.11	6	3.4	88	1.6	NA	NA	980.5	NA	NA		M	NA	NA	NA	NA
2018/03/04 06:26:02	AWS2	8.01	3	11.11	6	3.4	88	1.6	NA	NA	980.3	NA	NA		M	NA	NA	NA	NA
2018/03/04 06:27:01	AWS2	8.44	7	11.11	6	3.4	88	1.6	NA	NA	980.3	NA	NA		M	NA	NA	NA	NA
2018/03/04 06:28:01	AWS2	8.49	14	11.11	6	3.4	88	1.6	NA	NA	980.3	NA	NA		M	NA	NA	NA	NA
2018/03/04 06:29:02	AWS2	7.83	15	11.11	6	3.4	88	1.6	NA	NA	980.5	NA	NA		M	NA	NA	NA	NA
2018/03/04 06:30:02	AWS2	7.60	13	11.11	6	3.4	88	1.6	NA	NA	980.6	NA	NA		M	NA	NA	NA	NA
2018/03/04 06:31:02	AWS2	7.79	12	11.11	6	3.4	88	1.6	NA	NA	980.6	NA	NA		M	NA	NA	NA	NA
2018/03/04 06:32:02	AWS2	8.41	11	11.11	6	3.4	88	1.6	NA	NA	980.4	NA	NA		M	NA	NA	NA	NA
2018/03/04 06:33:02	AWS2	7.77	13	10.65	3	3.4	88	1.6	NA	NA	980.3	NA	NA		M	NA	NA	NA	NA
2018/03/04 06:34:01	AWS2	7.08	14	10.49	2	3.4	88	1.6	NA	NA	980.4	NA	NA		M	NA	NA	NA	NA
2018/03/04 06:35:02	AWS2	8.07	13	10.49	2	3.4	88	1.6	NA	NA	980.1	NA	NA		M	NA	NA	NA	NA
2018/03/04 06:36:02	AWS2	9.04	8	11.52	9	3.4	88	1.6	NA	NA	980.2	NA	NA		M	NA	NA	NA	NA
2018/03/04 06:37:02	AWS2	8.83	4	11.52	9	3.5	88	1.7	NA	NA	980.4	NA	NA		M	NA	NA	NA	NA
2018/03/04 06:38:01	AWS2	8.20	8	11.52	9	3.5	88	1.7	NA	NA	980.6	NA	NA		M	NA	NA	NA	NA
2018/03/04 06:39:01	AWS2	7.77	13	11.52	9	3.5	88	1.7	NA	NA	980.3	NA	NA		M	NA	NA	NA	NA
2018/03/04 06:40:01	AWS2	8.30	14	11.52	9	3.5	88	1.7	NA	NA	980.3	NA	NA		M	NA	NA	NA	NA
2018/03/04 06:41:01	AWS2	8.81	14	11.52	9	3.5	88	1.7	NA	NA	980.5	NA	NA		M	NA	NA	NA	NA
2018/03/04 06:42:01	AWS2	8.65	12	11.52	9	3.6	88	1.7	NA	NA	980.4	NA	NA		M	NA	NA	NA	NA
2018/03/04 06:43:01	AWS2	8.58	11	11.52	9	3.6	88	1.7	NA	NA	980.4	NA	NA		M	NA	NA	NA	NA
2018/03/04 06:44:02	AWS2	8.14	14	11.52	9	3.6	87	1.7	NA	NA	980.9	NA	NA		M	NA	NA	NA	NA
2018/03/04 06:45:01	AWS2	8.02	13	11.52	9	3.6	87	1.7	NA	NA	980.6	NA	NA		M	NA	NA	NA	NA
2018/03/04 06:46:02	AWS2	8.54	14	10.55	10	3.7	87	1.7	NA	NA	980.4	NA	NA		M	NA	NA	NA	NA
2018/03/04 06:47:01	AWS2	9.32	17	10.60	25	3.7	87	1.7	NA	NA	980.4	NA	NA		M	NA	NA	NA	NA
2018/03/04 06:48:02	AWS2	9.78	15	10.80	15	3.7	87	1.7	NA	NA	980.1	NA	NA		M	NA	NA	NA	NA
2018/03/04 06:49:01	AWS2	9.78	15	11.21	22	3.8	87	1.8	NA	NA	980.6	NA	NA		M	NA	NA	NA	NA
2018/03/04 06:50:01	AWS2	8.84	15	11.21	22	3.8	87	1.8	NA	NA	980.5	NA	NA		M	NA	NA	NA	NA
2018/03/04 06:51:02	AWS2	8.64	13	11.99	4	3.8	87	1.8	NA	NA	980.5	NA	NA		M	NA	NA	NA	NA
2018/03/04 06:52:02	AWS2	9.58	13	11.99	4	3.8	87	1.8	NA	NA	980.3	NA	NA		M	NA	NA	NA	NA
2018/03/04 06:53:01	AWS2	9.13	14	11.99	4	3.8	87	1.8	NA	NA	980.6	NA	NA		M	NA	NA	NA	NA
2018/03/04 06:54:02	AWS2	8.29	17	11.99	4	3.8	87	1.8	NA	NA	980.5	NA	NA		M	NA	NA	NA	NA
2018/03/04 06:55:01	AWS2	7.97	20	11.99	4	3.8	87	1.8	NA	NA	980.6	NA	NA		M	NA	NA	NA	NA
2018/03/04 06:56:01	AWS2	8.33	15	11.99	4	3.8	87	1.8	NA	NA	980.4	NA	NA		M	NA	NA	NA	NA
2018/03/04 06:57:01	AWS2	9.27	14	11.99	4	3.8	87	1.9	NA	NA	980.5	NA	NA		M	NA	NA	NA	NA
2018/03/04 06:58:01	AWS2	9.52	18	11.99	4	3.8	87	1.9	NA	NA	980.3	NA	NA		M	NA	NA	NA	NA
2018/03/04 06:59:01	AWS2	8.71	13	11.99	4	3.8	87	1.9	NA	NA	980.6	NA	NA		M	NA	NA	NA	NA
2018/03/04 07:00:03	AWS2	7.46	360	11.99	4	3.8	87	1.9	NA	NA	980.9	NA	NA		M	NA	NA	NA	NA
2018/03/04 07:01:02	AWS2	7.08	7	11.99	4	3.7	87	1.8	NA	NA	980.9	NA	NA		M	NA	NA	NA	NA
2018/03/04 07:02:02	AWS2	7.51	21	11.32	12	3.7	87	1.7	NA	NA	981.0	NA	NA		M	NA	NA	NA	NA
2018/03/04 07:03:02	AWS2	9.05	21	11.52	27	3.7	87	1.8	NA	NA	980.5	NA	NA		M	NA	NA	NA	NA
2018/03/04 07:04:02	AWS2	9.16	18	11.52	27	3.7	87	1.8	NA	NA	980.7	NA	NA		M	NA	NA	NA	NA
2018/03/04 07:05:02	AWS2	7.81	15	11.52	27	3.7	87	1.8	NA	NA	980.7	NA	NA		M	NA	NA	NA	NA
2018/03/04 07:06:02	AWS2	7.12	9	11.52	27	3.7	87	1.8	NA	NA	980.8	NA	NA		M	NA	NA	NA	NA
2018/03/04 07:07:02	AWS2	6.73	11	11.52	27	3.7	87	1.8	NA	NA	981.1	NA	NA		M	NA	NA	NA	NA
2018/03/04 07:08:03	AWS2	7.31	22	11.52	27	3.7	87	1.8	NA	NA	980.9	NA	NA		M	NA	NA	NA	NA
2018/03/04 07:09:03	AWS2	7.70	21	11.52	27	3.7	87	1.8	NA	NA	980.8	NA	NA		M	NA	NA	NA	NA
2018/03/04 07:10:03	AWS2	7.97	17	11.52	27	3.7	88	1.8	NA	NA	980.8	NA	NA		M	NA	NA	NA	NA
2018/03/04 07:11:03	AWS2	8.32	17	11.52	27	3.7	88	1.8	NA	NA	980.4	NA	NA		M	NA	NA	NA	NA
2018/03/04 07:12:02	AWS2	8.38	15	11.52	27	3.7	88	1.9	NA	NA	980.4	NA	NA		M	NA	NA	NA	NA
2018/03/04 07:13:02	AWS2	8.29	15	9.93	4	3.7	88	1.9	NA	NA	980.7	NA	NA		M	NA	NA	NA	NA
2018/03/04 07:14:02	AWS2	8.26	14	9.93	4	3.7	88	1.9	NA	NA	980.7	NA	NA		M	NA	NA	NA	NA
2018/03/04 07:16:00	AWS2	8.78	13	10.80	14	3.7	88	1.9	NA	NA	980.5	NA	NA		M	NA	NA	NA	NA
2018/03/04 07:17:00	AWS2	9.68	12	11.06	12	3.7	88	1.9	NA	NA	980.1	NA	NA		M	NA	NA	NA	NA
2018/03/04 07:18:00	AWS2	9.16	13	11.06	12	3.7	88	1.9	NA	NA	980.3	NA	NA		M	NA	NA	NA	NA
2018/03/04 07:19:00	AWS2	8.62	18	11.06	12	3.7	88	1.9	NA	NA	980.2	NA	NA		M	NA	NA	NA	NA
2018/03/04 07:20:00	AWS2	8.35	16	11.06	12	3.7	88	1.9	NA	NA	980.5	NA	NA		M	NA	NA	NA	NA
2018/03/04 07:21:00	AWS2	8.36	10	11.06	12	3.7	88	1.9	NA	NA	980.3	NA	NA		M	NA	NA	NA	NA
2018/03/04 07:22:00	AWS2	8.76	7	11.06	12	3.7	88	1.9	NA	NA	980.4	NA	NA		M	NA	NA	NA	NA
2018/03/04 07:23:00	AWS2	8.74	7	11.06	12	3.6	88	1.9	NA	NA	980.3	NA	NA		M	NA	NA	NA	NA
2018/03/04 07:24:00	AWS2	9.64	11	12.09	6	3.6	88	1.9	NA	NA	980.1	NA	NA		M	NA	NA	NA	NA
2018/03/04 07:25:00	AWS2	10.63	15	12.09	6	3.7	89	1.9	NA	NA	980.0	NA	NA		M	NA	NA	NA	NA
2018/03/04 07:26:00	AWS2	10.60	14	12.09	4	3.7	89	2.0	NA	NA	980.2	NA	NA		M	NA	NA	NA	NA
2018/03/04 07:27:00	AWS2	9.94	9	12.09	4	3.7	89	2.0	NA	NA	980.0	NA	NA		M	NA	NA	NA	NA
2018/03/04 07:28:00	AWS2	9.38	9	12.09	4	3.7	89	2.0	NA	NA	980.5	NA	NA		M	NA	NA	NA	NA
2018/03/04 07:29:00	AWS2	9.60	9	12.09	4	3.7	89	2.0	NA	NA	980.1	NA	NA		M	NA	NA	NA	NA
2018/03/04 07:30:00	AWS2	9.73	359	12.09	4	3.7	89	2.0	NA	NA	980.2	NA	NA		M	NA	NA	NA	NA
2018/03/04 07:31:00	AWS2	8.78	359	12.09	4	3.7	89	2.0	NA	NA	980.4	NA	NA		M	NA	NA	NA	NA
2018/03/04 07:32:00	AWS2	7.92	7	12.09	4	3.6	89	2.0	NA	NA	981.0	NA	NA		M	NA	NA	NA	NA
2018/03/04 07:33:00	AWS2	7.84	6	12.09	4	3.6	89	1.9	NA	NA	980.5	NA	NA		M	NA	NA	NA	NA
2018/03/04 07:34:00	AWS2	7.68	3	12.09	4	3.6	89	1.9	NA	NA	980.6	NA	NA		M	NA	NA	NA	NA
2018/03/04 07:35:00	AWS2	7.28	9	12.09	4	3.5	89	1.9	NA	NA	980.6	NA	NA		M	NA	NA	NA	NA
2018/03/04 07:36:00	AWS2	6.90	12	11.42	13	3.5	89	1.8	NA	NA	980.8	NA	NA		M	NA	NA	NA	NA
2018/03/04 07:37:00	AWS2	7.16	8	11.42	13	3.4	89	1.8	NA	NA	980.7	NA	NA		M	NA	NA	NA	NA
2018/03/04 07:38:00	AWS2	7.07	9	11.42	13	3.4	89	1.8	NA	NA	980.5	NA	NA		M	NA	NA	NA	NA
2018/03/04 07:39:00	AWS2	6.62	7	10.75	348	3.4	89	1.8	NA	NA	980.6	NA	NA		M	NA	NA	NA	NA
2018/03/04 07:40:00	AWS2	6.72	3	9.05	6	3.4	89	1.8	NA	NA	980.6	NA	NA		M	NA	NA	NA	NA
2018/03/04 07:41:00	AWS2	7.37	7	9.31	11	3.3	90	1.8	NA	NA	980.3	NA	NA		M	NA	NA	NA	NA
2018/03/04 07:42:00	AWS2	7.85	14	9.62	15	3.4	90	1.8	NA	NA	980.5	NA	NA		M	NA	NA	NA	NA
2018/03/04 07:43:00	AWS2	7.71	16	9.62	15	3.4	90	1.9	NA	NA	980.8	NA	NA		M	NA	NA	NA	NA
2018/03/04 07:44:00	AWS2	7.92	8	9.62	15	3.4	90	1.9	NA	NA	980.8	NA	NA		M	NA	NA	NA	NA
2018/03/04 07:45:00	AWS2	7.44	5	9.62	15	3.5	90	1.9	NA	NA	980.9	NA	NA		M	NA	NA	NA	NA
2018/03/04 07:46:00	AWS2	6.90	357	9.62	15	3.5	90	1.9	NA	NA	980.6	NA	NA		M	NA	NA	NA	NA
2018/03/04 07:47:00	AWS2	7.03	359	9.62	15	3.4	89	1.9	NA	NA	980.7	NA	NA		M	NA	NA	NA	NA
2018/03/04 07:48:00	AWS2	7.20	5	9.62	15	3.4	89	1.8	NA	NA	980.5	NA	NA		M	NA	NA	NA	NA
2018/03/04 07:49:00	AWS2	7.12	3	9.62	15	3.3	89	1.7	NA	NA	980.4	NA	NA		M	NA	NA	NA	NA
2018/03/04 07:50:01	AWS2	6.98	4	9.62	15	3.3	89	1.7	NA	NA	980.7	NA	NA		M	NA	NA	NA	NA
2018/03/04 07:51:00	AWS2	7.05	6	9.62	15	3.2	89	1.7	NA	NA	981.3	NA	NA		M	NA	NA	NA	NA
2018/03/04 07:52:00	AWS2	6.91	6	8.95	5	3.2	90	1.7	NA	NA	981.0	NA	NA		M	NA	NA	NA	NA
2018/03/04 07:53:00	AWS2	7.20	4	8.95	5	3.2	90	1.7	NA	NA	980.8	NA	NA		M	NA	NA	NA	NA
2018/03/04 07:54:00	AWS2	7.10	6	8.39	10	3.1	90	1.6	NA	NA	981.1	NA	NA		M	NA	NA	NA	NA
2018/03/04 07:55:00	AWS2	6.80	6	8.39	10	3.1	90	1.6	NA	NA	980.9	NA	NA		M	NA	NA	NA	NA
2018/03/04 07:56:00	AWS2	7.06	3	8.39	10	3.0	90	1.6	NA	NA	980.9	NA	NA		M	NA	NA	NA	NA
2018/03/04 07:57:00	AWS2	7.25	3	8.33	6	2.9	90	1.5	NA	NA	981.1	NA	NA		M	NA	NA	NA	NA
2018/03/04 07:58:00	AWS2	7.24	1	8.33	6	2.9	91	1.5	NA	NA	981.1	NA	NA		M	NA	NA	NA	NA
2018/03/04 07:59:00	AWS2	7.25	359	8.33	6	2.8	91	1.4	NA	NA	981.0	NA	NA		M	NA	NA	NA	NA
2018/03/04 08:00:00	AWS2	7.72	3	8.75	11	2.7	91	1.4	NA	NA	981.2	NA	NA		M	NA	NA	NA	NA
2018/03/04 08:01:00	AWS2	8.00	7	9.16	6	2.7	91	1.4	NA	NA	980.5	NA	NA		M	NA	NA	NA	NA
2018/03/04 08:02:01	AWS2	7.71	4	9.16	6	2.6	92	1.4	NA	NA	980.9	NA	NA		M	NA	NA	NA	NA
2018/03/04 08:03:00	AWS2	7.14	1	9.16	6	2.6	92	1.4	NA	NA	980.7	NA	NA		M	NA	NA	NA	NA
2018/03/04 08:04:00	AWS2	6.83	4	9.16	6	2.6	92	1.4	NA	NA	980.7	NA	NA		M	NA	NA	NA	NA
2018/03/04 08:05:00	AWS2	6.82	10	9.16	6	2.5	92	1.4	NA	NA	981.0	NA	NA		M	NA	NA	NA	NA
2018/03/04 08:06:00	AWS2	6.40	11	9.16	6	2.5	92	1.4	NA	NA	980.8	NA	NA		M	NA	NA	NA	NA
2018/03/04 08:07:00	AWS2	6.29	15	9.16	6	2.5	93	1.4	NA	NA	980.9	NA	NA		M	NA	NA	NA	NA
2018/03/04 08:08:00	AWS2	6.48	16	9.16	6	2.5	93	1.5	NA	NA	981.4	NA	NA		M	NA	NA	NA	NA
2018/03/04 08:09:00	AWS2	5.93	16	9.16	6	2.5	93	1.5	NA	NA	981.1	NA	NA		M	NA	NA	NA	NA
2018/03/04 08:10:00	AWS2	5.47	19	9.16	6	2.5	93	1.5	NA	NA	981.2	NA	NA		M	NA	NA	NA	NA
2018/03/04 08:11:00	AWS2	5.65	23	8.49	1	2.5	93	1.5	NA	NA	981.1	NA	NA		M	NA	NA	NA	NA
2018/03/04 08:12:00	AWS2	6.04	27	8.23	8	2.6	93	1.6	NA	NA	980.8	NA	NA		M	NA	NA	NA	NA
2018/03/04 08:13:00	AWS2	5.85	26	8.23	8	2.6	93	1.6	NA	NA	981.0	NA	NA		M	NA	NA	NA	NA
2018/03/04 08:14:00	AWS2	5.71	24	7.67	21	2.7	93	1.7	NA	NA	981.0	NA	NA		M	NA	NA	NA	NA
2018/03/04 08:15:00	AWS2	6.61	27	8.85	26	2.7	93	1.8	NA	NA	980.5	NA	NA		M	NA	NA	NA	NA
2018/03/04 08:16:00	AWS2	7.64	30	8.85	26	2.8	93	1.9	NA	NA	980.9	NA	NA		M	NA	NA	NA	NA
2018/03/04 08:17:00	AWS2	7.54	22	8.85	26	2.9	93	1.9	NA	NA	981.1	NA	NA		M	NA	NA	NA	NA
2018/03/04 08:18:00	AWS2	6.65	15	8.85	26	3.0	92	1.9	NA	NA	981.2	NA	NA		M	NA	NA	NA	NA
2018/03/04 08:19:00	AWS2	5.93	17	8.85	26	3.0	92	1.8	NA	NA	980.8	NA	NA		M	NA	NA	NA	NA
2018/03/04 08:20:00	AWS2	5.84	17	8.85	26	3.0	91	1.8	NA	NA	980.6	NA	NA		M	NA	NA	NA	NA
2018/03/04 08:21:00	AWS2	6.17	16	8.85	26	3.0	91	1.7	NA	NA	980.8	NA	NA		M	NA	NA	NA	NA
2018/03/04 08:22:00	AWS2	5.94	18	8.85	26	3.0	91	1.7	NA	NA	981.4	NA	NA		M	NA	NA	NA	NA
2018/03/04 08:23:00	AWS2	6.04	15	8.85	26	3.0	91	1.6	NA	NA	981.1	NA	NA		M	NA	NA	NA	NA
2018/03/04 08:24:00	AWS2	6.25	11	8.85	26	3.0	91	1.6	NA	NA	981.1	NA	NA		M	NA	NA	NA	NA
2018/03/04 08:25:00	AWS2	6.29	13	8.59	23	3.0	91	1.6	NA	NA	980.9	NA	NA		M	NA	NA	NA	NA
2018/03/04 08:26:00	AWS2	6.27	16	8.23	19	3.0	91	1.6	NA	NA	981.1	NA	NA		M	NA	NA	NA	NA
2018/03/04 08:27:00	AWS2	5.55	18	7.51	3	3.0	91	1.6	NA	NA	981.2	NA	NA		M	NA	NA	NA	NA
2018/03/04 08:28:01	AWS2	5.71	17	7.51	3	3.0	90	1.6	NA	NA	981.0	NA	NA		M	NA	NA	NA	NA
2018/03/04 08:29:01	AWS2	5.79	16	7.51	3	3.0	90	1.5	NA	NA	981.3	NA	NA		M	NA	NA	NA	NA
2018/03/04 08:30:01	AWS2	5.56	21	7.51	3	3.0	90	1.5	NA	NA	980.8	NA	NA		M	NA	NA	NA	NA
2018/03/04 08:31:01	AWS2	6.13	21	7.61	25	3.0	90	1.5	NA	NA	981.2	NA	NA		M	NA	NA	NA	NA
2018/03/04 08:32:01	AWS2	6.72	23	8.54	17	3.0	90	1.6	NA	NA	981.1	NA	NA		M	NA	NA	NA	NA
2018/03/04 08:33:00	AWS2	6.99	21	8.54	17	3.1	90	1.6	NA	NA	981.1	NA	NA		M	NA	NA	NA	NA
2018/03/04 08:34:00	AWS2	6.20	17	8.54	17	3.1	90	1.6	NA	NA	981.2	NA	NA		M	NA	NA	NA	NA
2018/03/04 08:35:00	AWS2	5.56	15	8.54	17	3.2	90	1.6	NA	NA	981.2	NA	NA		M	NA	NA	NA	NA
2018/03/04 08:36:00	AWS2	5.51	16	8.54	17	3.2	89	1.6	NA	NA	981.3	NA	NA		M	NA	NA	NA	NA
2018/03/04 08:37:00	AWS2	5.32	16	8.54	17	3.2	89	1.6	NA	NA	981.0	NA	NA		M	NA	NA	NA	NA
2018/03/04 08:38:00	AWS2	5.36	12	8.54	17	3.1	89	1.5	NA	NA	981.1	NA	NA		M	NA	NA	NA	NA
2018/03/04 08:39:00	AWS2	5.23	8	8.54	17	3.1	89	1.5	NA	NA	981.3	NA	NA		M	NA	NA	NA	NA
2018/03/04 08:40:00	AWS2	5.15	10	8.54	17	3.0	89	1.4	NA	NA	981.1	NA	NA		M	NA	NA	NA	NA
2018/03/04 08:41:00	AWS2	5.22	11	8.54	17	3.0	89	1.4	NA	NA	980.8	NA	NA		M	NA	NA	NA	NA
2018/03/04 08:42:01	AWS2	5.34	8	7.97	21	3.0	90	1.4	NA	NA	981.2	NA	NA		M	NA	NA	NA	NA
2018/03/04 08:43:00	AWS2	5.75	1	7.05	2	3.0	90	1.4	NA	NA	981.1	NA	NA		M	NA	NA	NA	NA
2018/03/04 08:44:00	AWS2	6.10	356	7.05	2	2.9	90	1.5	NA	NA	981.0	NA	NA		M	NA	NA	NA	NA
2018/03/04 08:45:00	AWS2	6.11	360	7.05	2	2.9	90	1.4	NA	NA	981.0	NA	NA		M	NA	NA	NA	NA
2018/03/04 08:46:00	AWS2	6.15	5	7.25	8	2.9	90	1.4	NA	NA	980.8	NA	NA		M	NA	NA	NA	NA
2018/03/04 08:47:00	AWS2	5.88	5	7.25	8	2.9	90	1.4	NA	NA	981.2	NA	NA		M	NA	NA	NA	NA
2018/03/04 08:48:00	AWS2	5.60	9	7.25	8	2.9	90	1.4	NA	NA	981.2	NA	NA		M	NA	NA	NA	NA
2018/03/04 08:49:00	AWS2	5.58	16	7.25	8	2.9	90	1.4	NA	NA	981.0	NA	NA		M	NA	NA	NA	NA
2018/03/04 08:50:00	AWS2	5.25	17	7.25	8	2.8	90	1.4	NA	NA	981.2	NA	NA		M	NA	NA	NA	NA
2018/03/04 08:51:00	AWS2	5.11	13	7.25	8	2.8	90	1.3	NA	NA	980.9	NA	NA		M	NA	NA	NA	NA
2018/03/04 08:52:00	AWS2	5.01	15	7.25	8	2.8	90	1.3	NA	NA	981.0	NA	NA		M	NA	NA	NA	NA
2018/03/04 08:53:01	AWS2	4.80	19	7.25	8	2.8	90	1.3	NA	NA	981.0	NA	NA		M	NA	NA	NA	NA
2018/03/04 08:54:01	AWS2	4.90	13	7.25	8	2.8	90	1.3	NA	NA	980.9	NA	NA		M	NA	NA	NA	NA
2018/03/04 08:55:01	AWS2	4.78	6	7.25	8	2.8	90	1.4	NA	NA	981.2	NA	NA		M	NA	NA	NA	NA
2018/03/04 08:56:01	AWS2	5.22	9	7.10	20	2.8	91	1.4	NA	NA	981.0	NA	NA		M	NA	NA	NA	NA
2018/03/04 08:57:01	AWS2	6.26	11	7.72	17	2.8	91	1.4	NA	NA	981.2	NA	NA		M	NA	NA	NA	NA
2018/03/04 08:58:00	AWS2	6.60	12	7.72	17	2.8	91	1.5	NA	NA	980.6	NA	NA		M	NA	NA	NA	NA
2018/03/04 08:59:00	AWS2	6.65	12	7.72	17	2.9	91	1.5	NA	NA	981.3	NA	NA		M	NA	NA	NA	NA
2018/03/04 09:00:00	AWS2	6.29	9	7.72	17	2.9	91	1.5	NA	NA	981.2	NA	NA		M	NA	NA	NA	NA
2018/03/04 09:01:00	AWS2	6.57	5	7.72	17	3.0	90	1.5	NA	NA	981.0	NA	NA		M	NA	NA	NA	NA
2018/03/04 09:02:00	AWS2	6.71	4	7.72	17	3.0	90	1.5	NA	NA	981.2	NA	NA		M	NA	NA	NA	NA
2018/03/04 09:03:00	AWS2	6.28	7	7.72	17	3.0	89	1.4	NA	NA	981.2	NA	NA		M	NA	NA	NA	NA
2018/03/04 09:04:00	AWS2	6.51	10	7.72	17	3.0	89	1.4	NA	NA	980.9	NA	NA		M	NA	NA	NA	NA
2018/03/04 09:05:00	AWS2	6.93	6	8.23	5	3.0	89	1.3	NA	NA	981.1	NA	NA		M	NA	NA	NA	NA
2018/03/04 09:06:00	AWS2	7.38	1	8.23	5	3.0	89	1.3	NA	NA	981.0	NA	NA		M	NA	NA	NA	NA
2018/03/04 09:07:00	AWS2	7.68	1	8.49	353	3.0	89	1.3	NA	NA	980.8	NA	NA		M	NA	NA	NA	NA
2018/03/04 09:08:00	AWS2	7.88	4	8.49	7	2.9	89	1.3	NA	NA	980.8	NA	NA		M	NA	NA	NA	NA
2018/03/04 09:09:00	AWS2	7.66	2	8.49	15	2.9	89	1.3	NA	NA	980.9	NA	NA		M	NA	NA	NA	NA
2018/03/04 09:10:00	AWS2	7.25	358	8.49	15	2.9	89	1.3	NA	NA	980.9	NA	NA		M	NA	NA	NA	NA
2018/03/04 09:11:00	AWS2	7.49	2	8.49	15	2.9	89	1.3	NA	NA	980.8	NA	NA		M	NA	NA	NA	NA
2018/03/04 09:12:00	AWS2	7.96	5	8.95	4	2.8	89	1.3	NA	NA	981.0	NA	NA		M	NA	NA	NA	NA
2018/03/04 09:13:00	AWS2	8.03	6	9.31	4	2.8	90	1.3	NA	NA	980.7	NA	NA		M	NA	NA	NA	NA
2018/03/04 09:14:00	AWS2	8.15	4	9.31	4	2.8	90	1.3	NA	NA	981.1	NA	NA		M	NA	NA	NA	NA
2018/03/04 09:15:00	AWS2	8.43	2	9.88	12	2.8	90	1.3	NA	NA	980.8	NA	NA		M	NA	NA	NA	NA
2018/03/04 09:16:00	AWS2	7.58	2	9.88	12	2.8	90	1.3	NA	NA	980.9	NA	NA		M	NA	NA	NA	NA
2018/03/04 09:17:00	AWS2	7.38	3	9.88	12	2.8	90	1.3	NA	NA	980.8	NA	NA		M	NA	NA	NA	NA
2018/03/04 09:18:00	AWS2	8.19	6	10.55	2	2.8	90	1.3	NA	NA	980.7	NA	NA		M	NA	NA	NA	NA
2018/03/04 09:19:00	AWS2	7.93	6	10.55	2	2.8	90	1.4	NA	NA	980.9	NA	NA		M	NA	NA	NA	NA
2018/03/04 09:20:00	AWS2	7.82	6	10.55	2	2.8	90	1.4	NA	NA	980.9	NA	NA		M	NA	NA	NA	NA
2018/03/04 09:21:00	AWS2	7.71	8	10.55	2	2.9	91	1.5	NA	NA	981.1	NA	NA		M	NA	NA	NA	NA
2018/03/04 09:22:00	AWS2	7.35	9	10.55	2	2.9	91	1.5	NA	NA	980.9	NA	NA		M	NA	NA	NA	NA
2018/03/04 09:23:00	AWS2	8.10	7	10.55	2	2.9	91	1.6	NA	NA	980.9	NA	NA		M	NA	NA	NA	NA
2018/03/04 09:24:00	AWS2	8.61	2	10.55	2	2.9	91	1.6	NA	NA	980.8	NA	NA		M	NA	NA	NA	NA
2018/03/04 09:25:00	AWS2	8.59	1	10.55	2	2.9	91	1.6	NA	NA	980.8	NA	NA		M	NA	NA	NA	NA
2018/03/04 09:26:00	AWS2	9.31	4	11.06	353	2.9	91	1.6	NA	NA	980.5	NA	NA		M	NA	NA	NA	NA
2018/03/04 09:27:00	AWS2	9.76	4	11.06	353	2.9	91	1.6	NA	NA	980.4	NA	NA		M	NA	NA	NA	NA
2018/03/04 09:28:00	AWS2	9.48	8	11.06	353	2.9	91	1.6	NA	NA	980.9	NA	NA		M	NA	NA	NA	NA
2018/03/04 09:29:00	AWS2	8.79	9	11.06	353	2.9	92	1.6	NA	NA	980.6	NA	NA		M	NA	NA	NA	NA
2018/03/04 09:30:00	AWS2	8.51	6	11.06	353	2.8	92	1.6	NA	NA	980.9	NA	NA		M	NA	NA	NA	NA
2018/03/04 09:31:00	AWS2	8.62	3	11.06	353	2.8	92	1.6	NA	NA	980.8	NA	NA		M	NA	NA	NA	NA
2018/03/04 09:32:00	AWS2	8.77	5	11.06	353	2.7	92	1.6	NA	NA	980.9	NA	NA		M	NA	NA	NA	NA
2018/03/04 09:33:00	AWS2	8.28	7	11.06	353	2.7	92	1.6	NA	NA	981.1	NA	NA		M	NA	NA	NA	NA
2018/03/04 09:34:00	AWS2	8.21	355	11.06	353	2.6	93	1.6	NA	NA	980.8	NA	NA		M	NA	NA	NA	NA
2018/03/04 09:35:00	AWS2	9.07	357	11.06	353	2.6	93	1.6	NA	NA	980.5	NA	NA		M	NA	NA	NA	NA
2018/03/04 09:36:00	AWS2	8.32	7	10.60	6	2.6	93	1.7	NA	NA	980.5	NA	NA		M	NA	NA	NA	NA
2018/03/04 09:37:00	AWS2	6.90	7	10.60	6	2.6	94	1.7	NA	NA	980.8	NA	NA		M	NA	NA	NA	NA
2018/03/04 09:38:00	AWS2	6.65	12	10.60	6	2.6	94	1.7	NA	NA	980.9	NA	NA		M	NA	NA	NA	NA
2018/03/04 09:39:00	AWS2	6.94	11	10.60	6	2.6	94	1.7	NA	NA	981.0	NA	NA		M	NA	NA	NA	NA
2018/03/04 09:40:00	AWS2	7.34	13	10.08	14	2.6	94	1.7	NA	NA	981.2	NA	NA		M	NA	NA	NA	NA
2018/03/04 09:41:00	AWS2	7.91	12	10.08	14	2.6	94	1.8	NA	NA	980.8	NA	NA		M	NA	NA	NA	NA
2018/03/04 09:42:00	AWS2	8.51	6	10.08	14	2.6	94	1.8	NA	NA	980.8	NA	NA		M	NA	NA	NA	NA
2018/03/04 09:43:00	AWS2	8.11	5	10.08	14	2.7	94	1.8	NA	NA	980.9	NA	NA		M	NA	NA	NA	NA
2018/03/04 09:44:00	AWS2	7.78	5	10.08	14	2.7	94	1.8	NA	NA	980.9	NA	NA		M	NA	NA	NA	NA
2018/03/04 09:45:00	AWS2	8.58	4	10.34	354	2.7	94	1.7	NA	NA	980.8	NA	NA		M	NA	NA	NA	NA
2018/03/04 09:46:00	AWS2	8.95	5	10.65	4	2.6	93	1.7	NA	NA	980.6	NA	NA		M	NA	NA	NA	NA
2018/03/04 09:47:00	AWS2	8.67	6	10.65	4	2.6	93	1.6	NA	NA	980.6	NA	NA		M	NA	NA	NA	NA
2018/03/04 09:48:00	AWS2	8.50	5	10.65	4	2.6	93	1.6	NA	NA	980.8	NA	NA		M	NA	NA	NA	NA
2018/03/04 09:49:00	AWS2	8.25	4	10.65	4	2.6	93	1.6	NA	NA	980.9	NA	NA		M	NA	NA	NA	NA
2018/03/04 09:50:00	AWS2	8.32	5	10.65	4	2.6	93	1.6	NA	NA	980.9	NA	NA		M	NA	NA	NA	NA
2018/03/04 09:51:00	AWS2	8.84	4	10.65	4	2.6	93	1.6	NA	NA	980.6	NA	NA		M	NA	NA	NA	NA
2018/03/04 09:52:00	AWS2	9.07	3	11.11	9	2.6	93	1.6	NA	NA	980.6	NA	NA		M	NA	NA	NA	NA
2018/03/04 09:53:00	AWS2	9.20	10	11.21	17	2.6	93	1.6	NA	NA	980.5	NA	NA		M	NA	NA	NA	NA
2018/03/04 09:54:00	AWS2	8.77	12	11.21	17	2.6	93	1.6	NA	NA	981.1	NA	NA		M	NA	NA	NA	NA
2018/03/04 09:55:00	AWS2	8.88	8	11.21	17	2.6	93	1.6	NA	NA	980.5	NA	NA		M	NA	NA	NA	NA
2018/03/04 09:56:00	AWS2	10.18	8	12.04	1	2.7	93	1.6	NA	NA	980.4	NA	NA		M	NA	NA	NA	NA
2018/03/04 09:57:00	AWS2	11.14	5	13.07	8	2.7	93	1.7	NA	NA	980.0	NA	NA		M	NA	NA	NA	NA
2018/03/04 09:58:00	AWS2	10.80	5	13.07	8	2.7	93	1.7	NA	NA	980.7	NA	NA		M	NA	NA	NA	NA
2018/03/04 09:59:00	AWS2	10.69	4	13.07	8	2.8	93	1.7	NA	NA	980.4	NA	NA		M	NA	NA	NA	NA
2018/03/04 10:00:00	AWS2	10.83	6	13.07	8	2.8	92	1.7	NA	NA	980.2	NA	NA		M	NA	NA	NA	NA
2018/03/04 10:01:00	AWS2	10.10	5	13.07	8	2.8	92	1.6	NA	NA	980.7	NA	NA		M	NA	NA	NA	NA
2018/03/04 10:02:00	AWS2	9.43	3	13.07	8	2.7	92	1.6	NA	NA	980.7	NA	NA		M	NA	NA	NA	NA
2018/03/04 10:03:00	AWS2	9.72	4	13.07	8	2.7	92	1.6	NA	NA	980.6	NA	NA		M	NA	NA	NA	NA
2018/03/04 10:04:00	AWS2	9.71	4	13.07	8	2.6	92	1.5	NA	NA	980.5	NA	NA		M	NA	NA	NA	NA
2018/03/04 10:05:00	AWS2	9.21	6	13.07	8	2.6	93	1.5	NA	NA	980.7	NA	NA		M	NA	NA	NA	NA
2018/03/04 10:06:00	AWS2	9.63	11	13.07	8	2.6	93	1.5	NA	NA	980.6	NA	NA		M	NA	NA	NA	NA
2018/03/04 10:07:00	AWS2	9.81	13	12.66	4	2.6	93	1.6	NA	NA	980.5	NA	NA		M	NA	NA	NA	NA
2018/03/04 10:08:00	AWS2	10.16	11	12.66	4	2.6	93	1.6	NA	NA	980.3	NA	NA		M	NA	NA	NA	NA
2018/03/04 10:09:00	AWS2	10.43	6	12.04	16	2.6	93	1.6	NA	NA	980.6	NA	NA		M	NA	NA	NA	NA
2018/03/04 10:10:00	AWS2	10.25	5	12.04	16	2.6	93	1.6	NA	NA	980.7	NA	NA		M	NA	NA	NA	NA
2018/03/04 10:11:00	AWS2	10.36	8	12.09	6	2.6	93	1.6	NA	NA	980.6	NA	NA		M	NA	NA	NA	NA
2018/03/04 10:12:00	AWS2	10.60	4	12.09	6	2.6	93	1.6	NA	NA	980.2	NA	NA		M	NA	NA	NA	NA
2018/03/04 10:13:00	AWS2	10.27	3	12.09	6	2.6	93	1.6	NA	NA	980.4	NA	NA		M	NA	NA	NA	NA
2018/03/04 10:14:00	AWS2	10.35	4	12.09	6	2.6	93	1.6	NA	NA	980.6	NA	NA		M	NA	NA	NA	NA
2018/03/04 10:15:00	AWS2	10.35	2	12.09	6	2.6	93	1.6	NA	NA	980.5	NA	NA		M	NA	NA	NA	NA
2018/03/04 10:16:00	AWS2	10.55	4	12.71	11	2.6	93	1.6	NA	NA	980.5	NA	NA		M	NA	NA	NA	NA
2018/03/04 10:17:00	AWS2	11.15	7	12.71	11	2.6	93	1.6	NA	NA	980.3	NA	NA		M	NA	NA	NA	NA
2018/03/04 10:18:00	AWS2	10.49	5	12.71	11	2.6	93	1.6	NA	NA	980.5	NA	NA		M	NA	NA	NA	NA
2018/03/04 10:19:00	AWS2	9.95	5	12.71	11	2.6	93	1.6	NA	NA	980.7	NA	NA		M	NA	NA	NA	NA
2018/03/04 10:20:00	AWS2	10.94	4	12.76	7	2.6	94	1.7	NA	NA	980.5	NA	NA		M	NA	NA	NA	NA
2018/03/04 10:21:00	AWS2	11.59	3	12.76	7	2.6	93	1.6	NA	NA	980.5	NA	NA		M	NA	NA	NA	NA
2018/03/04 10:22:00	AWS2	11.30	4	13.17	1	2.6	93	1.6	NA	NA	980.6	NA	NA		M	NA	NA	NA	NA
2018/03/04 10:23:00	AWS2	11.00	4	13.17	1	2.6	93	1.6	NA	NA	980.7	NA	NA		M	NA	NA	NA	NA
2018/03/04 10:24:00	AWS2	10.57	6	13.17	1	2.6	93	1.6	NA	NA	980.5	NA	NA		M	NA	NA	NA	NA
2018/03/04 10:25:00	AWS2	11.12	1	13.17	1	2.6	93	1.6	NA	NA	980.4	NA	NA		M	NA	NA	NA	NA
2018/03/04 10:26:00	AWS2	11.47	2	13.17	1	2.6	93	1.6	NA	NA	980.4	NA	NA		M	NA	NA	NA	NA
2018/03/04 10:27:00	AWS2	11.09	5	13.17	1	2.6	93	1.6	NA	NA	980.8	NA	NA		M	NA	NA	NA	NA
2018/03/04 10:28:00	AWS2	10.87	1	13.17	1	2.6	93	1.6	NA	NA	980.6	NA	NA		M	NA	NA	NA	NA
2018/03/04 10:29:00	AWS2	11.36	5	13.17	1	2.6	93	1.6	NA	NA	980.4	NA	NA		M	NA	NA	NA	NA
2018/03/04 10:30:00	AWS2	11.77	6	13.17	1	2.6	93	1.6	NA	NA	980.7	NA	NA		M	NA	NA	NA	NA
2018/03/04 10:31:00	AWS2	11.33	3	13.17	1	2.6	93	1.6	NA	NA	980.8	NA	NA		M	NA	NA	NA	NA
2018/03/04 10:32:00	AWS2	10.80	2	13.12	8	2.6	93	1.6	NA	NA	980.9	NA	NA		M	NA	NA	NA	NA
2018/03/04 10:33:00	AWS2	9.86	2	13.12	8	2.6	93	1.6	NA	NA	980.8	NA	NA		M	NA	NA	NA	NA
2018/03/04 10:34:00	AWS2	9.77	3	13.12	8	2.6	93	1.6	NA	NA	980.7	NA	NA		M	NA	NA	NA	NA
2018/03/04 10:35:00	AWS2	10.24	7	13.12	8	2.6	93	1.6	NA	NA	980.6	NA	NA		M	NA	NA	NA	NA
2018/03/04 10:36:00	AWS2	9.98	12	13.12	8	2.6	93	1.6	NA	NA	980.6	NA	NA		M	NA	NA	NA	NA
2018/03/04 10:37:00	AWS2	9.75	9	13.12	8	2.6	93	1.6	NA	NA	980.8	NA	NA		M	NA	NA	NA	NA
2018/03/04 10:38:00	AWS2	10.33	5	13.12	8	2.6	93	1.6	NA	NA	980.6	NA	NA		M	NA	NA	NA	NA
2018/03/04 10:39:00	AWS2	11.46	7	13.12	1	2.6	93	1.6	NA	NA	980.6	NA	NA		M	NA	NA	NA	NA
2018/03/04 10:40:00	AWS2	11.52	2	13.12	1	2.7	93	1.6	NA	NA	980.6	NA	NA		M	NA	NA	NA	NA
2018/03/04 10:41:00	AWS2	11.12	2	13.12	1	2.7	93	1.7	NA	NA	980.7	NA	NA		M	NA	NA	NA	NA
2018/03/04 10:42:00	AWS2	11.52	7	13.12	1	2.7	93	1.7	NA	NA	980.5	NA	NA		M	NA	NA	NA	NA
2018/03/04 10:43:00	AWS2	12.23	3	13.43	6	2.7	93	1.7	NA	NA	980.4	NA	NA		M	NA	NA	NA	NA
2018/03/04 10:44:00	AWS2	12.54	360	13.89	7	2.7	93	1.7	NA	NA	980.6	NA	NA		M	NA	NA	NA	NA
2018/03/04 10:45:00	AWS2	12.49	0	13.89	7	2.7	93	1.6	NA	NA	980.5	NA	NA		M	NA	NA	NA	NA
2018/03/04 10:46:00	AWS2	12.37	3	13.89	7	2.7	92	1.6	NA	NA	980.5	NA	NA		M	NA	NA	NA	NA
2018/03/04 10:47:00	AWS2	12.55	4	14.51	9	2.7	92	1.6	NA	NA	980.4	NA	NA		M	NA	NA	NA	NA
2018/03/04 10:48:00	AWS2	12.31	4	14.51	9	2.7	92	1.5	NA	NA	980.5	NA	NA		M	NA	NA	NA	NA
2018/03/04 10:49:00	AWS2	11.69	4	14.51	9	2.7	92	1.6	NA	NA	980.7	NA	NA		M	NA	NA	NA	NA
2018/03/04 10:50:00	AWS2	11.56	1	14.51	9	2.7	92	1.6	NA	NA	980.7	NA	NA		M	NA	NA	NA	NA
2018/03/04 10:51:00	AWS2	11.20	1	14.51	9	2.7	92	1.6	NA	NA	980.6	NA	NA		M	NA	NA	NA	NA
2018/03/04 10:52:00	AWS2	11.67	5	14.51	9	2.7	92	1.6	NA	NA	980.3	NA	NA		M	NA	NA	NA	NA
2018/03/04 10:53:00	AWS2	12.28	5	14.51	9	2.7	92	1.6	NA	NA	980.7	NA	NA		M	NA	NA	NA	NA
2018/03/04 10:54:00	AWS2	11.65	359	14.51	9	2.7	92	1.5	NA	NA	980.7	NA	NA		M	NA	NA	NA	NA
2018/03/04 10:55:00	AWS2	12.06	359	14.51	9	2.7	92	1.5	NA	NA	980.5	NA	NA		M	NA	NA	NA	NA
2018/03/04 10:56:00	AWS2	12.90	358	15.07	354	2.7	92	1.5	NA	NA	980.3	NA	NA		M	NA	NA	NA	NA
2018/03/04 10:57:00	AWS2	12.90	357	15.07	354	2.7	92	1.5	NA	NA	980.3	NA	NA		M	NA	NA	NA	NA
2018/03/04 10:58:00	AWS2	12.49	359	15.07	354	2.7	92	1.5	NA	NA	980.5	NA	NA		M	NA	NA	NA	NA
2018/03/04 10:59:00	AWS2	12.73	359	15.07	354	2.7	92	1.5	NA	NA	980.3	NA	NA		M	NA	NA	NA	NA
2018/03/04 11:00:00	AWS2	12.95	2	15.07	354	2.7	92	1.5	NA	NA	980.5	NA	NA		M	NA	NA	NA	NA
2018/03/04 11:01:00	AWS2	12.54	4	15.07	354	2.7	92	1.6	NA	NA	980.3	NA	NA		M	NA	NA	NA	NA
2018/03/04 11:02:00	AWS2	12.80	3	15.07	354	2.7	92	1.6	NA	NA	980.6	NA	NA		M	NA	NA	NA	NA
2018/03/04 11:03:00	AWS2	12.98	0	15.07	354	2.7	93	1.6	NA	NA	980.3	NA	NA		M	NA	NA	NA	NA
2018/03/04 11:04:00	AWS2	13.29	0	15.43	1	2.6	93	1.6	NA	NA	980.3	NA	NA		M	NA	NA	NA	NA
2018/03/04 11:05:00	AWS2	13.23	6	15.43	1	2.6	93	1.6	NA	NA	980.4	NA	NA		M	NA	NA	NA	NA
2018/03/04 11:06:00	AWS2	12.42	7	15.43	1	2.6	93	1.6	NA	NA	980.6	NA	NA		M	NA	NA	NA	NA
2018/03/04 11:07:00	AWS2	12.66	5	15.43	1	2.6	93	1.6	NA	NA	980.4	NA	NA		M	NA	NA	NA	NA
2018/03/04 11:08:00	AWS2	13.13	358	15.43	1	2.7	93	1.6	NA	NA	980.4	NA	NA		M	NA	NA	NA	NA
2018/03/04 11:09:00	AWS2	12.64	360	15.43	1	2.7	93	1.6	NA	NA	980.5	NA	NA		M	NA	NA	NA	NA
2018/03/04 11:10:00	AWS2	12.34	6	15.43	1	2.6	93	1.6	NA	NA	980.4	NA	NA		M	NA	NA	NA	NA
2018/03/04 11:11:00	AWS2	12.15	1	15.43	1	2.6	93	1.6	NA	NA	980.7	NA	NA		M	NA	NA	NA	NA
2018/03/04 11:12:00	AWS2	11.94	1	15.43	1	2.6	93	1.6	NA	NA	980.5	NA	NA		M	NA	NA	NA	NA
2018/03/04 11:13:00	AWS2	11.85	359	15.43	1	2.6	93	1.6	NA	NA	980.5	NA	NA		M	NA	NA	NA	NA
2018/03/04 11:14:00	AWS2	12.18	359	15.28	1	2.6	93	1.6	NA	NA	980.5	NA	NA		M	NA	NA	NA	NA
2018/03/04 11:15:00	AWS2	12.68	1	15.28	1	2.6	93	1.6	NA	NA	980.5	NA	NA		M	NA	NA	NA	NA
2018/03/04 11:16:00	AWS2	12.34	359	15.28	1	2.6	93	1.6	NA	NA	980.6	NA	NA		M	NA	NA	NA	NA
2018/03/04 11:17:00	AWS2	11.70	2	15.28	1	2.6	93	1.6	NA	NA	980.7	NA	NA		M	NA	NA	NA	NA
2018/03/04 11:18:00	AWS2	11.82	358	15.28	1	2.6	93	1.6	NA	NA	980.6	NA	NA		M	NA	NA	NA	NA
2018/03/04 11:19:00	AWS2	12.53	355	15.28	1	2.6	93	1.6	NA	NA	980.8	NA	NA		M	NA	NA	NA	NA
2018/03/04 11:20:00	AWS2	12.88	356	15.28	1	2.6	93	1.6	NA	NA	980.5	NA	NA		M	NA	NA	NA	NA
2018/03/04 11:21:00	AWS2	12.95	358	15.28	1	2.6	93	1.6	NA	NA	980.5	NA	NA		M	NA	NA	NA	NA
2018/03/04 11:22:00	AWS2	12.61	360	15.28	1	2.6	93	1.6	NA	NA	980.7	NA	NA		M	NA	NA	NA	NA
2018/03/04 11:23:00	AWS2	12.32	354	15.28	1	2.6	93	1.6	NA	NA	980.9	NA	NA		M	NA	NA	NA	NA
2018/03/04 11:24:00	AWS2	12.48	358	13.84	2	2.6	93	1.6	NA	NA	980.8	NA	NA		M	NA	NA	NA	NA
2018/03/04 11:25:00	AWS2	12.13	355	13.84	2	2.6	93	1.6	NA	NA	980.9	NA	NA		M	NA	NA	NA	NA
2018/03/04 11:26:00	AWS2	11.26	356	13.84	2	2.6	93	1.6	NA	NA	980.8	NA	NA		M	NA	NA	NA	NA
2018/03/04 11:27:00	AWS2	11.32	5	13.84	2	2.5	93	1.5	NA	NA	980.8	NA	NA		M	NA	NA	NA	NA
2018/03/04 11:28:00	AWS2	11.72	3	14.61	10	2.5	93	1.5	NA	NA	980.8	NA	NA		M	NA	NA	NA	NA
2018/03/04 11:29:00	AWS2	12.22	3	14.61	10	2.5	93	1.5	NA	NA	980.8	NA	NA		M	NA	NA	NA	NA
2018/03/04 11:30:00	AWS2	12.28	5	14.61	10	2.5	93	1.5	NA	NA	981.0	NA	NA		M	NA	NA	NA	NA
2018/03/04 11:31:01	AWS2	12.01	6	14.61	10	2.5	93	1.5	NA	NA	980.9	NA	NA		M	NA	NA	NA	NA
2018/03/04 11:32:00	AWS2	11.80	6	14.61	10	2.5	93	1.5	NA	NA	980.8	NA	NA		M	NA	NA	NA	NA
2018/03/04 11:33:00	AWS2	11.10	3	14.61	10	2.5	94	1.6	NA	NA	981.0	NA	NA		M	NA	NA	NA	NA
2018/03/04 11:34:00	AWS2	11.11	3	14.61	10	2.5	94	1.6	NA	NA	980.9	NA	NA		M	NA	NA	NA	NA
2018/03/04 11:35:00	AWS2	11.63	8	14.61	10	2.5	94	1.6	NA	NA	980.9	NA	NA		M	NA	NA	NA	NA
2018/03/04 11:36:00	AWS2	11.42	8	14.61	10	2.5	94	1.6	NA	NA	981.0	NA	NA		M	NA	NA	NA	NA
2018/03/04 11:37:00	AWS2	11.22	4	14.61	10	2.5	94	1.6	NA	NA	980.5	NA	NA		M	NA	NA	NA	NA
2018/03/04 11:38:00	AWS2	12.04	3	13.68	9	2.5	94	1.6	NA	NA	980.8	NA	NA		M	NA	NA	NA	NA
2018/03/04 11:39:00	AWS2	11.77	6	13.58	1	2.5	94	1.6	NA	NA	980.8	NA	NA		M	NA	NA	NA	NA
2018/03/04 11:40:00	AWS2	11.46	3	13.58	1	2.5	94	1.6	NA	NA	980.9	NA	NA		M	NA	NA	NA	NA
2018/03/04 11:41:00	AWS2	11.85	5	13.58	1	2.5	94	1.6	NA	NA	980.6	NA	NA		M	NA	NA	NA	NA
2018/03/04 11:42:00	AWS2	11.80	7	14.30	4	2.5	94	1.6	NA	NA	981.0	NA	NA		M	NA	NA	NA	NA
2018/03/04 11:43:00	AWS2	11.89	4	14.30	4	2.5	93	1.6	NA	NA	980.7	NA	NA		M	NA	NA	NA	NA
2018/03/04 11:44:00	AWS2	11.10	7	14.30	4	2.6	93	1.6	NA	NA	980.7	NA	NA		M	NA	NA	NA	NA
2018/03/04 11:45:00	AWS2	10.73	3	14.30	4	2.6	93	1.6	NA	NA	981.0	NA	NA		M	NA	NA	NA	NA
2018/03/04 11:46:00	AWS2	11.45	359	14.30	4	2.6	93	1.6	NA	NA	981.0	NA	NA		M	NA	NA	NA	NA
2018/03/04 11:47:00	AWS2	11.47	1	14.30	4	2.6	93	1.6	NA	NA	981.1	NA	NA		M	NA	NA	NA	NA
2018/03/04 11:48:00	AWS2	11.56	3	14.30	4	2.6	93	1.6	NA	NA	980.9	NA	NA		M	NA	NA	NA	NA
2018/03/04 11:49:00	AWS2	11.44	3	14.30	4	2.6	93	1.5	NA	NA	980.9	NA	NA		M	NA	NA	NA	NA
2018/03/04 11:50:00	AWS2	11.35	358	14.30	4	2.5	93	1.5	NA	NA	980.9	NA	NA		M	NA	NA	NA	NA
2018/03/04 11:51:00	AWS2	10.99	356	14.30	4	2.5	93	1.4	NA	NA	980.9	NA	NA		M	NA	NA	NA	NA
2018/03/04 11:52:00	AWS2	11.19	357	13.53	267	2.5	93	1.4	NA	NA	980.7	NA	NA		M	NA	NA	NA	NA
2018/03/04 11:53:00	AWS2	12.28	359	13.53	267	2.5	93	1.4	NA	NA	980.8	NA	NA		M	NA	NA	NA	NA
2018/03/04 11:54:00	AWS2	11.67	2	13.53	267	2.5	93	1.4	NA	NA	980.9	NA	NA		M	NA	NA	NA	NA
2018/03/04 11:55:00	AWS2	11.08	0	13.53	267	2.5	93	1.5	NA	NA	981.0	NA	NA		M	NA	NA	NA	NA
2018/03/04 11:56:00	AWS2	11.32	358	13.53	267	2.5	93	1.4	NA	NA	980.9	NA	NA		M	NA	NA	NA	NA
2018/03/04 11:57:00	AWS2	11.47	358	13.53	267	2.4	93	1.5	NA	NA	980.7	NA	NA		M	NA	NA	NA	NA
2018/03/04 11:58:00	AWS2	12.04	356	14.30	1	2.4	93	1.5	NA	NA	980.8	NA	NA		M	NA	NA	NA	NA
2018/03/04 11:59:00	AWS2	11.51	359	14.30	1	2.4	94	1.5	NA	NA	980.8	NA	NA		M	NA	NA	NA	NA
2018/03/04 12:00:00	AWS2	10.52	3	14.30	1	2.4	94	1.5	NA	NA	980.9	NA	NA		M	NA	NA	NA	NA
2018/03/04 12:01:00	AWS2	10.97	1	14.30	1	2.4	94	1.5	NA	NA	980.6	NA	NA		M	NA	NA	NA	NA
2018/03/04 12:02:00	AWS2	11.64	0	14.30	1	2.4	94	1.5	NA	NA	980.8	NA	NA		M	NA	NA	NA	NA
2018/03/04 12:03:00	AWS2	11.45	360	14.30	1	2.4	94	1.5	NA	NA	981.0	NA	NA		M	NA	NA	NA	NA
2018/03/04 12:04:00	AWS2	11.57	3	14.30	1	2.4	94	1.5	NA	NA	980.8	NA	NA		M	NA	NA	NA	NA
2018/03/04 12:05:00	AWS2	11.91	8	14.30	1	2.4	94	1.5	NA	NA	980.8	NA	NA		M	NA	NA	NA	NA
2018/03/04 12:06:00	AWS2	11.41	4	14.30	1	2.4	94	1.5	NA	NA	981.0	NA	NA		M	NA	NA	NA	NA
2018/03/04 12:07:00	AWS2	11.55	354	14.30	1	2.4	94	1.5	NA	NA	980.8	NA	NA		M	NA	NA	NA	NA
2018/03/04 12:08:00	AWS2	11.89	355	13.74	10	2.4	94	1.5	NA	NA	980.8	NA	NA		M	NA	NA	NA	NA
2018/03/04 12:09:00	AWS2	11.75	2	13.74	10	2.4	94	1.5	NA	NA	980.8	NA	NA		M	NA	NA	NA	NA
2018/03/04 12:10:00	AWS2	11.72	6	13.74	10	2.4	94	1.5	NA	NA	981.0	NA	NA		M	NA	NA	NA	NA
2018/03/04 12:11:00	AWS2	11.68	4	13.74	10	2.4	94	1.5	NA	NA	981.0	NA	NA		M	NA	NA	NA	NA
2018/03/04 12:12:00	AWS2	11.51	2	13.74	10	2.4	94	1.5	NA	NA	980.9	NA	NA		M	NA	NA	NA	NA
2018/03/04 12:13:00	AWS2	12.30	1	13.94	1	2.4	94	1.5	NA	NA	980.7	NA	NA		M	NA	NA	NA	NA
2018/03/04 12:14:00	AWS2	12.85	359	13.94	1	2.4	94	1.5	NA	NA	980.6	NA	NA		M	NA	NA	NA	NA
2018/03/04 12:15:00	AWS2	12.43	2	13.94	1	2.4	94	1.5	NA	NA	980.8	NA	NA		M	NA	NA	NA	NA
2018/03/04 12:16:00	AWS2	12.21	0	13.94	1	2.4	94	1.5	NA	NA	980.8	NA	NA		M	NA	NA	NA	NA
2018/03/04 12:17:00	AWS2	12.15	2	13.94	1	2.4	94	1.5	NA	NA	980.7	NA	NA		M	NA	NA	NA	NA
2018/03/04 12:18:00	AWS2	12.36	1	14.35	1	2.4	94	1.5	NA	NA	980.8	NA	NA		M	NA	NA	NA	NA
2018/03/04 12:19:00	AWS2	12.52	357	14.35	1	2.4	94	1.6	NA	NA	980.7	NA	NA		M	NA	NA	NA	NA
2018/03/04 12:20:00	AWS2	12.91	359	14.35	1	2.5	94	1.6	NA	NA	980.8	NA	NA		M	NA	NA	NA	NA
2018/03/04 12:21:00	AWS2	13.17	358	14.35	1	2.5	94	1.6	NA	NA	980.8	NA	NA		M	NA	NA	NA	NA
2018/03/04 12:22:00	AWS2	12.57	357	14.35	1	2.5	94	1.6	NA	NA	980.8	NA	NA		M	NA	NA	NA	NA
2018/03/04 12:23:00	AWS2	12.13	359	14.35	1	2.5	94	1.6	NA	NA	980.9	NA	NA		M	NA	NA	NA	NA
2018/03/04 12:24:00	AWS2	11.99	358	14.35	1	2.5	94	1.6	NA	NA	980.9	NA	NA		M	NA	NA	NA	NA
2018/03/04 12:25:00	AWS2	11.47	359	14.35	1	2.5	94	1.6	NA	NA	980.8	NA	NA		M	NA	NA	NA	NA
2018/03/04 12:26:00	AWS2	11.86	5	14.35	1	2.5	94	1.6	NA	NA	980.7	NA	NA		M	NA	NA	NA	NA
2018/03/04 12:27:00	AWS2	12.31	3	14.35	1	2.5	94	1.6	NA	NA	980.8	NA	NA		M	NA	NA	NA	NA
2018/03/04 12:28:00	AWS2	12.05	358	14.30	3	2.5	94	1.6	NA	NA	980.8	NA	NA		M	NA	NA	NA	NA
2018/03/04 12:29:00	AWS2	12.01	349	14.30	3	2.5	94	1.6	NA	NA	980.9	NA	NA		M	NA	NA	NA	NA
2018/03/04 12:30:00	AWS2	12.32	349	13.84	86	2.5	94	1.6	NA	NA	980.8	NA	NA		M	NA	NA	NA	NA
2018/03/04 12:31:00	AWS2	12.53	353	14.04	1	2.5	94	1.6	NA	NA	981.0	NA	NA		M	NA	NA	NA	NA
2018/03/04 12:32:00	AWS2	11.99	353	14.04	1	2.5	94	1.6	NA	NA	980.9	NA	NA		M	NA	NA	NA	NA
2018/03/04 12:33:00	AWS2	11.70	357	14.04	1	2.4	94	1.6	NA	NA	980.8	NA	NA		M	NA	NA	NA	NA
2018/03/04 12:34:00	AWS2	11.72	1	14.04	1	2.4	94	1.6	NA	NA	981.0	NA	NA		M	NA	NA	NA	NA
2018/03/04 12:35:00	AWS2	11.53	357	14.04	1	2.4	94	1.5	NA	NA	981.1	NA	NA		M	NA	NA	NA	NA
2018/03/04 12:36:00	AWS2	11.56	356	14.04	1	2.4	94	1.5	NA	NA	981.0	NA	NA		M	NA	NA	NA	NA
2018/03/04 12:37:00	AWS2	11.32	1	14.04	1	2.4	94	1.5	NA	NA	981.0	NA	NA		M	NA	NA	NA	NA
2018/03/04 12:38:00	AWS2	11.31	1	14.04	1	2.4	94	1.5	NA	NA	980.9	NA	NA		M	NA	NA	NA	NA
2018/03/04 12:39:00	AWS2	11.46	358	14.04	1	2.4	94	1.5	NA	NA	981.0	NA	NA		M	NA	NA	NA	NA
2018/03/04 12:40:00	AWS2	11.67	360	14.04	1	2.4	94	1.5	NA	NA	981.1	NA	NA		M	NA	NA	NA	NA
2018/03/04 12:41:00	AWS2	11.70	1	13.12	2	2.4	94	1.6	NA	NA	980.9	NA	NA		M	NA	NA	NA	NA
2018/03/04 12:42:00	AWS2	11.05	359	13.12	2	2.4	95	1.6	NA	NA	981.2	NA	NA		M	NA	NA	NA	NA
2018/03/04 12:43:00	AWS2	10.73	357	13.12	2	2.3	95	1.6	NA	NA	981.0	NA	NA		M	NA	NA	NA	NA
2018/03/04 12:44:00	AWS2	10.77	356	13.12	2	2.3	95	1.6	NA	NA	981.1	NA	NA		M	NA	NA	NA	NA
2018/03/04 12:45:00	AWS2	10.99	357	13.12	2	2.3	95	1.6	NA	NA	980.8	NA	NA		M	NA	NA	NA	NA
2018/03/04 12:46:00	AWS2	11.45	358	13.07	9	2.3	95	1.6	NA	NA	981.2	NA	NA		M	NA	NA	NA	NA
2018/03/04 12:47:00	AWS2	11.38	2	13.07	9	2.3	95	1.6	NA	NA	981.0	NA	NA		M	NA	NA	NA	NA
2018/03/04 12:48:00	AWS2	10.85	4	13.07	9	2.3	95	1.6	NA	NA	981.3	NA	NA		M	NA	NA	NA	NA
2018/03/04 12:49:00	AWS2	11.34	1	13.07	9	2.3	95	1.6	NA	NA	981.0	NA	NA		M	NA	NA	NA	NA
2018/03/04 12:50:00	AWS2	12.06	1	12.86	1	2.3	95	1.6	NA	NA	981.0	NA	NA		M	NA	NA	NA	NA
2018/03/04 12:51:00	AWS2	11.60	3	12.86	1	2.4	95	1.6	NA	NA	981.2	NA	NA		M	NA	NA	NA	NA
2018/03/04 12:52:00	AWS2	11.16	5	12.86	1	2.4	95	1.7	NA	NA	981.1	NA	NA		M	NA	NA	NA	NA
2018/03/04 12:53:00	AWS2	11.63	4	12.86	1	2.4	95	1.7	NA	NA	981.1	NA	NA		M	NA	NA	NA	NA
2018/03/04 12:54:00	AWS2	12.02	3	13.12	12	2.4	95	1.7	NA	NA	981.0	NA	NA		M	NA	NA	NA	NA
2018/03/04 12:55:00	AWS2	12.09	4	13.22	5	2.4	95	1.7	NA	NA	981.1	NA	NA		M	NA	NA	NA	NA
2018/03/04 12:56:00	AWS2	11.85	360	13.22	5	2.4	95	1.7	NA	NA	981.1	NA	NA		M	NA	NA	NA	NA
2018/03/04 12:57:00	AWS2	11.77	1	13.22	5	2.4	95	1.7	NA	NA	981.0	NA	NA		M	NA	NA	NA	NA
2018/03/04 12:58:00	AWS2	11.81	2	13.22	5	2.4	95	1.7	NA	NA	981.1	NA	NA		M	NA	NA	NA	NA
2018/03/04 12:59:00	AWS2	11.35	2	13.22	5	2.4	95	1.7	NA	NA	981.1	NA	NA		M	NA	NA	NA	NA
2018/03/04 13:00:00	AWS2	11.28	5	13.22	5	2.4	95	1.7	NA	NA	980.8	NA	NA		M	NA	NA	NA	NA
2018/03/04 13:01:00	AWS2	11.35	4	13.22	5	2.4	95	1.7	NA	NA	981.3	NA	NA		M	NA	NA	NA	NA
2018/03/04 13:02:00	AWS2	10.72	4	13.22	5	2.5	95	1.7	NA	NA	980.9	NA	NA		M	NA	NA	NA	NA
2018/03/04 13:03:00	AWS2	10.91	3	13.22	5	2.5	95	1.8	NA	NA	981.0	NA	NA		M	NA	NA	NA	NA
2018/03/04 13:04:00	AWS2	11.93	357	13.63	6	2.5	95	1.8	NA	NA	980.8	NA	NA		M	NA	NA	NA	NA
2018/03/04 13:05:00	AWS2	12.35	0	13.79	5	2.5	95	1.8	NA	NA	981.0	NA	NA		M	NA	NA	NA	NA
2018/03/04 13:06:00	AWS2	11.84	4	13.79	5	2.5	95	1.8	NA	NA	981.2	NA	NA		M	NA	NA	NA	NA
2018/03/04 13:07:00	AWS2	11.39	2	13.79	5	2.5	95	1.8	NA	NA	981.0	NA	NA		M	NA	NA	NA	NA
2018/03/04 13:08:00	AWS2	11.32	1	13.79	5	2.5	95	1.8	NA	NA	981.2	NA	NA		M	NA	NA	NA	NA
2018/03/04 13:09:00	AWS2	11.29	354	13.79	5	2.5	95	1.7	NA	NA	981.1	NA	NA		M	NA	NA	NA	NA
2018/03/04 13:10:00	AWS2	11.60	359	13.79	5	2.5	94	1.7	NA	NA	980.9	NA	NA		M	NA	NA	NA	NA
2018/03/04 13:11:00	AWS2	11.15	1	13.79	5	2.5	94	1.7	NA	NA	981.3	NA	NA		M	NA	NA	NA	NA
2018/03/04 13:12:00	AWS2	10.18	0	13.79	5	2.5	94	1.6	NA	NA	981.6	NA	NA		M	NA	NA	NA	NA
2018/03/04 13:13:00	AWS2	10.15	5	13.79	5	2.5	94	1.6	NA	NA	981.4	NA	NA		M	NA	NA	NA	NA
2018/03/04 13:14:00	AWS2	10.24	7	13.79	5	2.5	94	1.6	NA	NA	981.4	NA	NA		M	NA	NA	NA	NA
2018/03/04 13:15:00	AWS2	10.35	6	12.91	1	2.4	94	1.6	NA	NA	981.3	NA	NA		M	NA	NA	NA	NA
2018/03/04 13:16:00	AWS2	10.77	5	12.91	1	2.4	94	1.6	NA	NA	981.3	NA	NA		M	NA	NA	NA	NA
2018/03/04 13:17:00	AWS2	10.80	6	12.91	1	2.4	94	1.5	NA	NA	981.4	NA	NA		M	NA	NA	NA	NA
2018/03/04 13:18:00	AWS2	10.55	7	12.91	1	2.4	94	1.6	NA	NA	981.3	NA	NA		M	NA	NA	NA	NA
2018/03/04 13:19:00	AWS2	10.25	5	12.45	9	2.4	94	1.6	NA	NA	981.3	NA	NA		M	NA	NA	NA	NA
2018/03/04 13:20:00	AWS2	9.51	4	12.35	9	2.4	95	1.6	NA	NA	981.6	NA	NA		M	NA	NA	NA	NA
2018/03/04 13:21:00	AWS2	9.27	11	12.30	2	2.4	95	1.7	NA	NA	981.5	NA	NA		M	NA	NA	NA	NA
2018/03/04 13:22:00	AWS2	9.35	10	12.30	2	2.4	95	1.7	NA	NA	981.6	NA	NA		M	NA	NA	NA	NA
2018/03/04 13:23:00	AWS2	9.37	2	12.24	1	2.4	95	1.7	NA	NA	981.6	NA	NA		M	NA	NA	NA	NA
2018/03/04 13:24:00	AWS2	9.38	6	12.14	5	2.4	95	1.7	NA	NA	981.5	NA	NA		M	NA	NA	NA	NA
2018/03/04 13:25:00	AWS2	8.95	14	12.14	5	2.4	95	1.7	NA	NA	980.9	NA	NA		M	NA	NA	NA	NA
2018/03/04 13:26:00	AWS2	9.11	13	11.88	5	2.4	95	1.7	NA	NA	981.5	NA	NA		M	NA	NA	NA	NA
2018/03/04 13:27:00	AWS2	9.42	9	11.57	3	2.5	95	1.8	NA	NA	981.3	NA	NA		M	NA	NA	NA	NA
2018/03/04 13:28:00	AWS2	9.60	6	11.42	1	2.5	95	1.8	NA	NA	981.4	NA	NA		M	NA	NA	NA	NA
2018/03/04 13:29:00	AWS2	9.18	3	11.21	27	2.6	95	1.8	NA	NA	981.7	NA	NA		M	NA	NA	NA	NA
2018/03/04 13:30:00	AWS2	8.48	5	11.21	27	2.6	95	1.8	NA	NA	981.5	NA	NA		M	NA	NA	NA	NA
2018/03/04 13:31:00	AWS2	8.41	359	11.21	27	2.6	95	1.8	NA	NA	981.6	NA	NA		M	NA	NA	NA	NA
2018/03/04 13:32:00	AWS2	8.21	359	11.21	27	2.6	94	1.8	NA	NA	981.7	NA	NA		M	NA	NA	NA	NA
2018/03/04 13:33:00	AWS2	9.07	5	11.99	1	2.6	94	1.8	NA	NA	981.3	NA	NA		M	NA	NA	NA	NA
2018/03/04 13:34:00	AWS2	9.56	4	11.99	1	2.7	94	1.8	NA	NA	981.4	NA	NA		M	NA	NA	NA	NA
2018/03/04 13:35:00	AWS2	8.81	4	11.99	1	2.7	94	1.8	NA	NA	981.3	NA	NA		M	NA	NA	NA	NA
2018/03/04 13:36:00	AWS2	9.03	7	11.99	1	2.7	94	1.8	NA	NA	981.2	NA	NA		M	NA	NA	NA	NA
2018/03/04 13:37:00	AWS2	9.50	8	11.99	1	2.7	94	1.8	NA	NA	981.6	NA	NA		M	NA	NA	NA	NA
2018/03/04 13:38:00	AWS2	9.35	3	11.99	1	2.7	94	1.8	NA	NA	981.3	NA	NA		M	NA	NA	NA	NA
2018/03/04 13:39:00	AWS2	8.89	1	11.99	1	2.7	94	1.8	NA	NA	981.3	NA	NA		M	NA	NA	NA	NA
2018/03/04 13:40:00	AWS2	8.73	3	11.99	1	2.7	93	1.7	NA	NA	981.4	NA	NA		M	NA	NA	NA	NA
2018/03/04 13:41:00	AWS2	8.65	5	11.99	1	2.7	93	1.7	NA	NA	981.9	NA	NA		M	NA	NA	NA	NA
2018/03/04 13:42:00	AWS2	8.53	2	11.99	1	2.7	93	1.7	NA	NA	981.6	NA	NA		M	NA	NA	NA	NA
2018/03/04 13:43:00	AWS2	9.14	2	11.57	8	2.7	93	1.7	NA	NA	981.4	NA	NA		M	NA	NA	NA	NA
2018/03/04 13:44:00	AWS2	9.42	4	11.57	8	2.7	93	1.7	NA	NA	981.5	NA	NA		M	NA	NA	NA	NA
2018/03/04 13:45:00	AWS2	9.08	2	11.57	8	2.7	93	1.7	NA	NA	981.6	NA	NA		M	NA	NA	NA	NA
2018/03/04 13:46:00	AWS2	9.92	358	11.88	4	2.7	93	1.7	NA	NA	981.4	NA	NA		M	NA	NA	NA	NA
2018/03/04 13:47:00	AWS2	10.77	358	11.88	4	2.8	93	1.7	NA	NA	981.7	NA	NA		M	NA	NA	NA	NA
2018/03/04 13:48:00	AWS2	10.76	1	12.24	1	2.8	93	1.8	NA	NA	981.3	NA	NA		M	NA	NA	NA	NA
2018/03/04 13:49:00	AWS2	10.24	357	12.24	1	2.8	93	1.8	NA	NA	981.7	NA	NA		M	NA	NA	NA	NA
2018/03/04 13:50:00	AWS2	10.19	355	12.24	1	2.8	93	1.8	NA	NA	981.2	NA	NA		M	NA	NA	NA	NA
2018/03/04 13:51:00	AWS2	9.91	0	12.24	1	2.8	93	1.8	NA	NA	981.6	NA	NA		M	NA	NA	NA	NA
2018/03/04 13:52:00	AWS2	9.73	0	12.24	1	2.9	92	1.7	NA	NA	981.3	NA	NA		M	NA	NA	NA	NA
2018/03/04 13:53:00	AWS2	10.32	360	12.24	1	2.9	92	1.7	NA	NA	981.5	NA	NA		M	NA	NA	NA	NA
2018/03/04 13:54:00	AWS2	9.98	1	12.24	1	2.9	92	1.7	NA	NA	981.6	NA	NA		M	NA	NA	NA	NA
2018/03/04 13:55:00	AWS2	9.62	358	12.24	1	2.9	92	1.7	NA	NA	981.4	NA	NA		M	NA	NA	NA	NA
2018/03/04 13:56:00	AWS2	9.68	360	12.24	1	2.9	92	1.7	NA	NA	981.7	NA	NA		M	NA	NA	NA	NA
2018/03/04 13:57:00	AWS2	9.88	3	12.24	1	2.9	92	1.7	NA	NA	981.8	NA	NA		M	NA	NA	NA	NA
2018/03/04 13:58:00	AWS2	10.27	3	11.99	1	2.9	92	1.7	NA	NA	981.5	NA	NA		M	NA	NA	NA	NA
2018/03/04 13:59:00	AWS2	10.26	4	11.99	1	2.9	92	1.8	NA	NA	981.6	NA	NA		M	NA	NA	NA	NA
2018/03/04 14:00:00	AWS2	9.78	4	11.99	1	2.9	92	1.7	NA	NA	981.6	NA	NA		M	NA	NA	NA	NA
2018/03/04 14:01:00	AWS2	9.86	360	11.99	1	3.0	92	1.7	NA	NA	981.7	NA	NA		M	NA	NA	NA	NA
2018/03/04 14:02:00	AWS2	9.67	359	11.99	1	3.0	91	1.7	NA	NA	981.7	NA	NA		M	NA	NA	NA	NA
2018/03/04 14:03:00	AWS2	9.09	5	11.27	1	3.0	91	1.7	NA	NA	981.6	NA	NA		M	NA	NA	NA	NA
2018/03/04 14:04:00	AWS2	8.85	358	11.27	1	3.0	91	1.7	NA	NA	981.9	NA	NA		M	NA	NA	NA	NA
2018/03/04 14:05:00	AWS2	8.78	355	11.27	1	3.0	91	1.7	NA	NA	981.6	NA	NA		M	NA	NA	NA	NA
2018/03/04 14:06:00	AWS2	8.92	360	11.27	1	3.0	91	1.7	NA	NA	982.0	NA	NA		M	NA	NA	NA	NA
2018/03/04 14:07:00	AWS2	8.80	0	11.27	1	3.0	91	1.7	NA	NA	981.7	NA	NA		M	NA	NA	NA	NA
2018/03/04 14:08:00	AWS2	8.54	359	11.11	22	3.0	91	1.7	NA	NA	981.8	NA	NA		M	NA	NA	NA	NA
2018/03/04 14:09:00	AWS2	8.48	358	11.06	2	3.0	91	1.7	NA	NA	981.7	NA	NA		M	NA	NA	NA	NA
2018/03/04 14:10:00	AWS2	8.76	360	10.85	349	3.0	91	1.7	NA	NA	981.5	NA	NA		M	NA	NA	NA	NA
2018/03/04 14:11:00	AWS2	8.72	5	10.19	8	3.0	91	1.7	NA	NA	981.8	NA	NA		M	NA	NA	NA	NA
2018/03/04 14:12:00	AWS2	8.43	5	9.98	354	3.0	91	1.7	NA	NA	981.7	NA	NA		M	NA	NA	NA	NA
2018/03/04 14:13:00	AWS2	8.54	0	9.98	354	3.1	90	1.7	NA	NA	981.7	NA	NA		M	NA	NA	NA	NA
2018/03/04 14:14:00	AWS2	8.99	1	9.98	354	3.1	90	1.7	NA	NA	981.6	NA	NA		M	NA	NA	NA	NA
2018/03/04 14:15:00	AWS2	9.15	4	9.98	354	3.1	90	1.6	NA	NA	981.6	NA	NA		M	NA	NA	NA	NA
2018/03/04 14:16:00	AWS2	8.64	3	9.77	1	3.2	90	1.6	NA	NA	981.7	NA	NA		M	NA	NA	NA	NA
2018/03/04 14:17:00	AWS2	8.36	359	9.77	1	3.2	89	1.6	NA	NA	982.0	NA	NA		M	NA	NA	NA	NA
2018/03/04 14:18:00	AWS2	8.66	359	10.49	1	3.2	89	1.6	NA	NA	981.6	NA	NA		M	NA	NA	NA	NA
2018/03/04 14:19:00	AWS2	9.08	4	10.49	1	3.3	89	1.6	NA	NA	981.6	NA	NA		M	NA	NA	NA	NA
2018/03/04 14:20:00	AWS2	8.85	5	10.49	1	3.3	89	1.7	NA	NA	981.5	NA	NA		M	NA	NA	NA	NA
2018/03/04 14:21:00	AWS2	8.53	3	10.49	1	3.4	89	1.7	NA	NA	981.6	NA	NA		M	NA	NA	NA	NA
2018/03/04 14:22:00	AWS2	8.75	5	10.49	1	3.4	89	1.7	NA	NA	981.0	NA	NA		M	NA	NA	NA	NA
2018/03/04 14:23:00	AWS2	8.55	8	10.49	1	3.4	88	1.7	NA	NA	981.6	NA	NA		M	NA	NA	NA	NA
2018/03/04 14:24:00	AWS2	8.33	8	10.70	2	3.4	88	1.6	NA	NA	981.4	NA	NA		M	NA	NA	NA	NA
2018/03/04 14:25:00	AWS2	8.72	3	10.70	2	3.4	88	1.6	NA	NA	981.2	NA	NA		M	NA	NA	NA	NA
2018/03/04 14:26:00	AWS2	9.04	1	10.70	2	3.5	88	1.7	NA	NA	981.6	NA	NA		M	NA	NA	NA	NA
2018/03/04 14:27:00	AWS2	9.25	0	10.70	2	3.5	88	1.7	NA	NA	981.3	NA	NA		M	NA	NA	NA	NA
2018/03/04 14:28:00	AWS2	8.98	1	10.70	2	3.5	88	1.7	NA	NA	981.4	NA	NA		M	NA	NA	NA	NA
2018/03/04 14:29:00	AWS2	8.79	3	10.70	2	3.6	87	1.7	NA	NA	981.6	NA	NA		M	NA	NA	NA	NA
2018/03/04 14:30:00	AWS2	8.69	6	10.70	2	3.6	87	1.7	NA	NA	981.6	NA	NA		M	NA	NA	NA	NA
2018/03/04 14:31:00	AWS2	8.28	10	10.70	2	3.6	87	1.7	NA	NA	981.5	NA	NA		M	NA	NA	NA	NA
2018/03/04 14:32:00	AWS2	8.54	10	10.70	2	3.6	87	1.7	NA	NA	981.6	NA	NA		M	NA	NA	NA	NA
2018/03/04 14:33:00	AWS2	9.08	9	10.70	2	3.6	87	1.7	NA	NA	981.2	NA	NA		M	NA	NA	NA	NA
2018/03/04 14:34:00	AWS2	9.60	7	10.60	2	3.6	87	1.6	NA	NA	981.6	NA	NA		M	NA	NA	NA	NA
2018/03/04 14:35:00	AWS2	9.36	9	10.60	2	3.6	87	1.6	NA	NA	981.3	NA	NA		M	NA	NA	NA	NA
2018/03/04 14:36:00	AWS2	8.77	6	10.60	2	3.5	87	1.6	NA	NA	981.7	NA	NA		M	NA	NA	NA	NA
2018/03/04 14:37:00	AWS2	9.23	4	11.42	6	3.4	87	1.5	NA	NA	981.3	NA	NA		M	NA	NA	NA	NA
2018/03/04 14:38:00	AWS2	9.83	7	11.42	6	3.4	88	1.6	NA	NA	981.3	NA	NA		M	NA	NA	NA	NA
2018/03/04 14:39:00	AWS2	9.22	7	11.42	6	3.5	88	1.6	NA	NA	981.5	NA	NA		M	NA	NA	NA	NA
2018/03/04 14:40:00	AWS2	8.65	2	11.42	6	3.5	88	1.6	NA	NA	981.6	NA	NA		M	NA	NA	NA	NA
2018/03/04 14:41:00	AWS2	8.90	358	11.42	6	3.5	87	1.6	NA	NA	981.6	NA	NA		M	NA	NA	NA	NA
2018/03/04 14:42:00	AWS2	9.26	359	11.42	6	3.6	87	1.6	NA	NA	981.5	NA	NA		M	NA	NA	NA	NA
2018/03/04 14:43:00	AWS2	9.15	0	11.42	6	3.6	87	1.6	NA	NA	981.6	NA	NA		M	NA	NA	NA	NA
2018/03/04 14:44:00	AWS2	9.09	2	11.42	6	3.6	87	1.6	NA	NA	981.4	NA	NA		M	NA	NA	NA	NA
2018/03/04 14:45:00	AWS2	9.54	1	11.42	6	3.6	87	1.6	NA	NA	981.7	NA	NA		M	NA	NA	NA	NA
2018/03/04 14:46:00	AWS2	9.46	360	11.42	6	3.6	87	1.6	NA	NA	981.8	NA	NA		M	NA	NA	NA	NA
2018/03/04 14:47:00	AWS2	9.65	2	11.11	5	3.6	87	1.5	NA	NA	981.7	NA	NA		M	NA	NA	NA	NA
2018/03/04 14:48:00	AWS2	10.13	1	11.01	9	3.6	87	1.5	NA	NA	981.5	NA	NA		M	NA	NA	NA	NA
2018/03/04 14:49:00	AWS2	9.95	0	11.01	9	3.6	86	1.5	NA	NA	981.4	NA	NA		M	NA	NA	NA	NA
2018/03/04 14:50:00	AWS2	9.58	1	11.01	9	3.5	86	1.5	NA	NA	981.5	NA	NA		M	NA	NA	NA	NA
2018/03/04 14:51:00	AWS2	9.88	358	11.21	1	3.5	87	1.5	NA	NA	981.3	NA	NA		M	NA	NA	NA	NA
2018/03/04 14:52:00	AWS2	10.31	360	11.21	1	3.5	87	1.5	NA	NA	981.4	NA	NA		M	NA	NA	NA	NA
2018/03/04 14:53:00	AWS2	10.12	2	11.21	1	3.4	87	1.4	NA	NA	981.4	NA	NA		M	NA	NA	NA	NA
2018/03/04 14:54:00	AWS2	10.06	1	11.68	7	3.4	87	1.5	NA	NA	981.6	NA	NA		M	NA	NA	NA	NA
2018/03/04 14:55:00	AWS2	9.92	0	11.68	7	3.4	87	1.5	NA	NA	981.4	NA	NA		M	NA	NA	NA	NA
2018/03/04 14:56:00	AWS2	10.28	359	11.78	1	3.4	87	1.5	NA	NA	981.7	NA	NA		M	NA	NA	NA	NA
2018/03/04 14:57:00	AWS2	10.43	1	11.78	1	3.4	88	1.5	NA	NA	981.8	NA	NA		M	NA	NA	NA	NA
2018/03/04 14:58:00	AWS2	9.87	355	11.78	1	3.4	88	1.5	NA	NA	981.5	NA	NA		M	NA	NA	NA	NA
2018/03/04 14:59:00	AWS2	9.66	357	11.78	1	3.3	88	1.5	NA	NA	981.6	NA	NA		M	NA	NA	NA	NA
2018/03/04 15:00:00	AWS2	9.79	359	11.78	1	3.3	88	1.5	NA	NA	981.5	NA	NA		M	NA	NA	NA	NA
2018/03/04 15:01:00	AWS2	10.06	358	11.78	1	3.3	88	1.5	NA	NA	981.7	NA	NA		M	NA	NA	NA	NA
2018/03/04 15:02:00	AWS2	10.39	356	12.35	355	3.3	88	1.5	NA	NA	981.3	NA	NA		M	NA	NA	NA	NA
2018/03/04 15:03:00	AWS2	10.83	355	12.35	355	3.3	88	1.5	NA	NA	981.2	NA	NA		M	NA	NA	NA	NA
2018/03/04 15:04:00	AWS2	10.62	358	12.35	355	3.3	88	1.5	NA	NA	981.3	NA	NA		M	NA	NA	NA	NA
2018/03/04 15:05:00	AWS2	10.30	357	12.35	355	3.3	88	1.5	NA	NA	981.4	NA	NA		M	NA	NA	NA	NA
2018/03/04 15:06:00	AWS2	9.75	1	12.35	355	3.3	88	1.5	NA	NA	981.5	NA	NA		M	NA	NA	NA	NA
2018/03/04 15:07:00	AWS2	8.68	3	12.35	355	3.3	88	1.5	NA	NA	981.6	NA	NA		M	NA	NA	NA	NA
2018/03/04 15:08:00	AWS2	9.30	2	12.35	355	3.3	88	1.5	NA	NA	981.3	NA	NA		M	NA	NA	NA	NA
2018/03/04 15:09:00	AWS2	9.82	2	12.35	355	3.3	88	1.5	NA	NA	981.4	NA	NA		M	NA	NA	NA	NA
2018/03/04 15:10:00	AWS2	9.23	360	12.35	355	3.3	88	1.5	NA	NA	981.3	NA	NA		M	NA	NA	NA	NA
2018/03/04 15:11:00	AWS2	9.58	359	12.35	355	3.3	88	1.5	NA	NA	981.6	NA	NA		M	NA	NA	NA	NA
2018/03/04 15:12:00	AWS2	10.14	2	12.35	355	3.2	88	1.4	NA	NA	981.7	NA	NA		M	NA	NA	NA	NA
2018/03/04 15:13:00	AWS2	10.15	4	11.68	5	3.2	88	1.4	NA	NA	980.8	NA	NA		M	NA	NA	NA	NA
2018/03/04 15:14:00	AWS2	9.84	7	11.68	5	3.2	88	1.5	NA	NA	981.5	NA	NA		M	NA	NA	NA	NA
2018/03/04 15:15:00	AWS2	9.72	7	11.68	5	3.2	88	1.5	NA	NA	981.8	NA	NA		M	NA	NA	NA	NA
2018/03/04 15:16:00	AWS2	9.27	8	11.68	5	3.2	89	1.5	NA	NA	981.6	NA	NA		M	NA	NA	NA	NA
2018/03/04 15:17:00	AWS2	9.01	8	11.68	5	3.2	89	1.5	NA	NA	981.7	NA	NA		M	NA	NA	NA	NA
2018/03/04 15:18:00	AWS2	9.23	4	11.63	17	3.2	89	1.6	NA	NA	981.7	NA	NA		M	NA	NA	NA	NA
2018/03/04 15:19:00	AWS2	9.13	6	11.63	17	3.2	89	1.6	NA	NA	981.5	NA	NA		M	NA	NA	NA	NA
2018/03/04 15:20:00	AWS2	9.14	9	11.63	17	3.2	89	1.6	NA	NA	981.4	NA	NA		M	NA	NA	NA	NA
2018/03/04 15:21:00	AWS2	9.41	9	11.63	17	3.2	89	1.5	NA	NA	981.6	NA	NA		M	NA	NA	NA	NA
2018/03/04 15:22:00	AWS2	9.01	7	11.63	17	3.2	89	1.5	NA	NA	981.6	NA	NA		M	NA	NA	NA	NA
2018/03/04 15:23:00	AWS2	8.79	7	11.63	17	3.2	88	1.5	NA	NA	981.4	NA	NA		M	NA	NA	NA	NA
2018/03/04 15:24:00	AWS2	9.23	7	11.06	2	3.3	88	1.5	NA	NA	981.5	NA	NA		M	NA	NA	NA	NA
2018/03/04 15:25:00	AWS2	8.85	5	10.75	5	3.3	88	1.5	NA	NA	981.6	NA	NA		M	NA	NA	NA	NA
2018/03/04 15:26:00	AWS2	8.61	7	10.75	5	3.3	88	1.5	NA	NA	981.6	NA	NA		M	NA	NA	NA	NA
2018/03/04 15:27:00	AWS2	8.67	6	10.75	5	3.3	88	1.5	NA	NA	981.9	NA	NA		M	NA	NA	NA	NA
2018/03/04 15:28:00	AWS2	8.42	5	10.75	5	3.3	88	1.5	NA	NA	981.7	NA	NA		M	NA	NA	NA	NA
2018/03/04 15:29:00	AWS2	8.34	6	10.55	6	3.3	88	1.5	NA	NA	981.8	NA	NA		M	NA	NA	NA	NA
2018/03/04 15:30:00	AWS2	8.23	5	10.44	3	3.3	88	1.5	NA	NA	981.8	NA	NA		M	NA	NA	NA	NA
2018/03/04 15:31:00	AWS2	8.11	3	10.44	3	3.3	88	1.5	NA	NA	981.8	NA	NA		M	NA	NA	NA	NA
2018/03/04 15:32:00	AWS2	8.27	1	10.44	3	3.3	88	1.5	NA	NA	981.8	NA	NA		M	NA	NA	NA	NA
2018/03/04 15:33:00	AWS2	8.03	5	10.24	17	3.3	88	1.5	NA	NA	981.9	NA	NA		M	NA	NA	NA	NA
2018/03/04 15:34:00	AWS2	7.52	7	9.77	9	3.3	88	1.5	NA	NA	981.9	NA	NA		M	NA	NA	NA	NA
2018/03/04 15:35:00	AWS2	7.91	5	9.77	9	3.3	88	1.5	NA	NA	981.4	NA	NA		M	NA	NA	NA	NA
2018/03/04 15:36:00	AWS2	8.05	0	9.77	9	3.3	88	1.5	NA	NA	981.9	NA	NA		M	NA	NA	NA	NA
2018/03/04 15:37:00	AWS2	7.79	360	9.72	8	3.3	88	1.5	NA	NA	982.2	NA	NA		M	NA	NA	NA	NA
2018/03/04 15:38:00	AWS2	7.82	3	9.31	7	3.3	88	1.5	NA	NA	982.0	NA	NA		M	NA	NA	NA	NA
2018/03/04 15:39:00	AWS2	8.06	3	9.31	7	3.3	88	1.5	NA	NA	981.6	NA	NA		M	NA	NA	NA	NA
2018/03/04 15:40:00	AWS2	8.30	2	9.31	7	3.3	88	1.5	NA	NA	981.1	NA	NA		M	NA	NA	NA	NA
2018/03/04 15:41:00	AWS2	7.97	10	9.31	7	3.2	88	1.4	NA	NA	981.6	NA	NA		M	NA	NA	NA	NA
2018/03/04 15:42:00	AWS2	7.32	11	9.05	4	3.2	88	1.4	NA	NA	982.1	NA	NA		M	NA	NA	NA	NA
2018/03/04 15:43:00	AWS2	7.15	4	9.05	4	3.2	88	1.4	NA	NA	981.7	NA	NA		M	NA	NA	NA	NA
2018/03/04 15:44:00	AWS2	7.17	3	9.05	4	3.2	88	1.4	NA	NA	982.3	NA	NA		M	NA	NA	NA	NA
2018/03/04 15:45:00	AWS2	7.38	4	9.05	4	3.2	88	1.4	NA	NA	981.8	NA	NA		M	NA	NA	NA	NA
2018/03/04 15:46:00	AWS2	7.69	359	9.05	4	3.1	88	1.4	NA	NA	982.1	NA	NA		M	NA	NA	NA	NA
2018/03/04 15:47:00	AWS2	7.70	353	8.85	3	3.1	88	1.4	NA	NA	981.6	NA	NA		M	NA	NA	NA	NA
2018/03/04 15:48:00	AWS2	7.91	355	8.90	2	3.1	89	1.4	NA	NA	982.0	NA	NA		M	NA	NA	NA	NA
2018/03/04 15:49:00	AWS2	8.05	0	8.90	2	3.1	89	1.4	NA	NA	981.9	NA	NA		M	NA	NA	NA	NA
2018/03/04 15:50:00	AWS2	7.76	4	8.90	2	3.1	89	1.5	NA	NA	981.5	NA	NA		M	NA	NA	NA	NA
2018/03/04 15:51:00	AWS2	7.65	2	8.95	3	3.1	89	1.5	NA	NA	982.2	NA	NA		M	NA	NA	NA	NA
2018/03/04 15:52:00	AWS2	7.73	2	8.95	3	3.2	89	1.5	NA	NA	982.0	NA	NA		M	NA	NA	NA	NA
2018/03/04 15:53:00	AWS2	7.73	4	9.21	10	3.2	88	1.5	NA	NA	981.8	NA	NA		M	NA	NA	NA	NA
2018/03/04 15:54:00	AWS2	7.71	3	9.21	10	3.2	88	1.5	NA	NA	981.9	NA	NA		M	NA	NA	NA	NA
2018/03/04 15:55:00	AWS2	7.34	5	9.21	10	3.2	88	1.4	NA	NA	981.7	NA	NA		M	NA	NA	NA	NA
2018/03/04 15:56:00	AWS2	7.04	6	9.21	10	3.2	88	1.4	NA	NA	981.9	NA	NA		M	NA	NA	NA	NA
2018/03/04 15:57:00	AWS2	6.87	7	9.21	10	3.3	88	1.5	NA	NA	981.5	NA	NA		M	NA	NA	NA	NA
2018/03/04 15:58:00	AWS2	6.97	6	9.21	10	3.2	88	1.5	NA	NA	981.2	NA	NA		M	NA	NA	NA	NA
2018/03/04 15:59:00	AWS2	6.99	4	9.21	10	3.2	88	1.4	NA	NA	982.2	NA	NA		M	NA	NA	NA	NA
2018/03/04 16:00:00	AWS2	6.50	5	9.21	10	3.3	88	1.5	NA	NA	981.4	NA	NA		M	NA	NA	NA	NA
2018/03/04 16:01:00	AWS2	6.14	7	9.21	10	3.3	88	1.5	NA	NA	981.8	NA	NA		M	NA	NA	NA	NA
2018/03/04 16:02:00	AWS2	6.00	8	9.21	10	3.3	88	1.5	NA	NA	982.2	NA	NA		M	NA	NA	NA	NA
2018/03/04 16:03:00	AWS2	6.26	7	8.39	6	3.3	88	1.5	NA	NA	982.0	NA	NA		M	NA	NA	NA	NA
2018/03/04 16:04:00	AWS2	6.70	8	8.18	4	3.3	88	1.5	NA	NA	981.8	NA	NA		M	NA	NA	NA	NA
2018/03/04 16:05:00	AWS2	6.60	8	7.97	5	3.3	88	1.5	NA	NA	982.1	NA	NA		M	NA	NA	NA	NA
2018/03/04 16:06:00	AWS2	7.07	5	8.59	2	3.4	88	1.5	NA	NA	981.8	NA	NA		M	NA	NA	NA	NA
2018/03/04 16:07:00	AWS2	7.56	6	8.59	2	3.4	88	1.5	NA	NA	982.1	NA	NA		M	NA	NA	NA	NA
2018/03/04 16:08:00	AWS2	7.56	5	8.80	8	3.4	87	1.5	NA	NA	981.4	NA	NA		M	NA	NA	NA	NA
2018/03/04 16:09:00	AWS2	7.84	4	8.80	8	3.4	87	1.4	NA	NA	981.9	NA	NA		M	NA	NA	NA	NA
2018/03/04 16:10:00	AWS2	7.86	4	8.80	8	3.3	87	1.4	NA	NA	982.3	NA	NA		M	NA	NA	NA	NA
2018/03/04 16:11:00	AWS2	7.80	2	9.05	1	3.3	87	1.4	NA	NA	982.3	NA	NA		M	NA	NA	NA	NA
2018/03/04 16:12:00	AWS2	7.79	2	9.05	1	3.3	87	1.3	NA	NA	982.4	NA	NA		M	NA	NA	NA	NA
2018/03/04 16:13:00	AWS2	7.56	7	9.05	1	3.3	87	1.3	NA	NA	981.9	NA	NA		M	NA	NA	NA	NA
2018/03/04 16:14:00	AWS2	6.95	12	9.05	1	3.3	87	1.3	NA	NA	982.1	NA	NA		M	NA	NA	NA	NA
2018/03/04 16:15:00	AWS2	6.97	13	9.05	1	3.2	87	1.3	NA	NA	982.3	NA	NA		M	NA	NA	NA	NA
2018/03/04 16:16:00	AWS2	7.18	11	9.05	1	3.2	88	1.4	NA	NA	982.2	NA	NA		M	NA	NA	NA	NA
2018/03/04 16:17:00	AWS2	6.89	11	9.05	1	3.2	88	1.4	NA	NA	982.3	NA	NA		M	NA	NA	NA	NA
2018/03/04 16:18:00	AWS2	7.07	6	9.05	1	3.2	88	1.4	NA	NA	982.0	NA	NA		M	NA	NA	NA	NA
2018/03/04 16:19:00	AWS2	7.79	4	9.31	16	3.2	88	1.4	NA	NA	982.1	NA	NA		M	NA	NA	NA	NA
2018/03/04 16:20:00	AWS2	8.08	6	9.31	16	3.2	88	1.4	NA	NA	982.0	NA	NA		M	NA	NA	NA	NA
2018/03/04 16:21:00	AWS2	7.89	9	9.31	15	3.2	88	1.4	NA	NA	982.1	NA	NA		M	NA	NA	NA	NA
2018/03/04 16:22:00	AWS2	7.85	13	9.31	15	3.2	88	1.4	NA	NA	982.1	NA	NA		M	NA	NA	NA	NA
2018/03/04 16:23:00	AWS2	7.77	16	9.31	15	3.2	88	1.4	NA	NA	981.9	NA	NA		M	NA	NA	NA	NA
2018/03/04 16:24:00	AWS2	7.89	16	9.31	15	3.2	88	1.4	NA	NA	982.1	NA	NA		M	NA	NA	NA	NA
2018/03/04 16:25:00	AWS2	7.68	13	9.31	15	3.2	88	1.4	NA	NA	982.3	NA	NA		M	NA	NA	NA	NA
2018/03/04 16:26:00	AWS2	7.45	13	9.31	15	3.2	88	1.4	NA	NA	981.8	NA	NA		M	NA	NA	NA	NA
2018/03/04 16:27:00	AWS2	7.68	16	9.31	15	3.2	88	1.4	NA	NA	981.9	NA	NA		M	NA	NA	NA	NA
2018/03/04 16:28:00	AWS2	7.50	16	9.31	15	3.2	88	1.4	NA	NA	982.4	NA	NA		M	NA	NA	NA	NA
2018/03/04 16:29:00	AWS2	7.17	16	9.31	15	3.2	88	1.4	NA	NA	982.1	NA	NA		M	NA	NA	NA	NA
2018/03/04 16:30:00	AWS2	7.17	18	9.31	15	3.2	88	1.4	NA	NA	982.2	NA	NA		M	NA	NA	NA	NA
2018/03/04 16:31:00	AWS2	6.85	16	9.05	19	3.2	88	1.4	NA	NA	982.3	NA	NA		M	NA	NA	NA	NA
2018/03/04 16:32:00	AWS2	6.35	12	9.05	19	3.2	88	1.4	NA	NA	982.3	NA	NA		M	NA	NA	NA	NA
2018/03/04 16:33:00	AWS2	6.30	11	8.95	8	3.2	88	1.4	NA	NA	982.3	NA	NA		M	NA	NA	NA	NA
2018/03/04 16:34:00	AWS2	6.24	9	8.69	20	3.2	88	1.4	NA	NA	982.3	NA	NA		M	NA	NA	NA	NA
2018/03/04 16:35:00	AWS2	6.27	10	8.69	20	3.2	88	1.4	NA	NA	982.1	NA	NA		M	NA	NA	NA	NA
2018/03/04 16:36:00	AWS2	6.15	7	8.69	20	3.2	88	1.4	NA	NA	982.4	NA	NA		M	NA	NA	NA	NA
2018/03/04 16:37:00	AWS2	5.70	5	8.08	21	3.2	88	1.4	NA	NA	982.6	NA	NA		M	NA	NA	NA	NA
2018/03/04 16:38:00	AWS2	5.47	6	8.08	21	3.2	88	1.4	NA	NA	982.2	NA	NA		M	NA	NA	NA	NA
2018/03/04 16:39:00	AWS2	6.02	8	8.08	21	3.2	88	1.4	NA	NA	982.3	NA	NA		M	NA	NA	NA	NA
2018/03/04 16:40:00	AWS2	6.80	1	7.67	12	3.2	88	1.4	NA	NA	982.4	NA	NA		M	NA	NA	NA	NA
2018/03/04 16:41:00	AWS2	7.29	357	8.54	5	3.2	88	1.4	NA	NA	982.3	NA	NA		M	NA	NA	NA	NA
2018/03/04 16:42:00	AWS2	7.47	359	8.54	5	3.3	88	1.4	NA	NA	982.1	NA	NA		M	NA	NA	NA	NA
2018/03/04 16:43:00	AWS2	7.42	0	8.54	5	3.3	87	1.4	NA	NA	982.6	NA	NA		M	NA	NA	NA	NA
2018/03/04 16:44:00	AWS2	7.94	2	8.95	5	3.3	87	1.3	NA	NA	982.0	NA	NA		M	NA	NA	NA	NA
2018/03/04 16:45:00	AWS2	8.17	1	8.95	352	3.3	86	1.3	NA	NA	982.1	NA	NA		M	NA	NA	NA	NA
2018/03/04 16:46:00	AWS2	8.10	355	8.95	303	3.3	86	1.2	NA	NA	982.5	NA	NA		M	NA	NA	NA	NA
2018/03/04 16:47:00	AWS2	8.43	349	9.21	350	3.3	86	1.2	NA	NA	982.2	NA	NA		M	NA	NA	NA	NA
2018/03/04 16:48:00	AWS2	8.68	355	9.36	352	3.3	86	1.2	NA	NA	982.1	NA	NA		M	NA	NA	NA	NA
2018/03/04 16:49:00	AWS2	8.65	357	9.36	352	3.4	86	1.2	NA	NA	982.0	NA	NA		M	NA	NA	NA	NA
2018/03/04 16:50:00	AWS2	8.45	354	9.36	352	3.4	86	1.3	NA	NA	981.9	NA	NA		M	NA	NA	NA	NA
2018/03/04 16:51:00	AWS2	8.32	358	9.36	352	3.4	86	1.3	NA	NA	982.4	NA	NA		M	NA	NA	NA	NA
2018/03/04 16:52:00	AWS2	8.29	2	9.36	352	3.4	86	1.3	NA	NA	982.0	NA	NA		M	NA	NA	NA	NA
2018/03/04 16:53:00	AWS2	8.46	359	9.36	352	3.4	86	1.3	NA	NA	981.7	NA	NA		M	NA	NA	NA	NA
2018/03/04 16:54:00	AWS2	8.51	356	9.36	352	3.4	86	1.3	NA	NA	982.1	NA	NA		M	NA	NA	NA	NA
2018/03/04 16:55:00	AWS2	8.02	1	9.36	352	3.4	86	1.3	NA	NA	982.2	NA	NA		M	NA	NA	NA	NA
2018/03/04 16:56:00	AWS2	7.67	2	9.36	352	3.4	86	1.3	NA	NA	982.1	NA	NA		M	NA	NA	NA	NA
2018/03/04 16:57:00	AWS2	7.55	2	9.36	352	3.4	86	1.3	NA	NA	982.0	NA	NA		M	NA	NA	NA	NA
2018/03/04 16:58:00	AWS2	7.15	4	9.26	1	3.4	87	1.4	NA	NA	982.0	NA	NA		M	NA	NA	NA	NA
2018/03/04 16:59:00	AWS2	6.76	4	9.26	1	3.4	87	1.4	NA	NA	982.0	NA	NA		M	NA	NA	NA	NA
2018/03/04 17:00:00	AWS2	7.03	1	9.26	1	3.4	87	1.4	NA	NA	982.0	NA	NA		M	NA	NA	NA	NA
2018/03/04 17:01:00	AWS2	7.37	357	9.26	1	3.4	87	1.4	NA	NA	982.3	NA	NA		M	NA	NA	NA	NA
2018/03/04 17:02:00	AWS2	7.31	351	9.26	1	3.4	87	1.4	NA	NA	982.2	NA	NA		M	NA	NA	NA	NA
2018/03/04 17:03:00	AWS2	7.40	358	8.90	2	3.4	87	1.4	NA	NA	982.1	NA	NA		M	NA	NA	NA	NA
2018/03/04 17:04:00	AWS2	7.22	2	8.54	10	3.4	87	1.4	NA	NA	982.1	NA	NA		M	NA	NA	NA	NA
2018/03/04 17:05:00	AWS2	6.94	2	8.54	10	3.4	87	1.4	NA	NA	982.0	NA	NA		M	NA	NA	NA	NA
2018/03/04 17:06:00	AWS2	7.10	6	8.54	10	3.4	87	1.4	NA	NA	981.9	NA	NA		M	NA	NA	NA	NA
2018/03/04 17:07:00	AWS2	6.92	5	8.08	5	3.4	87	1.4	NA	NA	982.1	NA	NA		M	NA	NA	NA	NA
2018/03/04 17:08:00	AWS2	6.50	3	8.08	5	3.4	87	1.5	NA	NA	982.3	NA	NA		M	NA	NA	NA	NA
2018/03/04 17:09:00	AWS2	6.66	359	8.08	5	3.4	87	1.5	NA	NA	982.2	NA	NA		M	NA	NA	NA	NA
2018/03/04 17:10:00	AWS2	6.81	2	8.08	5	3.5	87	1.5	NA	NA	982.1	NA	NA		M	NA	NA	NA	NA
2018/03/04 17:11:00	AWS2	6.24	8	8.08	5	3.5	87	1.5	NA	NA	982.3	NA	NA		M	NA	NA	NA	NA
2018/03/04 17:12:00	AWS2	5.81	8	7.92	149	3.5	87	1.5	NA	NA	982.4	NA	NA		M	NA	NA	NA	NA
2018/03/04 17:13:00	AWS2	5.99	12	7.72	10	3.5	87	1.5	NA	NA	982.1	NA	NA		M	NA	NA	NA	NA
2018/03/04 17:14:00	AWS2	6.22	3	7.72	10	3.5	87	1.5	NA	NA	982.1	NA	NA		M	NA	NA	NA	NA
2018/03/04 17:15:00	AWS2	6.13	357	7.72	10	3.5	87	1.5	NA	NA	982.3	NA	NA		M	NA	NA	NA	NA
2018/03/04 17:16:00	AWS2	5.87	4	7.72	10	3.5	87	1.5	NA	NA	982.2	NA	NA		M	NA	NA	NA	NA
2018/03/04 17:17:00	AWS2	5.98	1	7.72	10	3.5	86	1.5	NA	NA	982.1	NA	NA		M	NA	NA	NA	NA
2018/03/04 17:18:00	AWS2	5.85	354	7.72	10	3.5	86	1.4	NA	NA	982.3	NA	NA		M	NA	NA	NA	NA
2018/03/04 17:19:00	AWS2	5.79	353	7.51	4	3.5	86	1.4	NA	NA	982.1	NA	NA		M	NA	NA	NA	NA
2018/03/04 17:20:00	AWS2	6.13	355	7.20	349	3.6	86	1.4	NA	NA	982.2	NA	NA		M	NA	NA	NA	NA
2018/03/04 17:21:00	AWS2	6.34	355	7.20	349	3.6	86	1.4	NA	NA	982.2	NA	NA		M	NA	NA	NA	NA
2018/03/04 17:22:00	AWS2	6.44	359	7.20	349	3.6	85	1.4	NA	NA	982.3	NA	NA		M	NA	NA	NA	NA
2018/03/04 17:23:00	AWS2	6.20	360	7.20	349	3.7	85	1.3	NA	NA	981.7	NA	NA		M	NA	NA	NA	NA
2018/03/04 17:24:00	AWS2	6.16	351	7.15	2	3.7	84	1.3	NA	NA	982.1	NA	NA		M	NA	NA	NA	NA
2018/03/04 17:25:00	AWS2	6.18	344	7.15	2	3.7	84	1.2	NA	NA	981.8	NA	NA		M	NA	NA	NA	NA
2018/03/04 17:26:00	AWS2	5.93	348	7.15	2	3.7	83	1.2	NA	NA	982.5	NA	NA		M	NA	NA	NA	NA
2018/03/04 17:27:00	AWS2	6.02	351	7.15	2	3.7	83	1.1	NA	NA	982.2	NA	NA		M	NA	NA	NA	NA
2018/03/04 17:28:00	AWS2	6.11	346	7.15	2	3.7	83	1.0	NA	NA	982.2	NA	NA		M	NA	NA	NA	NA
2018/03/04 17:29:00	AWS2	5.93	349	7.15	2	3.6	83	1.1	NA	NA	982.3	NA	NA		M	NA	NA	NA	NA
2018/03/04 17:30:00	AWS2	5.94	350	7.41	210	3.6	83	1.1	NA	NA	982.3	NA	NA		M	NA	NA	NA	NA
2018/03/04 17:31:00	AWS2	5.81	347	7.41	210	3.6	84	1.1	NA	NA	981.9	NA	NA		M	NA	NA	NA	NA
2018/03/04 17:32:00	AWS2	6.08	351	7.41	210	3.6	84	1.1	NA	NA	981.8	NA	NA		M	NA	NA	NA	NA
2018/03/04 17:33:00	AWS2	6.61	351	7.41	210	3.6	84	1.2	NA	NA	982.5	NA	NA		M	NA	NA	NA	NA
2018/03/04 17:34:00	AWS2	6.49	348	7.41	210	3.6	84	1.1	NA	NA	982.0	NA	NA		M	NA	NA	NA	NA
2018/03/04 17:35:00	AWS2	5.84	349	7.41	210	3.6	84	1.1	NA	NA	982.1	NA	NA		M	NA	NA	NA	NA
2018/03/04 17:36:00	AWS2	5.86	352	7.41	210	3.6	83	1.1	NA	NA	982.2	NA	NA		M	NA	NA	NA	NA
2018/03/04 17:37:00	AWS2	6.30	352	7.41	210	3.7	83	1.1	NA	NA	982.0	NA	NA		M	NA	NA	NA	NA
2018/03/04 17:38:00	AWS2	6.44	356	7.41	210	3.7	83	1.1	NA	NA	982.0	NA	NA		M	NA	NA	NA	NA
2018/03/04 17:39:00	AWS2	7.09	358	8.28	321	3.7	84	1.1	NA	NA	981.6	NA	NA		M	NA	NA	NA	NA
2018/03/04 17:40:00	AWS2	8.10	354	9.52	1	3.7	84	1.2	NA	NA	982.1	NA	NA		M	NA	NA	NA	NA
2018/03/04 17:41:00	AWS2	8.16	351	9.52	1	3.7	84	1.2	NA	NA	982.0	NA	NA		M	NA	NA	NA	NA
2018/03/04 17:42:00	AWS2	7.80	350	9.52	1	3.7	84	1.2	NA	NA	981.1	NA	NA		M	NA	NA	NA	NA
2018/03/04 17:43:00	AWS2	7.49	343	9.52	1	3.7	83	1.1	NA	NA	982.0	NA	NA		M	NA	NA	NA	NA
2018/03/04 17:44:00	AWS2	7.11	341	9.52	1	3.6	83	1.1	NA	NA	981.8	NA	NA		M	NA	NA	NA	NA
2018/03/04 17:45:00	AWS2	7.90	351	9.98	354	3.6	83	1.0	NA	NA	982.1	NA	NA		M	NA	NA	NA	NA
2018/03/04 17:46:00	AWS2	7.38	353	9.98	354	3.6	83	1.0	NA	NA	982.2	NA	NA		M	NA	NA	NA	NA
2018/03/04 17:47:00	AWS2	6.53	349	9.98	354	3.5	84	1.0	NA	NA	981.8	NA	NA		M	NA	NA	NA	NA
2018/03/04 17:48:00	AWS2	7.24	349	9.98	354	3.5	84	1.0	NA	NA	981.8	NA	NA		M	NA	NA	NA	NA
2018/03/04 17:49:00	AWS2	7.88	349	9.98	354	3.4	84	1.0	NA	NA	981.9	NA	NA		M	NA	NA	NA	NA
2018/03/04 17:50:00	AWS2	8.34	350	9.98	354	3.4	84	1.0	NA	NA	981.8	NA	NA		M	NA	NA	NA	NA
2018/03/04 17:51:00	AWS2	9.04	347	11.11	4	3.4	85	1.0	NA	NA	981.9	NA	NA		M	NA	NA	NA	NA
2018/03/04 17:52:00	AWS2	9.52	346	11.11	4	3.3	85	1.1	NA	NA	981.7	NA	NA		M	NA	NA	NA	NA
2018/03/04 17:53:00	AWS2	9.33	353	11.16	1	3.3	86	1.1	NA	NA	981.7	NA	NA		M	NA	NA	NA	NA
2018/03/04 17:54:00	AWS2	9.63	354	11.63	349	3.3	86	1.1	NA	NA	981.4	NA	NA		M	NA	NA	NA	NA
2018/03/04 17:55:00	AWS2	9.59	350	11.63	349	3.2	86	1.1	NA	NA	981.6	NA	NA		M	NA	NA	NA	NA
2018/03/04 17:56:00	AWS2	9.06	350	11.63	349	3.2	86	1.1	NA	NA	981.9	NA	NA		M	NA	NA	NA	NA
2018/03/04 17:57:00	AWS2	9.26	352	11.63	349	3.2	86	1.1	NA	NA	980.8	NA	NA		M	NA	NA	NA	NA
2018/03/04 17:58:00	AWS2	9.33	351	11.63	349	3.2	87	1.1	NA	NA	982.1	NA	NA		M	NA	NA	NA	NA
2018/03/04 17:59:00	AWS2	9.43	349	11.63	349	3.1	87	1.2	NA	NA	981.9	NA	NA		M	NA	NA	NA	NA
2018/03/04 18:00:00	AWS2	9.84	350	11.63	349	3.1	87	1.2	NA	NA	981.6	NA	NA		M	NA	NA	NA	NA
2018/03/04 18:01:00	AWS2	9.64	353	11.63	349	3.1	87	1.2	NA	NA	981.9	NA	NA		M	NA	NA	NA	NA
2018/03/04 18:02:00	AWS2	9.44	353	11.63	349	3.1	88	1.2	NA	NA	981.4	NA	NA		M	NA	NA	NA	NA
2018/03/04 18:03:00	AWS2	9.77	353	11.63	349	3.1	88	1.3	NA	NA	981.3	NA	NA		M	NA	NA	NA	NA
2018/03/04 18:04:00	AWS2	10.28	359	11.42	349	3.1	88	1.3	NA	NA	980.9	NA	NA		M	NA	NA	NA	NA
2018/03/04 18:05:00	AWS2	10.61	360	11.42	349	3.0	88	1.2	NA	NA	982.0	NA	NA		M	NA	NA	NA	NA
2018/03/04 18:06:00	AWS2	10.11	353	11.42	349	3.0	88	1.3	NA	NA	981.2	NA	NA		M	NA	NA	NA	NA
2018/03/04 18:07:00	AWS2	9.48	350	11.42	349	3.0	88	1.3	NA	NA	982.0	NA	NA		M	NA	NA	NA	NA
2018/03/04 18:08:00	AWS2	9.49	350	11.42	349	3.0	89	1.3	NA	NA	981.7	NA	NA		M	NA	NA	NA	NA
2018/03/04 18:09:00	AWS2	9.35	351	11.42	349	3.0	89	1.3	NA	NA	981.6	NA	NA		M	NA	NA	NA	NA
2018/03/04 18:10:00	AWS2	9.28	351	11.42	349	3.0	89	1.3	NA	NA	981.6	NA	NA		M	NA	NA	NA	NA
2018/03/04 18:11:00	AWS2	9.31	351	11.42	349	3.0	89	1.3	NA	NA	981.6	NA	NA		M	NA	NA	NA	NA
2018/03/04 18:12:00	AWS2	9.18	351	11.42	349	2.9	89	1.3	NA	NA	981.5	NA	NA		M	NA	NA	NA	NA
2018/03/04 18:13:00	AWS2	9.17	356	11.42	349	2.9	89	1.4	NA	NA	981.8	NA	NA		M	NA	NA	NA	NA
2018/03/04 18:14:00	AWS2	9.60	2	11.32	348	2.9	90	1.4	NA	NA	981.5	NA	NA		M	NA	NA	NA	NA
2018/03/04 18:15:00	AWS2	10.20	358	11.52	350	2.9	90	1.4	NA	NA	981.9	NA	NA		M	NA	NA	NA	NA
2018/03/04 18:16:00	AWS2	9.91	353	11.52	350	2.9	90	1.4	NA	NA	982.1	NA	NA		M	NA	NA	NA	NA
2018/03/04 18:17:00	AWS2	9.62	354	11.52	350	2.9	90	1.4	NA	NA	981.4	NA	NA		M	NA	NA	NA	NA
2018/03/04 18:18:00	AWS2	9.94	4	11.52	350	2.8	91	1.4	NA	NA	981.0	NA	NA		M	NA	NA	NA	NA
2018/03/04 18:19:00	AWS2	10.79	5	12.60	1	2.8	91	1.4	NA	NA	980.5	NA	NA		M	NA	NA	NA	NA
2018/03/04 18:20:00	AWS2	11.24	358	12.60	1	2.8	91	1.5	NA	NA	981.8	NA	NA		M	NA	NA	NA	NA
2018/03/04 18:21:00	AWS2	10.99	358	12.60	1	2.7	91	1.5	NA	NA	981.6	NA	NA		M	NA	NA	NA	NA
2018/03/04 18:22:00	AWS2	11.02	358	12.60	1	2.7	92	1.4	NA	NA	980.8	NA	NA		M	NA	NA	NA	NA
2018/03/04 18:23:00	AWS2	11.13	358	12.60	1	2.6	92	1.4	NA	NA	981.6	NA	NA		M	NA	NA	NA	NA
2018/03/04 18:24:00	AWS2	11.31	358	12.81	354	2.6	92	1.5	NA	NA	981.4	NA	NA		M	NA	NA	NA	NA
2018/03/04 18:25:00	AWS2	10.92	358	12.81	354	2.6	92	1.5	NA	NA	981.4	NA	NA		M	NA	NA	NA	NA
2018/03/04 18:26:00	AWS2	10.67	359	12.81	354	2.6	93	1.5	NA	NA	981.1	NA	NA		M	NA	NA	NA	NA
2018/03/04 18:27:00	AWS2	10.72	359	12.81	354	2.6	93	1.6	NA	NA	981.5	NA	NA		M	NA	NA	NA	NA
2018/03/04 18:28:00	AWS2	10.94	360	12.81	354	2.6	93	1.6	NA	NA	981.4	NA	NA		M	NA	NA	NA	NA
2018/03/04 18:29:00	AWS2	11.01	2	12.81	354	2.6	93	1.6	NA	NA	981.6	NA	NA		M	NA	NA	NA	NA
2018/03/04 18:30:00	AWS2	11.16	359	12.81	354	2.6	93	1.6	NA	NA	981.7	NA	NA		M	NA	NA	NA	NA
2018/03/04 18:31:00	AWS2	11.09	356	12.81	354	2.6	93	1.6	NA	NA	981.9	NA	NA		M	NA	NA	NA	NA
2018/03/04 18:32:00	AWS2	10.36	355	12.81	354	2.6	94	1.7	NA	NA	981.7	NA	NA		M	NA	NA	NA	NA
2018/03/04 18:33:00	AWS2	10.30	358	12.81	354	2.6	94	1.7	NA	NA	981.5	NA	NA		M	NA	NA	NA	NA
2018/03/04 18:34:00	AWS2	10.42	4	12.76	3	2.6	94	1.7	NA	NA	981.7	NA	NA		M	NA	NA	NA	NA
2018/03/04 18:35:00	AWS2	10.32	7	12.76	3	2.5	94	1.7	NA	NA	981.4	NA	NA		M	NA	NA	NA	NA
2018/03/04 18:36:00	AWS2	9.86	9	12.76	3	2.5	94	1.7	NA	NA	982.0	NA	NA		M	NA	NA	NA	NA
2018/03/04 18:37:00	AWS2	9.14	8	12.76	3	2.5	95	1.7	NA	NA	982.1	NA	NA		M	NA	NA	NA	NA
2018/03/04 18:38:00	AWS2	8.63	7	12.24	1	2.5	95	1.8	NA	NA	981.9	NA	NA		M	NA	NA	NA	NA
2018/03/04 18:39:00	AWS2	8.98	9	12.24	1	2.5	95	1.8	NA	NA	982.1	NA	NA		M	NA	NA	NA	NA
2018/03/04 18:40:00	AWS2	8.97	9	11.42	354	2.5	95	1.9	NA	NA	982.1	NA	NA		M	NA	NA	NA	NA
2018/03/04 18:41:00	AWS2	8.27	8	11.42	354	2.5	96	1.9	NA	NA	982.3	NA	NA		M	NA	NA	NA	NA
2018/03/04 18:42:00	AWS2	8.11	8	11.32	2	2.6	96	2.0	NA	NA	982.4	NA	NA		M	NA	NA	NA	NA
2018/03/04 18:43:00	AWS2	7.94	6	11.32	2	2.6	96	2.0	NA	NA	982.3	NA	NA		M	NA	NA	NA	NA
2018/03/04 18:44:00	AWS2	7.69	357	11.11	15	2.6	96	2.0	NA	NA	982.4	NA	NA		M	NA	NA	NA	NA
2018/03/04 18:45:00	AWS2	7.76	357	11.11	15	2.6	96	2.0	NA	NA	982.2	NA	NA		M	NA	NA	NA	NA
2018/03/04 18:46:00	AWS2	8.04	3	11.11	15	2.6	96	2.0	NA	NA	982.5	NA	NA		M	NA	NA	NA	NA
2018/03/04 18:47:00	AWS2	8.02	7	11.11	15	2.6	96	2.0	NA	NA	982.0	NA	NA		M	NA	NA	NA	NA
2018/03/04 18:48:00	AWS2	7.79	6	11.11	15	2.6	95	1.9	NA	NA	982.3	NA	NA		M	NA	NA	NA	NA
2018/03/04 18:49:00	AWS2	7.70	3	9.36	1	2.6	95	1.9	NA	NA	982.3	NA	NA		M	NA	NA	NA	NA
2018/03/04 18:50:00	AWS2	7.32	3	9.36	1	2.6	95	1.9	NA	NA	982.2	NA	NA		M	NA	NA	NA	NA
2018/03/04 18:51:00	AWS2	6.99	1	9.31	4	2.7	95	1.9	NA	NA	982.3	NA	NA		M	NA	NA	NA	NA
2018/03/04 18:52:00	AWS2	7.55	2	9.31	4	2.7	95	2.0	NA	NA	982.2	NA	NA		M	NA	NA	NA	NA
2018/03/04 18:53:00	AWS2	8.19	5	10.03	12	2.7	95	2.0	NA	NA	982.4	NA	NA		M	NA	NA	NA	NA
2018/03/04 18:54:00	AWS2	8.38	6	10.03	12	2.7	95	2.0	NA	NA	982.4	NA	NA		M	NA	NA	NA	NA
2018/03/04 18:55:00	AWS2	8.33	10	10.03	12	2.8	95	2.0	NA	NA	982.1	NA	NA		M	NA	NA	NA	NA
2018/03/04 18:56:00	AWS2	8.29	13	10.03	12	2.8	95	2.1	NA	NA	982.2	NA	NA		M	NA	NA	NA	NA
2018/03/04 18:57:01	AWS2	8.25	15	10.03	12	2.9	95	2.1	NA	NA	982.0	NA	NA		M	NA	NA	NA	NA
2018/03/04 18:58:01	AWS2	8.27	15	10.60	20	2.9	95	2.2	NA	NA	982.0	NA	NA		M	NA	NA	NA	NA
2018/03/04 18:59:01	AWS2	8.07	16	10.60	20	2.9	95	2.2	NA	NA	981.9	NA	NA		M	NA	NA	NA	NA
2018/03/04 19:00:01	AWS2	7.96	19	10.60	20	3.0	95	2.2	NA	NA	982.1	NA	NA		M	NA	NA	NA	NA
2018/03/04 19:01:01	AWS2	8.46	17	10.60	20	3.0	95	2.3	NA	NA	982.1	NA	NA		M	NA	NA	NA	NA
2018/03/04 19:02:01	AWS2	8.86	17	10.60	20	3.0	95	2.2	NA	NA	981.9	NA	NA		M	NA	NA	NA	NA
2018/03/04 19:03:01	AWS2	8.82	20	10.60	20	3.0	95	2.2	NA	NA	982.0	NA	NA		M	NA	NA	NA	NA
2018/03/04 19:04:01	AWS2	8.66	21	10.60	20	2.9	95	2.2	NA	NA	982.0	NA	NA		M	NA	NA	NA	NA
2018/03/04 19:05:01	AWS2	9.00	20	10.60	20	2.9	95	2.2	NA	NA	981.7	NA	NA		M	NA	NA	NA	NA
2018/03/04 19:06:01	AWS2	9.34	18	10.60	20	2.9	95	2.2	NA	NA	981.8	NA	NA		M	NA	NA	NA	NA
2018/03/04 19:07:01	AWS2	9.29	19	10.60	20	2.9	95	2.2	NA	NA	982.0	NA	NA		M	NA	NA	NA	NA
2018/03/04 19:08:01	AWS2	8.87	21	10.24	18	2.9	95	2.1	NA	NA	982.1	NA	NA		M	NA	NA	NA	NA
2018/03/04 19:09:01	AWS2	8.89	23	10.24	18	2.9	95	2.1	NA	NA	981.8	NA	NA		M	NA	NA	NA	NA
2018/03/04 19:10:01	AWS2	9.48	21	10.75	7	2.9	94	2.1	NA	NA	981.8	NA	NA		M	NA	NA	NA	NA
2018/03/04 19:11:01	AWS2	9.25	20	10.75	7	2.9	94	2.1	NA	NA	981.9	NA	NA		M	NA	NA	NA	NA
2018/03/04 19:12:01	AWS2	9.03	22	10.75	7	2.9	94	2.0	NA	NA	981.7	NA	NA		M	NA	NA	NA	NA
2018/03/04 19:13:01	AWS2	9.37	21	10.75	7	2.9	94	2.0	NA	NA	981.7	NA	NA		M	NA	NA	NA	NA
2018/03/04 19:14:01	AWS2	9.16	19	10.75	7	2.9	94	2.0	NA	NA	981.7	NA	NA		M	NA	NA	NA	NA
2018/03/04 19:15:01	AWS2	8.83	19	10.75	7	2.9	94	2.0	NA	NA	981.7	NA	NA		M	NA	NA	NA	NA
2018/03/04 19:16:01	AWS2	8.70	18	10.75	7	2.9	94	2.0	NA	NA	981.9	NA	NA		M	NA	NA	NA	NA
2018/03/04 19:17:01	AWS2	8.50	18	10.75	7	2.9	94	2.0	NA	NA	981.9	NA	NA		M	NA	NA	NA	NA
2018/03/04 19:18:01	AWS2	8.81	21	10.75	7	2.9	93	1.9	NA	NA	981.7	NA	NA		M	NA	NA	NA	NA
2018/03/04 19:19:01	AWS2	9.47	20	10.75	7	2.9	93	1.9	NA	NA	981.6	NA	NA		M	NA	NA	NA	NA
2018/03/04 19:20:01	AWS2	9.67	18	10.24	20	2.9	93	1.9	NA	NA	981.7	NA	NA		M	NA	NA	NA	NA
2018/03/04 19:21:01	AWS2	9.03	23	10.24	20	2.9	93	1.8	NA	NA	981.8	NA	NA		M	NA	NA	NA	NA
2018/03/04 19:22:01	AWS2	8.36	22	10.24	20	2.9	92	1.8	NA	NA	981.9	NA	NA		M	NA	NA	NA	NA
2018/03/04 19:23:01	AWS2	8.12	20	10.24	20	2.9	92	1.8	NA	NA	981.8	NA	NA		M	NA	NA	NA	NA
2018/03/04 19:24:01	AWS2	8.16	20	10.24	20	2.9	92	1.8	NA	NA	981.8	NA	NA		M	NA	NA	NA	NA
2018/03/04 19:25:01	AWS2	8.46	20	10.24	20	2.9	93	1.8	NA	NA	981.7	NA	NA		M	NA	NA	NA	NA
2018/03/04 19:26:01	AWS2	8.75	19	10.24	20	2.9	93	1.9	NA	NA	981.7	NA	NA		M	NA	NA	NA	NA
2018/03/04 19:27:01	AWS2	8.30	14	10.24	20	2.9	93	1.9	NA	NA	981.9	NA	NA		M	NA	NA	NA	NA
2018/03/04 19:28:01	AWS2	7.82	16	10.24	20	2.9	93	1.9	NA	NA	981.9	NA	NA		M	NA	NA	NA	NA
2018/03/04 19:29:01	AWS2	8.01	19	10.19	20	3.0	93	1.9	NA	NA	981.9	NA	NA		M	NA	NA	NA	NA
2018/03/04 19:30:01	AWS2	7.93	18	9.62	16	3.0	93	2.0	NA	NA	981.8	NA	NA		M	NA	NA	NA	NA
2018/03/04 19:31:01	AWS2	7.77	16	9.62	16	3.1	93	2.0	NA	NA	982.0	NA	NA		M	NA	NA	NA	NA
2018/03/04 19:32:01	AWS2	7.98	17	9.62	16	3.1	92	2.0	NA	NA	982.0	NA	NA		M	NA	NA	NA	NA
2018/03/04 19:33:01	AWS2	8.24	15	9.62	16	3.1	92	1.9	NA	NA	981.8	NA	NA		M	NA	NA	NA	NA
2018/03/04 19:34:01	AWS2	8.34	14	9.62	16	3.1	92	1.9	NA	NA	981.8	NA	NA		M	NA	NA	NA	NA
2018/03/04 19:35:01	AWS2	8.59	16	9.88	19	3.1	91	1.9	NA	NA	981.7	NA	NA		M	NA	NA	NA	NA
2018/03/04 19:36:01	AWS2	8.75	17	9.88	19	3.2	91	1.9	NA	NA	981.7	NA	NA		M	NA	NA	NA	NA
2018/03/04 19:37:01	AWS2	8.44	19	10.19	13	3.2	91	1.8	NA	NA	981.9	NA	NA		M	NA	NA	NA	NA
2018/03/04 19:38:01	AWS2	8.26	18	10.19	13	3.2	91	1.9	NA	NA	981.9	NA	NA		M	NA	NA	NA	NA
2018/03/04 19:39:01	AWS2	8.13	16	10.19	13	3.2	91	1.9	NA	NA	982.0	NA	NA		M	NA	NA	NA	NA
2018/03/04 19:40:01	AWS2	7.96	15	10.19	9	3.2	92	2.0	NA	NA	981.8	NA	NA		M	NA	NA	NA	NA
2018/03/04 19:41:01	AWS2	8.39	14	10.19	9	3.2	92	2.0	NA	NA	981.8	NA	NA		M	NA	NA	NA	NA
2018/03/04 19:42:01	AWS2	8.38	12	10.19	9	3.2	92	2.1	NA	NA	981.8	NA	NA		M	NA	NA	NA	NA
2018/03/04 19:43:01	AWS2	8.12	13	10.19	9	3.3	92	2.1	NA	NA	981.8	NA	NA		M	NA	NA	NA	NA
2018/03/04 19:44:01	AWS2	8.42	15	10.19	9	3.3	92	2.1	NA	NA	981.6	NA	NA		M	NA	NA	NA	NA
2018/03/04 19:45:01	AWS2	9.51	18	11.16	29	3.3	92	2.1	NA	NA	981.6	NA	NA		M	NA	NA	NA	NA
2018/03/04 19:46:01	AWS2	9.51	19	11.16	29	3.3	92	2.1	NA	NA	981.7	NA	NA		M	NA	NA	NA	NA
2018/03/04 19:47:01	AWS2	9.23	17	11.16	29	3.3	91	2.1	NA	NA	981.5	NA	NA		M	NA	NA	NA	NA
2018/03/04 19:48:01	AWS2	9.61	15	11.16	29	3.4	91	2.1	NA	NA	981.5	NA	NA		M	NA	NA	NA	NA
2018/03/04 19:49:01	AWS2	9.77	15	11.21	14	3.4	91	2.0	NA	NA	981.4	NA	NA		M	NA	NA	NA	NA
2018/03/04 19:50:01	AWS2	9.58	15	11.21	14	3.4	91	2.0	NA	NA	981.7	NA	NA		M	NA	NA	NA	NA
2018/03/04 19:51:01	AWS2	9.02	14	11.21	14	3.5	90	2.0	NA	NA	981.7	NA	NA		M	NA	NA	NA	NA
2018/03/04 19:52:01	AWS2	8.73	16	11.21	14	3.5	90	2.0	NA	NA	981.4	NA	NA		M	NA	NA	NA	NA
2018/03/04 19:53:01	AWS2	8.19	18	11.21	14	3.4	90	2.0	NA	NA	981.6	NA	NA		M	NA	NA	NA	NA
2018/03/04 19:54:01	AWS2	7.96	16	11.21	14	3.4	90	1.9	NA	NA	981.8	NA	NA		M	NA	NA	NA	NA
2018/03/04 19:55:01	AWS2	7.79	15	11.21	14	3.4	90	1.9	NA	NA	981.8	NA	NA		M	NA	NA	NA	NA
2018/03/04 19:56:01	AWS2	7.23	14	11.21	14	3.4	90	1.9	NA	NA	982.0	NA	NA		M	NA	NA	NA	NA
2018/03/04 19:57:01	AWS2	7.53	11	11.21	14	3.4	90	1.9	NA	NA	981.8	NA	NA		M	NA	NA	NA	NA
2018/03/04 19:58:01	AWS2	8.08	6	11.21	14	3.3	90	1.8	NA	NA	981.8	NA	NA		M	NA	NA	NA	NA
2018/03/04 19:59:01	AWS2	8.83	3	10.96	4	3.3	90	1.8	NA	NA	981.6	NA	NA		M	NA	NA	NA	NA
2018/03/04 20:00:01	AWS2	9.18	5	10.96	4	3.3	90	1.8	NA	NA	981.7	NA	NA		M	NA	NA	NA	NA
2018/03/04 20:01:01	AWS2	9.17	4	10.96	4	3.2	90	1.8	NA	NA	981.7	NA	NA		M	NA	NA	NA	NA
2018/03/04 20:02:01	AWS2	9.96	3	11.21	352	3.2	90	1.7	NA	NA	981.2	NA	NA		M	NA	NA	NA	NA
2018/03/04 20:03:01	AWS2	9.58	2	11.21	352	3.2	90	1.7	NA	NA	981.7	NA	NA		M	NA	NA	NA	NA
2018/03/04 20:04:01	AWS2	8.72	3	11.21	352	3.1	90	1.6	NA	NA	981.6	NA	NA		M	NA	NA	NA	NA
2018/03/04 20:05:01	AWS2	8.66	7	11.21	352	3.1	90	1.6	NA	NA	981.7	NA	NA		M	NA	NA	NA	NA
2018/03/04 20:06:01	AWS2	8.68	11	11.21	352	3.0	90	1.6	NA	NA	981.7	NA	NA		M	NA	NA	NA	NA
2018/03/04 20:07:01	AWS2	8.53	9	11.21	352	3.0	90	1.6	NA	NA	981.6	NA	NA		M	NA	NA	NA	NA
2018/03/04 20:08:01	AWS2	8.80	5	11.21	352	3.0	90	1.6	NA	NA	981.7	NA	NA		M	NA	NA	NA	NA
2018/03/04 20:09:01	AWS2	8.48	5	11.21	352	3.0	91	1.6	NA	NA	981.8	NA	NA		M	NA	NA	NA	NA
2018/03/04 20:10:01	AWS2	8.42	8	11.21	352	2.9	91	1.6	NA	NA	981.7	NA	NA		M	NA	NA	NA	NA
2018/03/04 20:11:01	AWS2	9.48	10	11.47	19	2.9	91	1.6	NA	NA	981.5	NA	NA		M	NA	NA	NA	NA
2018/03/04 20:12:01	AWS2	9.31	9	11.47	19	2.9	91	1.6	NA	NA	981.7	NA	NA		M	NA	NA	NA	NA
2018/03/04 20:13:01	AWS2	8.83	6	11.47	19	3.0	91	1.6	NA	NA	981.5	NA	NA		M	NA	NA	NA	NA
2018/03/04 20:14:01	AWS2	9.28	7	11.47	19	3.0	91	1.6	NA	NA	981.4	NA	NA		M	NA	NA	NA	NA
2018/03/04 20:15:01	AWS2	9.60	13	11.47	19	3.0	91	1.6	NA	NA	981.5	NA	NA		M	NA	NA	NA	NA
2018/03/04 20:16:01	AWS2	9.99	12	11.68	11	3.0	91	1.6	NA	NA	981.5	NA	NA		M	NA	NA	NA	NA
2018/03/04 20:17:01	AWS2	10.38	8	11.68	11	2.9	91	1.6	NA	NA	981.4	NA	NA		M	NA	NA	NA	NA
2018/03/04 20:18:01	AWS2	9.67	10	11.68	11	2.9	91	1.6	NA	NA	981.6	NA	NA		M	NA	NA	NA	NA
2018/03/04 20:19:01	AWS2	9.64	9	11.94	7	2.9	91	1.6	NA	NA	981.4	NA	NA		M	NA	NA	NA	NA
2018/03/04 20:20:01	AWS2	9.44	11	11.94	7	2.9	92	1.7	NA	NA	981.5	NA	NA		M	NA	NA	NA	NA
2018/03/04 20:21:01	AWS2	8.91	10	11.94	7	2.9	92	1.7	NA	NA	981.4	NA	NA		M	NA	NA	NA	NA
2018/03/04 20:22:01	AWS2	8.72	6	11.94	7	2.9	92	1.7	NA	NA	981.7	NA	NA		M	NA	NA	NA	NA
2018/03/04 20:23:01	AWS2	8.52	9	11.94	7	2.9	92	1.7	NA	NA	981.6	NA	NA		M	NA	NA	NA	NA
2018/03/04 20:24:01	AWS2	8.96	15	11.94	7	2.9	92	1.7	NA	NA	981.4	NA	NA		M	NA	NA	NA	NA
2018/03/04 20:25:01	AWS2	9.11	12	11.94	7	2.9	92	1.7	NA	NA	981.4	NA	NA		M	NA	NA	NA	NA
2018/03/04 20:26:01	AWS2	8.94	10	11.94	7	2.9	92	1.8	NA	NA	981.5	NA	NA		M	NA	NA	NA	NA
2018/03/04 20:27:01	AWS2	8.41	14	11.94	7	2.9	92	1.8	NA	NA	981.4	NA	NA		M	NA	NA	NA	NA
2018/03/04 20:28:01	AWS2	8.48	16	11.94	7	2.9	92	1.8	NA	NA	981.3	NA	NA		M	NA	NA	NA	NA
2018/03/04 20:29:00	AWS2	9.58	13	11.11	6	2.9	92	1.8	NA	NA	981.5	NA	NA		M	NA	NA	NA	NA
2018/03/04 20:30:00	AWS2	9.77	14	11.11	6	3.0	92	1.8	NA	NA	981.3	NA	NA		M	NA	NA	NA	NA
2018/03/04 20:31:00	AWS2	9.33	17	11.11	6	3.0	92	1.8	NA	NA	981.5	NA	NA		M	NA	NA	NA	NA
2018/03/04 20:32:01	AWS2	9.47	14	11.68	9	3.0	92	1.8	NA	NA	981.4	NA	NA		M	NA	NA	NA	NA
2018/03/04 20:33:00	AWS2	8.96	15	11.68	9	3.0	92	1.8	NA	NA	981.4	NA	NA		M	NA	NA	NA	NA
2018/03/04 20:34:00	AWS2	8.75	16	11.68	9	3.0	92	1.8	NA	NA	981.3	NA	NA		M	NA	NA	NA	NA
2018/03/04 20:35:00	AWS2	8.91	13	11.68	9	3.0	92	1.8	NA	NA	981.5	NA	NA		M	NA	NA	NA	NA
2018/03/04 20:36:00	AWS2	9.61	12	12.55	8	3.0	92	1.8	NA	NA	981.4	NA	NA		M	NA	NA	NA	NA
2018/03/04 20:37:00	AWS2	10.53	9	12.55	8	3.0	92	1.8	NA	NA	981.2	NA	NA		M	NA	NA	NA	NA
2018/03/04 20:38:01	AWS2	10.20	9	12.55	8	3.0	92	1.8	NA	NA	981.1	NA	NA		M	NA	NA	NA	NA
2018/03/04 20:39:00	AWS2	9.22	10	12.55	8	3.0	92	1.8	NA	NA	981.5	NA	NA		M	NA	NA	NA	NA
2018/03/04 20:40:00	AWS2	8.40	10	12.55	8	3.0	92	1.8	NA	NA	981.4	NA	NA		M	NA	NA	NA	NA
2018/03/04 20:41:00	AWS2	7.95	14	12.55	8	2.9	92	1.8	NA	NA	981.5	NA	NA		M	NA	NA	NA	NA
2018/03/04 20:42:00	AWS2	7.60	15	12.55	8	2.9	92	1.8	NA	NA	981.5	NA	NA		M	NA	NA	NA	NA
2018/03/04 20:43:00	AWS2	8.27	10	12.55	8	2.9	92	1.7	NA	NA	981.6	NA	NA		M	NA	NA	NA	NA
2018/03/04 20:44:00	AWS2	8.66	10	12.55	8	2.9	92	1.7	NA	NA	981.5	NA	NA		M	NA	NA	NA	NA
2018/03/04 20:45:00	AWS2	8.03	11	12.55	8	2.8	92	1.7	NA	NA	981.3	NA	NA		M	NA	NA	NA	NA
2018/03/04 20:46:00	AWS2	8.27	13	12.45	5	2.8	92	1.7	NA	NA	981.5	NA	NA		M	NA	NA	NA	NA
2018/03/04 20:47:00	AWS2	9.07	16	11.42	29	2.8	92	1.6	NA	NA	981.4	NA	NA		M	NA	NA	NA	NA
2018/03/04 20:48:00	AWS2	9.18	14	11.42	29	2.8	92	1.6	NA	NA	981.5	NA	NA		M	NA	NA	NA	NA
2018/03/04 20:49:00	AWS2	8.60	14	11.42	29	2.8	92	1.6	NA	NA	981.4	NA	NA		M	NA	NA	NA	NA
2018/03/04 20:50:00	AWS2	8.09	14	11.42	29	2.8	92	1.7	NA	NA	981.7	NA	NA		M	NA	NA	NA	NA
2018/03/04 20:51:00	AWS2	7.89	14	11.42	29	2.8	92	1.7	NA	NA	981.6	NA	NA		M	NA	NA	NA	NA
2018/03/04 20:52:00	AWS2	8.71	15	11.42	29	2.8	92	1.7	NA	NA	981.1	NA	NA		M	NA	NA	NA	NA
2018/03/04 20:53:00	AWS2	9.27	15	11.42	29	2.8	92	1.7	NA	NA	981.5	NA	NA		M	NA	NA	NA	NA
2018/03/04 20:54:00	AWS2	9.30	11	11.42	29	2.8	93	1.8	NA	NA	981.5	NA	NA		M	NA	NA	NA	NA
2018/03/04 20:55:01	AWS2	9.67	11	11.42	29	2.8	93	1.8	NA	NA	981.3	NA	NA		M	NA	NA	NA	NA
2018/03/04 20:56:00	AWS2	9.84	15	11.78	12	2.8	93	1.8	NA	NA	981.2	NA	NA		M	NA	NA	NA	NA
2018/03/04 20:57:00	AWS2	9.89	14	11.78	13	2.8	93	1.8	NA	NA	981.3	NA	NA		M	NA	NA	NA	NA
2018/03/04 20:58:00	AWS2	9.52	15	11.78	13	2.8	93	1.8	NA	NA	981.4	NA	NA		M	NA	NA	NA	NA
2018/03/04 20:59:00	AWS2	8.72	10	11.78	13	2.8	93	1.8	NA	NA	981.3	NA	NA		M	NA	NA	NA	NA
2018/03/04 21:00:00	AWS2	7.56	6	11.78	13	2.8	93	1.8	NA	NA	981.4	NA	NA		M	NA	NA	NA	NA
2018/03/04 21:01:00	AWS2	7.74	10	11.78	13	2.8	93	1.8	NA	NA	981.5	NA	NA		M	NA	NA	NA	NA
2018/03/04 21:02:00	AWS2	8.70	9	11.78	13	2.8	93	1.8	NA	NA	981.0	NA	NA		M	NA	NA	NA	NA
2018/03/04 21:03:00	AWS2	8.38	8	11.78	13	2.8	93	1.8	NA	NA	981.6	NA	NA		M	NA	NA	NA	NA
2018/03/04 21:04:00	AWS2	7.73	10	11.78	13	2.8	93	1.8	NA	NA	981.6	NA	NA		M	NA	NA	NA	NA
2018/03/04 21:05:00	AWS2	7.39	9	11.78	13	2.8	93	1.8	NA	NA	981.6	NA	NA		M	NA	NA	NA	NA
2018/03/04 21:06:00	AWS2	7.84	11	11.78	13	2.8	93	1.8	NA	NA	981.8	NA	NA		M	NA	NA	NA	NA
2018/03/04 21:07:00	AWS2	8.80	9	11.32	8	2.8	93	1.8	NA	NA	981.4	NA	NA		M	NA	NA	NA	NA
2018/03/04 21:08:00	AWS2	9.31	10	11.32	8	2.8	93	1.8	NA	NA	981.5	NA	NA		M	NA	NA	NA	NA
2018/03/04 21:09:00	AWS2	9.14	10	11.32	8	2.8	93	1.8	NA	NA	981.7	NA	NA		M	NA	NA	NA	NA
2018/03/04 21:10:00	AWS2	8.49	11	11.32	8	2.8	93	1.8	NA	NA	981.6	NA	NA		M	NA	NA	NA	NA
2018/03/04 21:11:00	AWS2	7.79	14	11.32	8	2.8	93	1.8	NA	NA	981.8	NA	NA		M	NA	NA	NA	NA
2018/03/04 21:12:00	AWS2	7.86	10	11.32	8	2.8	93	1.8	NA	NA	981.5	NA	NA		M	NA	NA	NA	NA
2018/03/04 21:13:00	AWS2	7.87	8	11.32	8	2.8	93	1.8	NA	NA	981.9	NA	NA		M	NA	NA	NA	NA
2018/03/04 21:14:00	AWS2	7.86	10	11.32	8	2.8	93	1.8	NA	NA	981.8	NA	NA		M	NA	NA	NA	NA
2018/03/04 21:15:00	AWS2	8.40	13	11.32	8	2.8	93	1.8	NA	NA	981.7	NA	NA		M	NA	NA	NA	NA
2018/03/04 21:16:00	AWS2	8.46	16	11.32	8	2.8	93	1.8	NA	NA	981.7	NA	NA		M	NA	NA	NA	NA
2018/03/04 21:17:00	AWS2	7.97	12	10.39	11	2.9	93	1.8	NA	NA	981.6	NA	NA		M	NA	NA	NA	NA
2018/03/04 21:18:00	AWS2	7.74	12	10.24	11	2.9	93	1.8	NA	NA	981.7	NA	NA		M	NA	NA	NA	NA
2018/03/04 21:19:00	AWS2	7.63	13	10.24	11	2.9	93	1.9	NA	NA	981.6	NA	NA		M	NA	NA	NA	NA
2018/03/04 21:20:00	AWS2	7.79	12	10.24	11	2.9	93	1.9	NA	NA	981.7	NA	NA		M	NA	NA	NA	NA
2018/03/04 21:21:00	AWS2	8.20	17	10.24	11	2.9	93	1.9	NA	NA	981.6	NA	NA		M	NA	NA	NA	NA
2018/03/04 21:22:00	AWS2	8.30	13	9.98	13	2.9	93	1.9	NA	NA	981.6	NA	NA		M	NA	NA	NA	NA
2018/03/04 21:23:00	AWS2	7.96	8	9.98	13	2.9	93	1.9	NA	NA	981.8	NA	NA		M	NA	NA	NA	NA
2018/03/04 21:24:00	AWS2	7.64	6	9.98	13	2.9	93	1.9	NA	NA	981.7	NA	NA		M	NA	NA	NA	NA
2018/03/04 21:25:00	AWS2	7.92	7	9.98	13	2.9	93	1.8	NA	NA	981.4	NA	NA		M	NA	NA	NA	NA
2018/03/04 21:26:00	AWS2	7.78	12	9.93	1	2.8	93	1.8	NA	NA	981.8	NA	NA		M	NA	NA	NA	NA
2018/03/04 21:27:00	AWS2	7.61	14	9.93	1	2.8	93	1.7	NA	NA	981.9	NA	NA		M	NA	NA	NA	NA
2018/03/04 21:28:00	AWS2	7.67	12	9.93	1	2.8	92	1.7	NA	NA	981.6	NA	NA		M	NA	NA	NA	NA
2018/03/04 21:29:00	AWS2	7.43	10	9.93	1	2.8	92	1.7	NA	NA	981.6	NA	NA		M	NA	NA	NA	NA
2018/03/04 21:30:00	AWS2	7.96	7	10.44	8	2.8	92	1.6	NA	NA	981.6	NA	NA		M	NA	NA	NA	NA
2018/03/04 21:31:00	AWS2	8.75	5	10.44	8	2.8	92	1.6	NA	NA	981.4	NA	NA		M	NA	NA	NA	NA
2018/03/04 21:32:00	AWS2	8.53	5	10.44	8	2.8	92	1.6	NA	NA	981.7	NA	NA		M	NA	NA	NA	NA
2018/03/04 21:33:00	AWS2	8.58	9	10.44	8	2.8	92	1.6	NA	NA	981.6	NA	NA		M	NA	NA	NA	NA
2018/03/04 21:34:00	AWS2	8.70	7	10.44	8	2.8	92	1.6	NA	NA	981.6	NA	NA		M	NA	NA	NA	NA
2018/03/04 21:35:00	AWS2	8.61	6	10.44	8	2.8	92	1.6	NA	NA	981.6	NA	NA		M	NA	NA	NA	NA
2018/03/04 21:36:00	AWS2	9.69	7	12.35	12	2.8	92	1.6	NA	NA	981.4	NA	NA		M	NA	NA	NA	NA
2018/03/04 21:37:00	AWS2	9.90	6	12.35	12	2.8	92	1.6	NA	NA	981.6	NA	NA		M	NA	NA	NA	NA
2018/03/04 21:38:00	AWS2	9.13	11	12.35	12	2.8	92	1.6	NA	NA	981.4	NA	NA		M	NA	NA	NA	NA
2018/03/04 21:39:00	AWS2	9.35	10	12.35	12	2.8	92	1.6	NA	NA	981.4	NA	NA		M	NA	NA	NA	NA
2018/03/04 21:40:00	AWS2	10.04	5	12.45	8	2.8	92	1.6	NA	NA	981.2	NA	NA		M	NA	NA	NA	NA
2018/03/04 21:41:00	AWS2	9.87	8	12.45	8	2.8	92	1.6	NA	NA	981.4	NA	NA		M	NA	NA	NA	NA
2018/03/04 21:42:00	AWS2	9.41	12	12.45	8	2.8	92	1.6	NA	NA	981.3	NA	NA		M	NA	NA	NA	NA
2018/03/04 21:43:00	AWS2	9.81	11	12.45	8	2.8	92	1.6	NA	NA	981.3	NA	NA		M	NA	NA	NA	NA
2018/03/04 21:44:00	AWS2	10.64	8	12.45	8	2.8	92	1.6	NA	NA	981.0	NA	NA		M	NA	NA	NA	NA
2018/03/04 21:45:00	AWS2	9.71	6	12.45	8	2.8	92	1.6	NA	NA	981.5	NA	NA		M	NA	NA	NA	NA
2018/03/04 21:46:00	AWS2	9.12	10	12.45	8	2.8	92	1.7	NA	NA	981.1	NA	NA		M	NA	NA	NA	NA
2018/03/04 21:47:00	AWS2	10.08	14	12.66	26	2.8	92	1.7	NA	NA	981.1	NA	NA		M	NA	NA	NA	NA
2018/03/04 21:48:00	AWS2	10.48	16	12.66	26	2.8	93	1.7	NA	NA	981.0	NA	NA		M	NA	NA	NA	NA
2018/03/04 21:49:00	AWS2	10.33	13	12.66	26	2.8	93	1.8	NA	NA	981.4	NA	NA		M	NA	NA	NA	NA
2018/03/04 21:50:00	AWS2	9.58	9	12.66	26	2.8	93	1.8	NA	NA	981.2	NA	NA		M	NA	NA	NA	NA
2018/03/04 21:51:00	AWS2	9.31	10	12.66	26	2.8	93	1.8	NA	NA	981.4	NA	NA		M	NA	NA	NA	NA
2018/03/04 21:52:00	AWS2	9.04	9	12.66	26	2.8	93	1.8	NA	NA	981.3	NA	NA		M	NA	NA	NA	NA
2018/03/04 21:53:00	AWS2	9.72	6	12.66	26	2.8	93	1.8	NA	NA	981.0	NA	NA		M	NA	NA	NA	NA
2018/03/04 21:54:00	AWS2	9.96	4	12.66	26	2.8	93	1.8	NA	NA	981.3	NA	NA		M	NA	NA	NA	NA
2018/03/04 21:55:00	AWS2	9.34	7	12.66	26	2.8	93	1.8	NA	NA	981.2	NA	NA		M	NA	NA	NA	NA
2018/03/04 21:56:00	AWS2	9.76	12	12.66	26	2.8	93	1.8	NA	NA	980.9	NA	NA		M	NA	NA	NA	NA
2018/03/04 21:57:00	AWS2	10.13	13	12.60	1	2.8	93	1.8	NA	NA	981.2	NA	NA		M	NA	NA	NA	NA
2018/03/04 21:58:00	AWS2	10.06	12	12.60	1	2.8	93	1.8	NA	NA	981.2	NA	NA		M	NA	NA	NA	NA
2018/03/04 21:59:00	AWS2	9.88	13	12.60	1	2.8	93	1.8	NA	NA	981.2	NA	NA		M	NA	NA	NA	NA
2018/03/04 22:00:00	AWS2	9.60	11	12.60	1	2.8	93	1.8	NA	NA	981.0	NA	NA		M	NA	NA	NA	NA
2018/03/04 22:01:00	AWS2	9.49	11	12.60	1	2.8	93	1.8	NA	NA	981.3	NA	NA		M	NA	NA	NA	NA
2018/03/04 22:02:00	AWS2	9.33	9	12.60	1	2.8	93	1.8	NA	NA	981.1	NA	NA		M	NA	NA	NA	NA
2018/03/04 22:04:42	AWS2	M	M	12.60	1	2.8	93	1.8	NA	NA	M	NA	NA		M	NA	NA	NA	NA
2018/03/04 22:04:49	AWS2	M	M	12.60	1	2.8	93	1.8	NA	NA	M	NA	NA		M	NA	NA	NA	NA
2018/03/04 22:05:00	AWS2	M	M	M	M	2.8	93	1.8	NA	NA	M	NA	NA		M	NA	NA	NA	NA
2018/03/04 22:06:01	AWS2	M	M	M	M	2.8	93	1.8	NA	NA	981.2	NA	NA		M	NA	NA	NA	NA
2018/03/04 22:07:01	AWS2	10.02	6	M	M	2.8	93	1.8	NA	NA	981.2	NA	NA		M	NA	NA	NA	NA
2018/03/04 22:08:00	AWS2	10.07	8	M	M	2.8	93	1.8	NA	NA	981.1	NA	NA		M	NA	NA	NA	NA
2018/03/04 22:09:00	AWS2	10.57	13	M	M	2.8	93	1.8	NA	NA	981.0	NA	NA		M	NA	NA	NA	NA
2018/03/04 22:10:00	AWS2	11.47	15	M	M	2.9	93	1.8	NA	NA	980.6	NA	NA		M	NA	NA	NA	NA
2018/03/04 22:11:00	AWS2	11.33	13	M	M	2.9	93	1.8	NA	NA	980.9	NA	NA		M	NA	NA	NA	NA
2018/03/04 22:12:00	AWS2	10.89	14	M	M	2.9	93	1.8	NA	NA	980.8	NA	NA		M	NA	NA	NA	NA
2018/03/04 22:13:00	AWS2	11.26	16	13.84	29	2.9	93	1.9	NA	NA	980.6	NA	NA		M	NA	NA	NA	NA
2018/03/04 22:14:00	AWS2	11.17	13	13.89	5	2.9	93	1.9	NA	NA	980.7	NA	NA		M	NA	NA	NA	NA
2018/03/04 22:15:00	AWS2	10.96	13	13.89	5	2.9	93	1.9	NA	NA	980.7	NA	NA		M	NA	NA	NA	NA
2018/03/04 22:16:00	AWS2	10.65	14	13.89	5	2.9	93	1.9	NA	NA	980.9	NA	NA		M	NA	NA	NA	NA
2018/03/04 22:17:00	AWS2	10.77	12	13.89	5	2.9	93	1.9	NA	NA	980.7	NA	NA		M	NA	NA	NA	NA
2018/03/04 22:18:00	AWS2	10.49	9	13.89	5	2.9	93	1.9	NA	NA	980.8	NA	NA		M	NA	NA	NA	NA
2018/03/04 22:19:00	AWS2	10.78	11	13.89	5	2.9	93	1.9	NA	NA	980.5	NA	NA		M	NA	NA	NA	NA
2018/03/04 22:20:00	AWS2	11.39	14	13.89	5	2.9	93	1.9	NA	NA	980.6	NA	NA		M	NA	NA	NA	NA
2018/03/04 22:21:00	AWS2	11.32	12	13.89	5	2.9	93	1.9	NA	NA	980.6	NA	NA		M	NA	NA	NA	NA
2018/03/04 22:22:00	AWS2	10.95	14	13.89	5	2.9	93	1.9	NA	NA	980.7	NA	NA		M	NA	NA	NA	NA
2018/03/04 22:23:00	AWS2	10.35	11	13.89	5	3.0	92	1.8	NA	NA	980.7	NA	NA		M	NA	NA	NA	NA
2018/03/04 22:24:00	AWS2	9.80	4	12.81	11	3.0	92	1.8	NA	NA	980.8	NA	NA		M	NA	NA	NA	NA
2018/03/04 22:25:00	AWS2	9.78	7	12.81	11	3.0	92	1.8	NA	NA	980.5	NA	NA		M	NA	NA	NA	NA
2018/03/04 22:26:00	AWS2	10.72	8	12.81	11	3.0	92	1.8	NA	NA	980.9	NA	NA		M	NA	NA	NA	NA
2018/03/04 22:27:00	AWS2	10.83	3	12.81	11	3.0	92	1.8	NA	NA	980.4	NA	NA		M	NA	NA	NA	NA
2018/03/04 22:28:00	AWS2	10.18	7	12.81	11	3.0	92	1.7	NA	NA	980.9	NA	NA		M	NA	NA	NA	NA
2018/03/04 22:29:00	AWS2	9.13	13	12.71	14	3.0	91	1.7	NA	NA	980.9	NA	NA		M	NA	NA	NA	NA
2018/03/04 22:30:00	AWS2	9.18	9	12.71	14	3.0	91	1.7	NA	NA	980.6	NA	NA		M	NA	NA	NA	NA
2018/03/04 22:31:00	AWS2	9.97	13	12.71	14	3.0	91	1.7	NA	NA	980.8	NA	NA		M	NA	NA	NA	NA
2018/03/04 22:32:00	AWS2	10.56	17	14.25	3	3.0	91	1.7	NA	NA	980.5	NA	NA		M	NA	NA	NA	NA
2018/03/04 22:33:00	AWS2	11.00	11	14.25	3	3.0	91	1.7	NA	NA	980.2	NA	NA		M	NA	NA	NA	NA
2018/03/04 22:34:00	AWS2	11.03	17	14.25	3	3.0	91	1.7	NA	NA	980.6	NA	NA		M	NA	NA	NA	NA
2018/03/04 22:35:00	AWS2	11.46	21	14.25	3	3.0	91	1.6	NA	NA	980.5	NA	NA		M	NA	NA	NA	NA
2018/03/04 22:36:00	AWS2	11.72	15	14.25	3	3.0	90	1.6	NA	NA	980.2	NA	NA		M	NA	NA	NA	NA
2018/03/04 22:37:00	AWS2	12.04	13	14.25	3	3.0	90	1.6	NA	NA	980.2	NA	NA		M	NA	NA	NA	NA
2018/03/04 22:38:00	AWS2	11.91	11	14.25	3	3.0	90	1.5	NA	NA	980.0	NA	NA		M	NA	NA	NA	NA
2018/03/04 22:39:00	AWS2	11.56	13	14.82	12	3.0	90	1.5	NA	NA	980.4	NA	NA		M	NA	NA	NA	NA
2018/03/04 22:40:00	AWS2	10.89	10	14.82	12	3.0	90	1.5	NA	NA	980.5	NA	NA		M	NA	NA	NA	NA
2018/03/04 22:41:00	AWS2	11.05	11	14.82	12	3.0	90	1.5	NA	NA	980.5	NA	NA		M	NA	NA	NA	NA
2018/03/04 22:42:00	AWS2	11.91	16	14.82	12	3.0	90	1.5	NA	NA	980.0	NA	NA		M	NA	NA	NA	NA
2018/03/04 22:43:00	AWS2	11.79	14	14.82	12	3.0	90	1.5	NA	NA	979.8	NA	NA		M	NA	NA	NA	NA
2018/03/04 22:44:00	AWS2	11.84	16	14.82	12	3.0	90	1.5	NA	NA	979.7	NA	NA		M	NA	NA	NA	NA
2018/03/04 22:45:00	AWS2	12.40	17	14.82	12	3.0	90	1.5	NA	NA	980.3	NA	NA		M	NA	NA	NA	NA
2018/03/04 22:46:00	AWS2	12.31	15	14.82	12	3.0	90	1.5	NA	NA	980.2	NA	NA		M	NA	NA	NA	NA
2018/03/04 22:47:00	AWS2	11.77	13	14.82	12	3.0	90	1.5	NA	NA	980.2	NA	NA		M	NA	NA	NA	NA
2018/03/04 22:48:00	AWS2	11.39	14	14.82	12	3.0	90	1.5	NA	NA	979.9	NA	NA		M	NA	NA	NA	NA
2018/03/04 22:49:00	AWS2	10.78	16	14.04	6	3.0	89	1.5	NA	NA	980.6	NA	NA		M	NA	NA	NA	NA
2018/03/04 22:50:00	AWS2	10.92	15	14.04	6	3.1	89	1.5	NA	NA	979.8	NA	NA		M	NA	NA	NA	NA
2018/03/04 22:51:00	AWS2	11.42	13	14.04	6	3.1	89	1.4	NA	NA	980.3	NA	NA		M	NA	NA	NA	NA
2018/03/04 22:52:00	AWS2	11.94	14	13.99	13	3.0	89	1.4	NA	NA	979.9	NA	NA		M	NA	NA	NA	NA
2018/03/04 22:53:00	AWS2	12.03	16	13.99	13	3.1	89	1.4	NA	NA	980.0	NA	NA		M	NA	NA	NA	NA
2018/03/04 22:54:00	AWS2	11.53	15	13.99	13	3.1	89	1.4	NA	NA	980.1	NA	NA		M	NA	NA	NA	NA
2018/03/04 22:55:00	AWS2	11.47	15	13.99	13	3.1	89	1.4	NA	NA	980.2	NA	NA		M	NA	NA	NA	NA
2018/03/04 22:56:00	AWS2	11.30	17	13.99	13	3.1	89	1.5	NA	NA	980.2	NA	NA		M	NA	NA	NA	NA
2018/03/04 22:57:00	AWS2	11.56	17	13.99	13	3.1	89	1.4	NA	NA	980.1	NA	NA		M	NA	NA	NA	NA
2018/03/04 22:58:00	AWS2	11.92	16	13.99	13	3.1	89	1.4	NA	NA	979.7	NA	NA		M	NA	NA	NA	NA
2018/03/04 22:59:00	AWS2	11.64	17	13.99	13	3.1	89	1.4	NA	NA	980.1	NA	NA		M	NA	NA	NA	NA
2018/03/04 23:00:00	AWS2	11.32	13	13.99	13	3.1	89	1.4	NA	NA	979.9	NA	NA		M	NA	NA	NA	NA
2018/03/04 23:01:00	AWS2	10.91	12	13.99	13	3.1	89	1.4	NA	NA	980.2	NA	NA		M	NA	NA	NA	NA
2018/03/04 23:02:00	AWS2	10.42	17	13.84	13	3.1	88	1.4	NA	NA	980.3	NA	NA		M	NA	NA	NA	NA
2018/03/04 23:03:00	AWS2	10.34	14	13.84	13	3.1	88	1.3	NA	NA	980.1	NA	NA		M	NA	NA	NA	NA
2018/03/04 23:04:00	AWS2	11.00	14	13.63	14	3.1	88	1.3	NA	NA	979.9	NA	NA		M	NA	NA	NA	NA
2018/03/04 23:05:00	AWS2	11.45	13	13.63	14	3.1	88	1.3	NA	NA	980.0	NA	NA		M	NA	NA	NA	NA
2018/03/04 23:06:00	AWS2	10.87	14	13.63	14	3.1	88	1.3	NA	NA	980.1	NA	NA		M	NA	NA	NA	NA
2018/03/04 23:07:00	AWS2	11.07	14	13.07	12	3.1	88	1.3	NA	NA	980.1	NA	NA		M	NA	NA	NA	NA
2018/03/04 23:08:00	AWS2	11.38	13	12.96	18	3.1	88	1.3	NA	NA	980.0	NA	NA		M	NA	NA	NA	NA
2018/03/04 23:09:00	AWS2	11.14	13	13.58	5	3.2	88	1.4	NA	NA	980.0	NA	NA		M	NA	NA	NA	NA
2018/03/04 23:10:00	AWS2	11.53	11	13.58	5	3.2	88	1.4	NA	NA	979.7	NA	NA		M	NA	NA	NA	NA
2018/03/04 23:11:01	AWS2	11.76	10	13.58	5	3.2	88	1.3	NA	NA	979.7	NA	NA		M	NA	NA	NA	NA
2018/03/04 23:12:00	AWS2	11.70	11	13.58	5	3.2	88	1.3	NA	NA	979.5	NA	NA		M	NA	NA	NA	NA
2018/03/04 23:13:00	AWS2	11.44	13	13.58	5	3.2	87	1.3	NA	NA	979.9	NA	NA		M	NA	NA	NA	NA
2018/03/04 23:14:00	AWS2	10.75	14	13.58	5	3.2	87	1.3	NA	NA	980.1	NA	NA		M	NA	NA	NA	NA
2018/03/04 23:15:00	AWS2	10.59	16	13.58	5	3.2	87	1.3	NA	NA	979.5	NA	NA		M	NA	NA	NA	NA
2018/03/04 23:16:00	AWS2	11.59	15	14.92	12	3.2	87	1.2	NA	NA	979.7	NA	NA		M	NA	NA	NA	NA
2018/03/04 23:17:00	AWS2	12.20	14	14.92	12	3.2	87	1.2	NA	NA	979.7	NA	NA		M	NA	NA	NA	NA
2018/03/04 23:18:00	AWS2	11.84	15	14.92	12	3.2	86	1.2	NA	NA	979.2	NA	NA		M	NA	NA	NA	NA
2018/03/04 23:19:00	AWS2	11.87	15	14.92	12	3.3	86	1.2	NA	NA	979.9	NA	NA		M	NA	NA	NA	NA
2018/03/04 23:20:00	AWS2	11.95	17	14.92	12	3.3	86	1.2	NA	NA	979.8	NA	NA		M	NA	NA	NA	NA
2018/03/04 23:21:00	AWS2	11.57	16	14.92	12	3.3	86	1.2	NA	NA	979.7	NA	NA		M	NA	NA	NA	NA
2018/03/04 23:22:00	AWS2	11.43	13	14.92	12	3.3	86	1.2	NA	NA	979.6	NA	NA		M	NA	NA	NA	NA
2018/03/04 23:23:00	AWS2	12.07	14	14.92	12	3.3	86	1.2	NA	NA	979.7	NA	NA		M	NA	NA	NA	NA
2018/03/04 23:24:00	AWS2	12.61	15	14.92	12	3.3	86	1.1	NA	NA	979.6	NA	NA		M	NA	NA	NA	NA
2018/03/04 23:25:00	AWS2	12.00	12	14.92	12	3.3	86	1.1	NA	NA	979.4	NA	NA		M	NA	NA	NA	NA
2018/03/04 23:26:00	AWS2	11.98	12	14.61	10	3.3	85	1.0	NA	NA	979.4	NA	NA		M	NA	NA	NA	NA
2018/03/04 23:27:00	AWS2	12.25	14	14.61	10	3.2	85	1.0	NA	NA	979.9	NA	NA		M	NA	NA	NA	NA
2018/03/04 23:28:00	AWS2	12.37	15	14.92	14	3.2	85	1.0	NA	NA	979.6	NA	NA		M	NA	NA	NA	NA
2018/03/04 23:29:00	AWS2	12.56	14	14.92	14	3.2	85	1.0	NA	NA	979.6	NA	NA		M	NA	NA	NA	NA
2018/03/04 23:30:00	AWS2	12.72	15	14.97	9	3.2	85	1.0	NA	NA	979.4	NA	NA		M	NA	NA	NA	NA
2018/03/04 23:31:00	AWS2	12.93	19	14.97	9	3.3	85	1.0	NA	NA	979.3	NA	NA		M	NA	NA	NA	NA
2018/03/04 23:32:00	AWS2	12.18	19	14.97	9	3.3	85	0.9	NA	NA	979.7	NA	NA		M	NA	NA	NA	NA
2018/03/04 23:33:00	AWS2	11.52	17	14.97	9	3.3	85	0.9	NA	NA	979.8	NA	NA		M	NA	NA	NA	NA
2018/03/04 23:34:00	AWS2	11.86	17	14.97	9	3.3	85	0.9	NA	NA	979.9	NA	NA		M	NA	NA	NA	NA
2018/03/04 23:35:00	AWS2	12.22	17	14.97	9	3.2	84	0.9	NA	NA	980.0	NA	NA		M	NA	NA	NA	NA
2018/03/04 23:36:00	AWS2	12.31	17	14.97	9	3.2	84	0.8	NA	NA	979.9	NA	NA		M	NA	NA	NA	NA
2018/03/04 23:37:00	AWS2	12.37	15	14.97	9	3.2	84	0.8	NA	NA	980.0	NA	NA		M	NA	NA	NA	NA
2018/03/04 23:38:00	AWS2	11.98	16	14.97	9	3.2	84	0.8	NA	NA	980.1	NA	NA		M	NA	NA	NA	NA
2018/03/04 23:39:00	AWS2	11.95	19	14.97	9	3.2	84	0.8	NA	NA	980.0	NA	NA		M	NA	NA	NA	NA
2018/03/04 23:40:00	AWS2	11.80	18	14.04	17	3.2	85	0.9	NA	NA	980.0	NA	NA		M	NA	NA	NA	NA
2018/03/04 23:41:00	AWS2	11.82	18	13.94	21	3.2	85	0.9	NA	NA	979.7	NA	NA		M	NA	NA	NA	NA
2018/03/04 23:42:00	AWS2	11.95	19	13.94	21	3.2	85	0.9	NA	NA	980.0	NA	NA		M	NA	NA	NA	NA
2018/03/04 23:43:00	AWS2	11.69	18	13.94	21	3.2	85	1.0	NA	NA	979.9	NA	NA		M	NA	NA	NA	NA
2018/03/04 23:44:00	AWS2	12.03	18	13.94	21	3.2	85	1.0	NA	NA	980.2	NA	NA		M	NA	NA	NA	NA
2018/03/04 23:45:00	AWS2	12.07	19	13.94	21	3.2	86	1.1	NA	NA	980.0	NA	NA		M	NA	NA	NA	NA
2018/03/04 23:46:00	AWS2	11.45	19	13.58	10	3.2	86	1.1	NA	NA	980.1	NA	NA		M	NA	NA	NA	NA
2018/03/04 23:47:00	AWS2	11.32	16	13.53	18	3.2	87	1.2	NA	NA	980.0	NA	NA		M	NA	NA	NA	NA
2018/03/04 23:48:00	AWS2	11.81	14	13.53	18	3.2	87	1.2	NA	NA	980.0	NA	NA		M	NA	NA	NA	NA
2018/03/04 23:49:00	AWS2	11.69	15	13.53	18	3.1	87	1.2	NA	NA	979.9	NA	NA		M	NA	NA	NA	NA
2018/03/04 23:50:00	AWS2	11.46	16	13.53	18	3.1	87	1.2	NA	NA	979.9	NA	NA		M	NA	NA	NA	NA
2018/03/04 23:51:00	AWS2	11.31	17	13.27	23	3.1	87	1.2	NA	NA	980.1	NA	NA		M	NA	NA	NA	NA
2018/03/04 23:52:00	AWS2	11.23	15	13.27	23	3.1	87	1.2	NA	NA	980.1	NA	NA		M	NA	NA	NA	NA
2018/03/04 23:53:00	AWS2	11.03	15	13.27	23	3.2	87	1.2	NA	NA	980.0	NA	NA		M	NA	NA	NA	NA
2018/03/04 23:54:00	AWS2	10.69	19	12.96	12	3.1	87	1.2	NA	NA	980.1	NA	NA		M	NA	NA	NA	NA
2018/03/04 23:55:00	AWS2	10.64	19	12.96	12	3.1	87	1.2	NA	NA	980.0	NA	NA		M	NA	NA	NA	NA
2018/03/04 23:56:00	AWS2	10.52	20	12.76	25	3.1	87	1.2	NA	NA	980.0	NA	NA		M	NA	NA	NA	NA
2018/03/04 23:57:00	AWS2	10.45	19	12.76	25	3.1	87	1.2	NA	NA	980.3	NA	NA		M	NA	NA	NA	NA
2018/03/04 23:58:00	AWS2	10.38	20	12.76	25	3.1	87	1.2	NA	NA	980.0	NA	NA		M	NA	NA	NA	NA
2018/03/04 23:59:00	AWS2	10.27	23	12.76	25	3.1	87	1.2	NA	NA	980.1	NA	NA		M	NA	NA	NA	NA